[[{"header":{"parameterUnit":"m.s-1","parameterCategory":1,"la1":31.0,"la2":29.5877,"lo1":-88.7671,"lo2":-86.6584,"dy":0.0162,"dx":0.0185,"nx":115,"ny":88,"refTime":"2023-05-13T12:00:00:Z","depth":0,"parameterNumber":2,"parameterNumberName":"U-component_of_WINDS"},"data":[0.0,0.0,0.0,0.0,0.0,0.0,0.0,0.0,0.0,0.0,0.0,0.0,0.0,0.0,0.0,0.0,0.0,0.0,0.0,0.0,0.0,0.0,0.0,0.0,0.0,0.0,0.0,0.0,0.0,0.0,0.0,0.0,0.0,0.0,0.0,0.0,0.0,0.0,0.0,0.0,0.0,0.0,0.0,0.0,0.0,0.0,0.0,0.0,0.0,0.0,0.0,0.0,0.0,0.0,0.0,0.0,0.0,0.0,0.0,0.0,0.0,0.0,0.0,0.0,0.0,0.0,0.0,0.0,0.0,0.0,0.0,0.0,0.0,0.0,0.0,0.0,0.0,0.0,0.0,0.0,0.0,0.0,0.0,0.0,0.0,0.0,0.0,0.0,0.0,0.0,0.0,0.0,0.0,0.0,0.0,0.0,0.0,0.0,0.0,0.0,0.0,0.0,0.0,0.0,0.0,0.0,0.0,0.0,0.0,0.0,0.0,0.0,0.0,0.0,0.0,0.0,0.0,0.0,0.0,0.0,0.0,0.0,0.0,0.0,0.0,0.0,0.0,0.0,0.0,0.0,0.0,0.0,0.0,0.0,0.0,0.0,0.0,0.0,0.0,0.0,0.0,0.0,0.0,0.0,0.0,0.0,0.0,0.0,0.0,0.0,0.0,0.0,0.0,0.0,0.0,0.0,0.0,0.0,0.0,0.0,0.0,0.0,0.0,0.0,0.0,0.0,0.0,0.0,0.0,0.0,0.0,0.0,0.0,0.0,0.0,0.0,0.0,0.0,0.0,0.0,0.0,0.0,0.0,0.0,0.0,0.0,0.0,0.0,0.0,0.0,0.0,0.0,0.0,0.0,0.0,0.0,0.0,0.0,0.0,0.0,0.0,0.0,0.0,0.0,0.0,0.0,0.0,0.0,0.0,0.0,0.0,0.0,0.0,0.0,0.0,0.0,0.0,0.0,0.0,0.0,0.0,0.0,0.0,0.0,0.0,0.0,0.0,0.0,0.0,0.0,0.0,0.0,0.0,0.0,0.0,0.0,0.0,0.0,0.0,0.0,0.0,0.0,0.0,0.0,0.0,0.0,0.0,0.0,0.0,0.0,0.0,0.0,0.0,0.0,0.0,0.0,0.0,0.0,0.0,0.0,0.0,0.0,0.0,0.0,0.0,0.0,0.0,0.0,0.0,0.0,0.0,0.0,0.0,0.0,0.0,0.0,0.0,0.0,0.0,0.0,0.0,0.0,0.0,0.0,0.0,0.0,0.0,0.0,0.0,0.0,0.0,0.0,0.0,0.0,0.0,0.0,0.0,0.0,0.0,0.0,0.0,0.0,0.0,0.0,0.0,0.0,0.0,0.0,0.0,0.0,0.0,0.0,0.0,0.0,0.0,0.0,0.0,0.0,0.0,0.0,0.0,0.0,0.0,0.0,0.0,0.0,0.0,0.0,0.0,0.0,0.0,0.0,0.0,0.0,0.0,0.0,0.0,0.0,0.0,0.0,0.0,0.0,0.0,0.0,0.0,0.0,0.0,0.0,0.0,0.0,0.0,0.0,0.0,0.0,0.0,0.0,0.0,0.0,0.0,0.0,0.0,0.0,0.0,0.0,0.0,0.0,0.0,0.0,0.0,0.0,0.0,0.0,0.0,0.0,0.0,0.0,0.0,0.0,0.0,0.0,0.0,0.0,0.0,0.0,0.0,0.0,0.0,0.0,0.0,0.0,0.0,0.0,0.0,0.0,0.0,0.0,0.0,0.0,0.0,0.0,0.0,0.0,0.0,0.0,0.0,0.0,0.0,0.0,0.0,0.0,0.0,0.0,0.0,0.0,0.0,0.0,0.0,0.0,0.0,0.0,0.0,0.0,0.0,0.0,0.0,0.0,0.0,0.0,0.0,0.0,0.0,0.0,0.0,0.0,0.0,0.0,0.0,0.0,0.0,0.0,0.0,0.0,0.0,0.0,0.0,0.0,0.0,0.0,0.0,0.0,0.0,0.0,0.0,0.0,0.0,0.0,0.0,0.0,0.0,0.0,0.0,0.0,0.0,0.0,0.0,0.0,0.0,0.0,0.0,0.0,0.0,0.0,0.0,0.0,0.0,0.0,0.0,0.0,0.0,0.0,0.0,0.0,0.0,0.0,0.0,0.0,0.0,0.0,0.0,0.0,0.0,0.0,0.0,0.0,0.0,0.0,0.0,0.0,0.0,0.0,0.0,0.0,0.0,0.0,0.0,0.0,0.0,0.0,0.0,0.0,0.0,0.0,0.0,0.0,0.0,0.0,0.0,0.0,0.0,0.0,0.0,0.0,0.0,0.0,0.0,0.0,0.0,0.0,0.0,0.0,0.0,0.0,0.0,0.0,0.0,0.0,0.0,0.0,0.0,0.0,0.0,0.0,0.0,0.0,0.0,0.0,0.0,0.0,0.0,0.0,0.0,0.0,0.0,0.0,0.0,0.0,0.0,0.0,0.0,0.0,0.0,0.0,0.0,0.0,0.0,0.0,0.0,0.0,0.0,0.0,0.0,0.0,0.0,0.0,0.0,0.0,0.0,0.0,0.0,0.0,0.0,0.0,0.0,0.0,0.0,0.0,0.0,0.0,0.0,0.0,0.0,0.0,0.0,0.0,0.0,0.0,0.0,0.0,0.0,0.0,0.0,0.0,0.0,0.0,0.0,0.0,0.0,0.0,0.0,0.0,0.0,0.0,0.0,0.0,0.0,0.0,0.0,0.0,0.0,0.0,0.0,0.0,0.0,0.0,0.0,0.0,0.0,0.0,0.0,0.0,0.0,0.0,0.0,0.0,0.0,0.0,0.0,0.0,0.0,0.0,0.0,0.0,0.0,0.0,0.0,0.0,0.0,0.0,0.0,0.0,0.0,0.0,0.0,0.0,0.0,0.0,0.0,0.0,0.0,0.0,0.0,0.0,0.0,0.0,0.0,0.0,0.0,0.0,0.0,0.0,0.0,0.0,0.0,0.0,0.0,0.0,0.0,0.0,0.0,0.0,0.0,0.0,0.0,0.0,0.0,0.0,0.0,0.0,0.0,0.0,0.0,0.0,0.0,0.0,0.0,0.0,0.0,0.0,0.0,0.0,0.0,0.0,0.0,0.0,0.0,0.0,0.0,0.0,0.0,0.0,0.0,0.0,0.0,0.0,0.0,0.0,0.0,0.0,0.0,0.0,0.0,0.0,0.0,0.0,0.0,0.0,0.0,0.0,0.0,0.0,0.0,0.0,0.0,0.0,0.0,0.0,0.0,0.0,0.0,0.0,0.0,0.0,0.0,0.0,0.0,0.0,0.0,0.0,0.0,0.0,0.0,0.0,0.0,0.0,0.0,0.0,0.0,0.0,0.0,0.0,0.0,0.0,0.0,0.0,0.0,0.0,0.0,0.0,0.0,0.0,0.0,0.0,0.0,0.0,0.0,0.0,0.0,0.0,0.0,0.0,0.0,0.0,0.0,0.0,0.0,0.0,0.0,0.0,0.0,0.0,0.0,0.0,0.0,0.0,0.0,0.0,0.0,0.0,0.0,0.0,0.0,0.0,0.0,0.0,0.0,0.0,0.0,0.0,0.0,0.0,0.0,0.0,0.0,0.0,0.0,0.0,0.0,0.0,0.0,0.0,0.0,0.0,0.0,0.0,0.0,0.0,0.0,0.0,0.0,0.0,0.0,0.0,0.0,0.0,0.0,0.0,0.0,0.0,0.0,0.0,0.0,0.0,0.0,0.0,0.0,0.0,0.0,0.0,0.0,0.0,0.0,0.0,0.0,0.0,0.0,0.0,0.0,0.0,0.0,0.0,0.0,0.0,0.0,0.0,0.0,0.0,0.0,0.0,0.0,0.0,0.0,0.0,0.0,0.0,0.0,0.0,0.0,0.0,0.0,0.0,0.0,0.0,0.0,0.0,0.0,0.0,0.0,0.0,0.0,0.0,0.0,0.0,0.0,0.0,0.0,0.0,0.0,0.0,0.0,0.0,0.0,0.0,0.0,0.0,0.0,0.0,0.0,0.0,0.0,0.0,0.0,0.0,0.0,0.0,0.0,0.0,0.0,0.0,0.0,0.0,0.0,0.0,0.0,0.0,0.0,0.0,0.0,0.0,0.0,0.0,0.0,0.0,0.0,0.0,0.0,0.0,0.0,0.0,0.0,0.0,0.0,0.0,0.0,0.0,0.0,0.0,0.0,0.0,0.0,0.0,0.0,0.0,0.0,0.0,0.0,0.0,0.0,0.0,0.0,0.0,0.0,0.0,0.0,0.0,0.0,0.0,1.9726,0.0,0.0,0.0,0.0,0.0,0.0,0.0,0.0,0.0,0.0,0.0,0.0,0.0,0.0,0.0,0.0,0.0,0.0,0.0,0.0,0.0,0.0,0.0,0.0,0.0,0.0,0.0,0.0,0.0,0.0,0.0,0.0,0.0,0.0,0.0,0.0,0.0,0.0,0.0,0.0,0.0,0.0,0.0,0.0,0.0,0.0,0.0,0.0,0.0,0.0,0.0,0.0,0.0,0.0,0.0,0.0,0.0,0.0,0.0,0.0,0.0,0.0,0.0,0.0,0.0,0.0,0.0,0.0,0.0,0.0,0.0,0.0,0.0,0.0,0.0,0.0,0.0,0.0,0.0,0.0,0.0,0.0,0.0,0.0,0.0,0.0,0.0,0.0,0.0,0.0,0.0,0.0,0.0,0.0,0.0,0.0,0.0,0.0,0.0,0.0,0.0,0.0,0.0,0.0,0.0,0.0,0.0,0.0,0.0,0.0,1.9955,1.9955,1.9977,2.0028,2.001,0.0,0.0,0.0,0.0,0.0,0.0,0.0,0.0,0.0,0.0,0.0,0.0,0.0,0.0,0.0,0.0,0.0,0.0,0.0,0.0,0.0,0.0,0.0,0.0,0.0,0.0,0.0,0.0,0.0,0.0,0.0,0.0,0.0,0.0,0.0,0.0,0.0,0.0,0.0,0.0,0.0,0.0,0.0,0.0,0.0,0.0,0.0,0.0,0.0,0.0,0.0,0.0,0.0,0.0,0.0,0.0,0.0,0.0,0.0,0.0,0.0,0.0,0.0,0.0,0.0,0.0,0.0,0.0,0.0,0.0,0.0,0.0,0.0,0.0,0.0,0.0,0.0,0.0,0.0,0.0,0.0,0.0,0.0,0.0,0.0,0.0,0.0,0.0,0.0,0.0,0.0,0.0,0.0,0.0,0.0,0.0,0.0,0.0,0.0,0.0,0.0,0.0,0.0,0.0,0.0,0.0,0.0,0.0,0.0,0.0,0.0,0.0,1.9926,1.9847,1.9671,0.0,0.0,0.0,0.0,0.0,0.0,0.0,0.0,0.0,0.0,0.0,0.0,0.0,0.0,0.0,0.0,0.0,0.0,0.0,0.0,0.0,0.0,0.0,0.0,0.0,0.0,0.0,0.0,0.0,0.0,0.0,0.0,0.0,0.0,0.0,0.0,0.0,0.0,0.0,0.0,0.0,0.0,0.0,0.0,0.0,0.0,0.0,0.0,0.0,0.0,0.0,0.0,0.0,0.0,0.0,0.0,0.0,0.0,0.0,0.0,0.0,0.0,0.0,0.0,0.0,0.0,0.0,0.0,0.0,0.0,0.0,0.0,0.0,0.0,0.0,0.0,0.0,0.0,0.0,0.0,0.0,0.0,0.0,0.0,0.0,0.0,0.0,0.0,0.0,0.0,0.0,0.0,0.0,0.0,0.0,0.0,0.0,0.0,0.0,0.0,0.0,0.0,0.0,0.0,0.0,0.0,0.0,0.0,0.0,0.0,1.9675,1.98,1.9763,0.0,1.8818,0.0,0.0,0.0,0.0,0.0,0.0,0.0,0.0,0.0,0.0,0.0,0.0,0.0,0.0,0.0,0.0,0.0,0.0,0.0,0.0,0.0,0.0,0.0,0.0,0.0,0.0,0.0,0.0,0.0,0.0,0.0,0.0,0.0,0.0,0.0,0.0,0.0,0.0,0.0,0.0,0.0,0.0,0.0,0.0,0.0,0.0,0.0,0.0,0.0,0.0,0.0,0.0,0.0,0.0,0.0,0.0,0.0,0.0,0.0,0.0,0.0,0.0,0.0,0.0,0.0,0.0,0.0,0.0,0.0,0.0,0.0,0.0,0.0,0.0,0.0,0.0,0.0,0.0,0.0,0.0,0.0,0.0,0.0,0.0,0.0,0.0,0.0,0.0,0.0,0.0,0.0,0.0,0.0,0.0,0.0,0.0,0.0,0.0,0.0,0.0,0.0,0.0,0.0,0.0,0.0,0.0,0.0,0.0,0.0,0.0,1.9633,1.9675,1.9701,1.9369,0.0,0.0,0.0,0.0,0.0,0.0,0.0,0.0,0.0,0.0,0.0,0.0,0.0,0.0,0.0,0.0,0.0,0.0,0.0,0.0,0.0,0.0,0.0,0.0,0.0,0.0,0.0,0.0,0.0,0.0,0.0,0.0,0.0,0.0,0.0,0.0,0.0,0.0,0.0,0.0,0.0,0.0,0.0,0.0,0.0,0.0,0.0,0.0,0.0,0.0,0.0,0.0,0.0,0.0,0.0,0.0,0.0,0.0,0.0,0.0,0.0,0.0,0.0,0.0,0.0,0.0,0.0,0.0,0.0,0.0,0.0,0.0,0.0,0.0,0.0,0.0,0.0,0.0,0.0,0.0,0.0,0.0,0.0,0.0,0.0,0.0,0.0,0.0,0.0,0.0,0.0,0.0,0.0,0.0,0.0,0.0,0.0,0.0,0.0,0.0,0.0,0.0,0.0,0.0,0.0,0.0,0.0,0.0,0.0,0.0,1.9493,1.9508,1.9513,1.9609,1.9413,1.8882,0.0,0.0,0.0,0.0,0.0,0.0,0.0,0.0,0.0,0.0,0.0,0.0,0.0,0.0,0.0,0.0,0.0,0.0,0.0,0.0,0.0,0.0,0.0,0.0,0.0,0.0,0.0,0.0,0.0,0.0,0.0,0.0,0.0,0.0,0.0,0.0,0.0,0.0,0.0,0.0,0.0,0.0,0.0,0.0,0.0,0.0,0.0,0.0,0.0,0.0,0.0,0.0,0.0,0.0,0.0,0.0,0.0,0.0,0.0,0.0,0.0,0.0,0.0,0.0,0.0,0.0,0.0,0.0,0.0,0.0,0.0,0.0,0.0,0.0,0.0,0.0,0.0,0.0,0.0,0.0,0.0,0.0,0.0,0.0,0.0,0.0,0.0,0.0,0.0,0.0,0.0,0.0,0.0,0.0,0.0,0.0,0.0,0.0,0.0,0.0,0.0,0.0,0.0,0.0,0.0,0.0,0.0,0.0,1.9409,1.9277,1.9264,1.9305,1.9442,1.9527,0.0,0.0,0.0,0.0,0.0,0.0,0.0,0.0,0.0,0.0,0.0,0.0,0.0,0.0,0.0,0.0,0.0,0.0,0.0,0.0,0.0,0.0,0.0,0.0,0.0,0.0,0.0,0.0,0.0,0.0,0.0,0.0,0.0,0.0,0.0,0.0,0.0,0.0,0.0,0.0,0.0,0.0,0.0,0.0,0.0,0.0,0.0,0.0,0.0,0.0,0.0,0.0,0.0,0.0,0.0,0.0,0.0,0.0,0.0,0.0,0.0,0.0,0.0,0.0,0.0,0.0,0.0,0.0,0.0,0.0,0.0,0.0,0.0,0.0,0.0,0.0,0.0,0.0,0.0,0.0,0.0,0.0,0.0,0.0,0.0,0.0,0.0,0.0,0.0,0.0,0.0,0.0,0.0,0.0,0.0,0.0,0.0,0.0,0.0,0.0,0.0,0.0,0.0,0.0,0.0,0.0,0.0,0.0,0.0,1.9099,1.9086,1.9119,1.918,1.9292,1.9405,0.0,0.0,0.0,0.0,0.0,0.0,0.0,0.0,0.0,0.0,0.0,0.0,0.0,0.0,0.0,0.0,0.0,0.0,0.0,0.0,0.0,0.0,0.0,0.0,0.0,0.0,0.0,0.0,0.0,0.0,0.0,0.0,0.0,0.0,0.0,0.0,0.0,0.0,0.0,0.0,0.0,0.0,0.0,0.0,0.0,0.0,0.0,0.0,0.0,0.0,0.0,0.0,0.0,0.0,0.0,0.0,0.0,0.0,0.0,0.0,0.0,0.0,0.0,0.0,0.0,0.0,0.0,0.0,0.0,0.0,0.0,0.0,0.0,0.0,0.0,0.0,0.0,0.0,0.0,0.0,0.0,0.0,0.0,0.0,0.0,0.0,0.0,0.0,0.0,0.0,0.0,0.0,0.0,0.0,0.0,0.0,0.0,0.0,0.0,0.0,0.0,0.0,0.0,0.0,0.0,0.0,0.0,0.0,0.0,1.8771,0.0,1.8949,1.8982,1.8865,1.8851,0.0,0.0,0.0,0.0,0.0,0.0,0.0,0.0,0.0,0.0,0.0,0.0,0.0,0.0,0.0,0.0,0.0,0.0,0.0,0.0,0.0,0.0,0.0,0.0,0.0,0.0,0.0,0.0,0.0,0.0,0.0,0.0,0.0,0.0,0.0,0.0,0.0,0.0,0.0,0.0,0.0,0.0,0.0,0.0,0.0,0.0,0.0,0.0,0.0,0.0,0.0,0.0,0.0,0.0,0.0,0.0,0.0,0.0,0.0,0.0,0.0,0.0,0.0,0.0,0.0,0.0,0.0,0.0,0.0,0.0,0.0,0.0,0.0,0.0,0.0,0.0,0.0,0.0,0.0,0.0,0.0,0.0,0.0,0.0,0.0,0.0,0.0,0.0,0.0,0.0,0.0,0.0,0.0,0.0,0.0,0.0,0.0,0.0,0.0,0.0,0.0,0.0,0.0,0.0,0.0,0.0,0.0,0.0,1.8661,1.8505,1.8695,1.8734,1.8662,1.8125,1.7844,0.0,0.0,0.0,0.0,0.0,0.0,0.0,0.0,0.0,0.0,0.0,0.0,0.0,0.0,0.0,0.0,0.0,0.0,0.0,0.0,0.0,0.0,0.0,0.0,0.0,0.0,0.0,0.0,0.0,0.0,0.0,0.0,0.0,0.0,0.0,0.0,0.0,0.0,0.0,0.0,0.0,0.0,0.0,0.0,0.0,0.0,0.0,0.0,0.0,0.0,0.0,0.0,0.0,0.0,0.0,0.0,0.0,0.0,0.0,0.0,0.0,0.0,0.0,0.0,0.0,0.0,0.0,0.0,0.0,0.0,0.0,0.0,0.0,0.0,0.0,0.0,0.0,0.0,0.0,0.0,0.0,0.0,0.0,0.0,0.0,0.0,0.0,0.0,0.0,0.0,0.0,0.0,0.0,0.0,0.0,0.0,0.0,0.0,0.0,0.0,0.0,0.0,0.0,0.0,0.0,0.0,0.0,0.0,0.0,1.8222,1.8307,1.8128,1.7752,1.7684,1.7493,0.0,0.0,0.0,0.0,0.0,0.0,0.0,0.0,0.0,0.0,0.0,0.0,0.0,0.0,0.0,0.0,0.0,0.0,0.0,0.0,0.0,0.0,0.0,0.0,0.0,0.0,0.0,0.0,0.0,0.0,0.0,0.0,0.0,0.0,0.0,0.0,0.0,0.0,0.0,0.0,0.0,0.0,0.0,0.0,0.0,0.0,0.0,0.0,0.0,0.0,0.0,0.0,0.0,0.0,0.0,0.0,0.0,0.0,0.0,0.0,0.0,0.0,0.0,0.0,0.0,0.0,0.0,0.0,0.0,0.0,0.0,0.0,0.0,0.0,0.0,0.0,0.0,0.0,0.0,0.0,0.0,0.0,0.0,0.0,0.0,0.0,0.0,0.0,0.0,0.0,0.0,0.0,0.0,0.0,0.0,0.0,0.0,0.0,0.0,0.0,0.0,0.0,0.0,0.0,0.0,0.0,0.0,0.0,0.0,1.7516,1.7565,1.7535,1.7446,1.7029,1.6743,1.6726,0.0,0.0,0.0,0.0,0.0,0.0,0.0,0.0,0.0,0.0,0.0,0.0,0.0,0.0,0.0,0.0,0.0,0.0,0.0,0.0,0.0,0.0,0.0,0.0,0.0,0.0,0.0,0.0,0.0,0.0,0.0,0.0,0.0,0.0,0.0,0.0,0.0,0.0,0.0,0.0,0.0,0.0,0.0,0.0,0.0,0.0,0.0,0.0,0.0,0.0,0.0,0.0,0.0,0.0,0.0,0.0,0.0,0.0,0.0,0.0,0.0,0.0,0.0,0.0,0.0,0.0,0.0,0.0,0.0,0.0,0.0,0.0,0.0,0.0,0.0,0.0,0.0,0.0,0.0,0.0,0.0,0.0,0.0,0.0,0.0,0.0,0.0,0.0,0.0,0.0,0.0,0.0,0.0,0.0,0.0,0.0,0.0,0.0,0.0,0.0,0.0,0.0,0.0,0.0,0.0,0.0,0.0,0.0,1.6596,1.6652,1.6961,1.7589,1.6325,1.589,0.0,0.0,0.0,0.0,0.0,0.0,0.0,0.0,0.0,0.0,0.0,0.0,0.0,0.0,0.0,0.0,0.0,0.0,0.0,0.0,0.0,0.0,0.0,0.0,0.0,0.0,0.0,0.0,0.0,0.0,0.0,0.0,0.0,0.0,0.0,0.0,0.0,0.0,0.0,0.0,0.0,0.0,0.0,0.0,0.0,0.0,0.0,0.0,0.0,0.0,0.0,0.0,0.0,0.0,0.0,0.0,0.0,0.0,0.0,0.0,0.0,0.0,0.0,0.0,0.0,0.0,0.0,0.0,0.0,0.0,0.0,0.0,0.0,0.0,0.0,0.0,0.0,0.0,0.0,0.0,0.0,0.0,0.0,0.0,0.0,0.0,0.0,0.0,0.0,0.0,0.0,0.0,0.0,0.0,0.0,0.0,0.0,0.0,0.0,0.0,0.0,0.0,0.0,0.0,0.0,0.0,0.0,0.0,0.0,1.6679,1.6281,1.6412,1.7159,1.7167,1.7115,0.0,0.0,0.0,0.0,0.0,0.0,0.0,0.0,0.0,0.0,0.0,0.0,0.0,0.0,0.0,0.0,0.0,0.0,0.0,0.0,0.0,0.0,0.0,0.0,0.0,0.0,0.0,0.0,0.0,0.0,0.0,0.0,0.0,0.0,0.0,0.0,0.0,0.0,0.0,0.0,0.0,0.0,0.0,0.0,0.0,0.0,0.0,0.0,0.0,0.0,0.0,0.0,0.0,0.0,0.0,0.0,0.0,0.0,0.0,0.0,0.0,0.0,0.0,0.0,0.0,0.0,0.0,0.0,0.0,0.0,0.0,0.0,0.0,0.0,0.0,0.0,0.0,0.0,0.0,0.0,0.0,0.0,0.0,0.0,0.0,0.0,0.0,0.0,0.0,0.0,0.0,0.0,0.0,0.0,0.0,0.0,0.0,0.0,0.0,0.0,0.0,0.0,0.0,0.0,0.0,0.0,0.0,0.0,1.6173,1.6804,1.7051,1.7625,1.8556,1.7828,1.7499,0.0,0.0,0.0,0.0,0.0,0.0,0.0,0.0,0.0,0.0,0.0,0.0,0.0,0.0,0.0,0.0,0.0,0.0,0.0,0.0,0.0,0.0,0.0,0.0,0.0,0.0,0.0,0.0,0.0,0.0,0.0,0.0,0.0,0.0,0.0,0.0,0.0,0.0,0.0,0.0,0.0,0.0,0.0,0.0,0.0,0.0,0.0,0.0,0.0,0.0,0.0,0.0,0.0,0.0,0.0,0.0,0.0,0.0,0.0,0.0,0.0,0.0,0.0,0.0,0.0,0.0,0.0,0.0,0.0,0.0,0.0,0.0,0.0,0.0,0.0,0.0,0.0,0.0,0.0,0.0,0.0,0.0,0.0,0.0,0.0,0.0,0.0,0.0,0.0,0.0,0.0,0.0,0.0,0.0,0.0,0.0,0.0,0.0,0.0,0.0,0.0,0.0,0.0,0.0,0.0,0.0,0.0,0.0,1.6398,1.6969,1.8391,1.9679,2.0733,1.8614,1.7775,0.0,0.0,0.0,0.0,0.0,0.0,0.0,0.0,0.0,0.0,0.0,0.0,0.0,0.0,0.0,0.0,0.0,0.0,0.0,0.0,0.0,0.0,0.0,0.0,0.0,0.0,0.0,0.0,0.0,0.0,0.0,0.0,0.0,0.0,0.0,0.0,0.0,0.0,0.0,0.0,0.0,0.0,0.0,0.0,0.0,0.0,0.0,0.0,0.0,0.0,0.0,0.0,0.0,0.0,0.0,0.0,0.0,0.0,0.0,0.0,0.0,0.0,0.0,0.0,0.0,0.0,0.0,0.0,0.0,0.0,0.0,0.0,0.0,0.0,0.0,0.0,0.0,0.0,0.0,0.0,0.0,0.0,0.0,0.0,0.0,0.0,0.0,0.0,0.0,0.0,0.0,0.0,0.0,0.0,0.0,0.0,0.0,0.0,0.0,0.0,0.0,0.0,0.0,0.0,0.0,0.0,0.0,0.0,1.6872,1.8115,1.8929,2.0119,2.1752,2.113,2.0697,0.0,0.0,0.0,0.0,0.0,0.0,0.0,0.0,0.0,0.0,0.0,0.0,0.0,0.0,0.0,0.0,0.0,0.0,0.0,0.0,0.0,0.0,0.0,0.0,0.0,0.0,0.0,0.0,0.0,0.0,0.0,0.0,0.0,0.0,0.0,0.0,0.0,0.0,0.0,0.0,0.0,0.0,0.0,0.0,0.0,0.0,0.0,0.0,1.6108,0.0,0.0,0.0,0.0,0.0,0.0,0.0,0.0,0.0,0.0,0.0,0.0,0.0,0.0,0.0,0.0,0.0,0.0,0.0,0.0,0.0,0.0,0.0,0.0,0.0,0.0,0.0,0.0,0.0,0.0,0.0,0.0,0.0,0.0,0.0,0.0,0.0,0.0,0.0,0.0,0.0,0.0,0.0,0.0,0.0,0.0,0.0,0.0,0.0,0.0,0.0,0.0,0.0,0.0,0.0,0.0,0.0,0.0,0.0,1.7265,1.8508,1.9918,2.1359,2.274,2.3114,2.2601,0.0,0.0,0.0,0.0,0.0,0.0,0.0,0.0,0.0,0.0,0.0,0.0,0.0,0.0,0.0,0.0,0.0,0.0,0.0,0.0,0.0,0.0,0.0,0.0,0.0,0.0,0.0,0.0,0.0,0.0,0.0,0.0,0.0,0.0,0.0,0.0,0.0,0.0,0.0,0.0,0.0,0.0,0.0,0.0,0.0,0.0,0.0,0.0,0.0,0.0,0.0,0.0,0.0,0.0,0.0,0.0,0.0,0.0,0.0,0.0,0.0,0.0,0.0,0.0,0.0,0.0,0.0,0.0,0.0,0.0,0.0,0.0,0.0,0.0,0.0,0.0,0.0,0.0,0.0,0.0,0.0,0.0,0.0,0.0,0.0,0.0,0.0,0.0,0.0,0.0,0.0,0.0,0.0,0.0,0.0,0.0,0.0,0.0,0.0,0.0,0.0,0.0,0.0,0.0,0.0,0.0,0.0,1.6593,1.7539,1.8623,2.0844,2.2518,2.3472,2.4252,2.3659,2.1531,0.0,0.0,0.0,0.0,0.0,0.0,0.0,0.0,0.0,0.0,0.0,0.0,0.0,0.0,0.0,0.0,0.0,0.0,0.0,0.0,0.0,0.0,0.0,0.0,0.0,0.0,0.0,0.0,0.0,0.0,0.0,0.0,0.0,0.0,0.0,0.0,0.0,0.0,1.6371,1.7105,0.0,0.0,0.0,0.0,0.0,0.0,0.0,0.0,1.7043,0.0,0.0,0.0,0.0,0.0,0.0,0.0,0.0,0.0,0.0,0.0,0.0,0.0,0.0,0.0,0.0,0.0,0.0,0.0,0.0,0.0,0.0,0.0,0.0,0.0,0.0,0.0,0.0,0.0,0.0,0.0,0.0,0.0,0.0,0.0,0.0,0.0,0.0,0.0,0.0,0.0,0.0,0.0,0.0,0.0,0.0,0.0,0.0,0.0,0.0,0.0,0.0,0.0,0.0,0.0,0.0,1.6102,1.655,1.7327,1.8507,2.0643,2.2167,2.299,2.342,2.326,2.2513,0.0,0.0,0.0,0.0,0.0,0.0,0.0,0.0,0.0,0.0,0.0,0.0,0.0,0.0,0.0,0.0,0.0,0.0,0.0,0.0,0.0,0.0,0.0,0.0,0.0,0.0,0.0,0.0,0.0,0.0,0.0,0.0,0.0,0.0,0.0,0.0,0.0,0.0,0.0,1.6633,1.6848,0.0,0.0,0.0,0.0,0.0,0.0,0.0,0.0,1.7113,0.0,0.0,0.0,0.0,0.0,0.0,0.0,0.0,0.0,0.0,0.0,0.0,0.0,0.0,0.0,0.0,0.0,0.0,0.0,0.0,0.0,0.0,0.0,0.0,0.0,0.0,0.0,0.0,0.0,0.0,0.0,0.0,0.0,0.0,0.0,0.0,0.0,0.0,0.0,0.0,0.0,0.0,0.0,0.0,0.0,0.0,0.0,0.0,0.0,0.0,0.0,0.0,0.0,0.0,0.0,1.6167,1.675,1.7404,1.8173,2.0533,2.2016,2.2469,2.3172,2.3272,0.0,0.0,0.0,0.0,0.0,0.0,0.0,0.0,0.0,0.0,0.0,0.0,0.0,0.0,0.0,0.0,0.0,0.0,0.0,0.0,0.0,0.0,0.0,0.0,0.0,0.0,0.0,0.0,0.0,0.0,0.0,0.0,0.0,0.0,0.0,0.0,0.0,0.0,0.0,0.0,1.6714,1.6817,1.6437,0.0,0.0,0.0,0.0,0.0,0.0,1.7105,1.68,0.0,0.0,0.0,0.0,0.0,0.0,0.0,0.0,0.0,0.0,0.0,0.0,0.0,0.0,0.0,0.0,0.0,0.0,0.0,0.0,0.0,0.0,0.0,0.0,0.0,0.0,0.0,0.0,0.0,0.0,0.0,0.0,0.0,0.0,0.0,0.0,0.0,0.0,0.0,0.0,0.0,0.0,0.0,0.0,0.0,0.0,0.0,0.0,0.0,0.0,0.0,0.0,0.0,0.0,0.0,1.6136,1.6783,1.7254,1.7583,2.0195,2.1677,2.1812,2.2698,2.3054,0.0,0.0,0.0,0.0,0.0,0.0,0.0,0.0,0.0,0.0,0.0,0.0,0.0,0.0,0.0,0.0,0.0,0.0,0.0,0.0,0.0,0.0,0.0,0.0,0.0,0.0,0.0,0.0,0.0,0.0,0.0,0.0,0.0,0.0,0.0,0.0,0.0,0.0,0.0,0.0,0.0,1.6563,1.6052,1.5879,0.0,0.0,0.0,0.0,1.6791,1.6616,0.0,0.0,0.0,0.0,0.0,0.0,0.0,0.0,0.0,0.0,0.0,0.0,0.0,0.0,0.0,0.0,0.0,0.0,0.0,0.0,0.0,0.0,0.0,0.0,0.0,0.0,0.0,0.0,0.0,0.0,0.0,0.0,0.0,0.0,0.0,0.0,0.0,0.0,0.0,0.0,0.0,0.0,0.0,0.0,0.0,0.0,0.0,0.0,0.0,0.0,0.0,0.0,0.0,0.0,0.0,0.0,1.6087,1.6177,1.6316,1.6578,1.9211,2.0699,2.0771,2.118,2.187,0.0,0.0,0.0,0.0,0.0,0.0,0.0,0.0,0.0,0.0,0.0,0.0,0.0,0.0,0.0,0.0,0.0,0.0,0.0,0.0,0.0,0.0,0.0,0.0,0.0,0.0,0.0,0.0,0.0,0.0,0.0,0.0,0.0,0.0,0.0,0.0,0.0,0.0,0.0,0.0,0.0,1.5478,1.6088,1.5832,1.5544,0.0,0.0,1.5811,1.5675,1.5577,0.0,0.0,0.0,0.0,0.0,0.0,0.0,0.0,0.0,0.0,0.0,0.0,0.0,0.0,0.0,0.0,0.0,0.0,0.0,0.0,0.0,0.0,0.0,0.0,0.0,0.0,0.0,0.0,0.0,0.0,0.0,0.0,0.0,0.0,0.0,0.0,0.0,0.0,0.0,0.0,0.0,0.0,0.0,0.0,0.0,0.0,0.0,0.0,0.0,0.0,0.0,0.0,0.0,0.0,0.0,1.5833,1.5882,1.588,1.5794,1.5651,1.8682,2.0158,1.981,2.1015,2.199,0.0,0.0,0.0,0.0,0.0,0.0,0.0,0.0,0.0,0.0,0.0,0.0,0.0,0.0,0.0,0.0,0.0,0.0,0.0,0.0,0.0,0.0,0.0,0.0,0.0,0.0,0.0,0.0,0.0,0.0,0.0,0.0,0.0,0.0,0.0,0.0,0.0,0.0,0.0,0.0,0.0,0.0,1.4949,1.4815,0.0,0.0,0.0,1.4575,1.4603,0.0,0.0,0.0,0.0,0.0,0.0,0.0,0.0,0.0,0.0,0.0,0.0,0.0,0.0,0.0,0.0,0.0,0.0,0.0,0.0,0.0,0.0,0.0,0.0,0.0,0.0,0.0,0.0,0.0,0.0,0.0,0.0,0.0,0.0,0.0,0.0,0.0,0.0,0.0,0.0,0.0,0.0,0.0,0.0,0.0,0.0,0.0,0.0,0.0,0.0,0.0,0.0,0.0,0.0,0.0,0.0,0.0,1.561,1.5564,1.5529,1.5618,1.868,2.0172,1.9888,2.1533,0.0,0.0,0.0,0.0,0.0,0.0,0.0,0.0,0.0,0.0,0.0,0.0,0.0,0.0,0.0,0.0,0.0,0.0,0.0,0.0,0.0,0.0,0.0,0.0,0.0,0.0,0.0,1.2804,0.0,0.0,0.0,0.0,0.0,0.0,0.0,0.0,0.0,0.0,0.0,0.0,0.0,0.0,1.4044,1.3988,1.4019,1.4019,0.0,0.0,1.3586,1.3745,1.3191,1.2896,0.0,0.0,0.0,0.0,0.0,0.0,0.0,0.0,0.0,0.0,0.0,0.0,0.0,0.0,0.0,0.0,0.0,0.0,0.0,0.0,0.0,0.0,0.0,0.0,0.0,0.0,0.0,0.0,0.0,0.0,0.0,0.0,0.0,0.0,0.0,0.0,0.0,0.0,0.0,0.0,0.0,0.0,0.0,0.0,0.0,0.0,0.0,0.0,0.0,0.0,0.0,0.0,0.0,0.0,0.0,1.5335,1.5138,1.5645,1.6955,1.9376,2.0929,2.1526,2.2726,2.2964,0.0,0.0,0.0,0.0,0.0,0.0,0.0,0.0,0.0,0.0,0.0,0.0,0.0,0.0,0.0,0.0,0.0,0.0,0.0,0.0,0.0,0.0,0.0,0.0,0.0,0.0,0.0,0.0,0.0,0.0,0.0,0.0,0.0,0.0,0.0,0.0,0.0,0.0,0.0,0.0,0.0,1.3401,1.3945,1.396,1.3769,0.0,0.0,1.3245,1.3078,1.2689,1.2494,1.2647,0.0,0.0,0.0,0.0,0.0,0.0,0.0,0.0,0.0,0.0,0.0,0.0,0.0,0.0,0.0,0.0,0.0,0.0,0.0,0.0,0.0,0.0,0.0,0.0,0.0,0.0,0.0,0.0,0.0,0.0,0.0,0.0,0.0,0.0,0.0,0.0,0.0,0.0,0.0,0.0,0.0,0.0,0.0,0.0,0.0,0.0,0.0,0.0,0.0,0.0,0.0,0.0,0.0,1.4695,1.498,1.4087,1.4638,1.6683,1.841,1.9945,2.1308,2.2667,2.2671,0.0,0.0,0.0,0.0,0.0,0.0,0.0,0.0,0.0,0.0,0.0,0.0,0.0,0.0,0.0,0.0,0.0,0.0,0.0,0.0,0.0,0.0,0.0,0.0,0.0,0.0,0.0,0.0,1.324,1.3826,1.4346,0.0,0.0,0.0,0.0,0.0,0.0,0.0,0.0,0.0,0.0,1.4336,1.4843,1.4614,0.0,0.0,1.2973,1.2902,1.3155,1.2427,1.2016,1.2496,1.2436,0.0,0.0,0.0,0.0,0.0,0.0,0.0,0.0,0.0,0.0,0.0,0.0,0.0,0.0,0.0,0.0,0.0,0.0,0.0,0.0,0.0,0.0,0.0,0.0,0.0,0.0,0.0,0.0,0.0,0.0,0.0,0.0,0.0,0.0,0.0,0.0,0.0,0.0,0.0,0.0,0.0,0.0,0.0,0.0,0.0,0.0,0.0,0.0,0.0,0.0,0.0,0.0,1.4243,1.4569,1.3455,1.4311,1.7149,1.8248,1.9813,2.1912,2.3272,2.3063,0.0,0.0,0.0,0.0,0.0,0.0,0.0,0.0,0.0,0.0,0.0,0.0,0.0,0.0,0.0,0.0,0.0,0.0,0.0,0.0,0.0,0.0,0.0,0.0,0.0,0.0,0.0,0.0,1.3131,1.373,1.3918,0.0,0.0,0.0,0.0,0.0,0.0,0.0,0.0,0.0,0.0,1.4581,1.5505,1.5196,1.459,1.3881,1.3397,1.3222,1.3535,1.2698,1.2141,1.2465,0.0,0.0,0.0,0.0,0.0,0.0,0.0,0.0,0.0,0.0,0.0,0.0,0.0,0.0,0.0,0.0,0.0,0.0,0.0,0.0,0.0,0.0,0.0,0.0,0.0,0.0,0.0,0.0,0.0,0.0,1.1463,0.0,0.0,0.0,0.0,0.0,0.0,0.0,0.0,0.0,0.0,0.0,0.0,0.0,0.0,0.0,0.0,0.0,0.0,0.0,0.0,0.0,0.0,1.4175,1.4098,1.3411,1.4921,1.8691,1.9387,2.102,2.3857,2.4871,2.4426,2.2499,0.0,0.0,0.0,0.0,0.0,0.0,0.0,0.0,0.0,0.0,0.0,0.0,0.0,0.0,0.0,0.0,0.0,0.0,0.0,0.0,0.0,0.0,0.0,0.0,0.0,0.0,1.2045,1.3168,1.3984,0.0,0.0,0.0,0.0,0.0,0.0,0.0,0.0,0.0,0.0,1.3591,1.3709,1.5728,1.5561,1.5184,1.5049,1.4752,1.4425,1.4194,1.366,1.3054,0.0,0.0,0.0,0.0,0.0,0.0,0.0,0.0,0.0,0.0,0.0,0.0,0.0,0.0,0.0,0.0,0.0,0.0,0.0,0.0,0.0,0.0,0.0,0.0,0.0,0.0,0.0,0.6986,0.7901,0.0,0.0,0.0,0.0,0.0,0.0,0.0,0.0,0.0,0.0,0.0,1.095,1.111,0.0,0.0,0.0,0.0,0.0,0.0,0.0,0.0,0.0,0.0,0.0,0.0,1.3751,1.4036,1.3026,1.455,1.8657,1.8532,2.0195,2.3971,2.4408,2.3926,2.2677,0.0,0.0,0.0,0.0,0.0,0.0,0.0,0.0,0.0,0.0,0.0,0.0,0.0,0.0,0.0,0.0,0.0,0.0,0.0,0.0,0.0,0.0,0.0,0.0,0.0,1.3137,0.0,0.0,0.0,0.0,0.0,0.0,0.0,0.0,0.0,0.0,0.0,1.2362,1.4629,1.4794,1.5404,1.7374,1.7022,1.6285,0.0,0.0,0.0,0.0,0.0,0.0,0.0,0.0,0.0,0.0,0.0,0.0,0.0,0.0,1.4197,1.6091,1.6114,1.6068,1.6811,0.0,0.0,0.0,0.0,0.0,0.0,0.0,0.0,0.0,0.0,0.0,0.0,0.0,0.0,0.6117,0.0,0.7955,0.0,0.0,0.0,0.0,0.0,0.0,0.0,0.0,0.9959,1.0008,1.0191,1.0498,1.1014,0.0,1.2021,1.2582,0.0,0.0,0.0,0.0,0.0,0.0,0.0,0.0,1.3304,1.3696,1.2629,1.4136,1.8265,1.7918,1.9681,2.3859,2.4054,2.3699,2.2968,2.1566,2.0752,0.0,0.0,0.0,0.0,0.0,0.0,0.0,0.0,0.0,0.0,0.0,0.0,0.0,0.0,0.0,0.0,0.0,0.0,0.0,0.0,0.0,0.0,0.0,1.3043,0.0,0.0,0.0,0.0,0.0,0.0,0.0,0.0,0.0,1.1313,1.1115,1.1888,1.4604,1.5251,1.6222,1.8245,0.0,0.0,0.0,0.0,0.0,0.0,0.0,1.4209,1.3839,1.3401,1.2987,1.2562,1.2317,1.2256,1.2523,0.0,0.0,1.4773,1.4928,1.4831,1.5235,1.5239,1.5156,1.5007,1.5258,1.5524,0.0,0.0,0.0,0.0,0.0,0.0,0.0,0.0,0.547,0.5866,0.0,0.76,0.0,0.0,0.0,0.0,0.0,0.8537,0.0,0.0,0.856,0.8791,1.0142,1.0865,1.1262,1.1399,1.2246,1.2543,1.2282,1.2508,0.0,0.0,0.0,0.0,0.0,0.0,1.2829,1.3052,1.2224,1.3756,1.7684,1.762,1.9534,2.3708,2.3915,2.3728,2.3394,2.2819,2.2339,2.1966,2.0643,0.0,0.0,0.0,0.0,0.0,0.0,0.0,0.0,0.0,0.0,0.0,0.0,0.0,0.0,0.0,0.0,0.0,0.0,0.0,0.0,1.189,0.0,0.0,0.0,0.0,0.0,0.0,0.0,0.0,0.0,0.0,1.0893,1.0613,1.1362,1.4185,0.0,0.0,0.0,0.0,1.8347,1.7935,1.7488,1.6964,1.6343,1.5732,1.4856,1.354,0.0,0.0,1.1746,1.1775,1.1994,1.2269,1.167,1.1693,1.3336,1.3598,1.3548,1.3521,1.369,1.3701,1.3397,1.3296,1.3472,0.6822,0.0,0.0,0.0,0.0,0.5598,0.5291,0.4877,0.5277,0.5778,0.633,0.7146,0.0,0.0,0.0,0.0,0.0,0.0,0.8467,0.8154,0.8424,0.8754,0.9066,0.9535,1.0046,1.0629,1.1052,1.1362,1.158,1.1233,1.141,1.2064,0.0,0.0,0.0,0.0,1.2518,1.255,1.2033,1.2989,1.5606,1.6808,1.9431,2.3566,2.3678,2.3611,2.3476,2.3216,2.2705,2.1966,2.1488,0.0,0.0,0.0,0.0,0.0,0.0,0.0,0.0,0.0,0.0,0.0,0.0,0.0,0.0,0.0,0.0,0.0,0.0,0.0,1.2176,1.2746,1.3155,0.0,0.0,0.0,0.0,0.0,0.0,0.0,0.0,0.0,1.0425,1.078,1.1929,0.0,0.0,1.6837,1.8943,1.8835,1.8333,1.7894,1.7394,0.0,1.6065,1.5732,1.5242,1.4268,1.3017,1.2125,1.1904,1.1167,1.0669,1.0931,1.0626,1.0501,1.0948,1.1355,1.163,1.1769,1.2073,1.2269,1.2076,1.2445,1.2939,0.713,0.7117,0.68,0.6354,0.5875,0.573,0.5266,0.4704,0.5137,0.562,0.6166,0.7178,0.7709,0.782,0.837,0.0,0.0,0.0,0.8498,0.8043,0.877,0.9088,0.9077,0.943,0.9882,1.0411,1.0735,1.0946,1.1114,1.1051,1.1065,1.1142,0.0,0.0,1.1853,1.1714,1.1773,1.2024,1.2477,1.3859,1.62,1.8986,2.1471,2.3566,2.3678,2.3616,2.3517,2.3407,2.3053,2.2356,2.1969,2.1298,0.0,0.0,0.0,0.0,0.0,0.0,0.0,0.0,0.0,0.0,0.0,1.5043,1.4026,0.0,0.0,0.0,1.1301,1.1768,1.2636,1.302,0.0,0.0,0.0,0.0,0.0,0.0,0.0,0.9592,0.9207,0.9429,1.0609,1.1817,1.3226,1.5063,1.6873,1.8391,1.9349,0.0,1.8731,1.8066,1.749,1.6951,1.6262,1.5832,1.5142,1.4003,1.289,1.2021,1.1823,1.1124,1.0669,1.0736,1.072,1.0618,1.0568,1.0838,1.1015,1.0947,1.1158,1.136,1.1266,1.1423,1.1603,0.7409,0.769,0.6739,0.6117,0.5737,0.5363,0.4906,0.448,0.5151,0.5522,0.5808,0.75,0.7952,0.7456,0.7856,0.0,0.7724,0.8357,0.869,0.8846,0.9365,0.9639,0.9744,1.0157,1.0438,1.0604,1.1065,1.1124,1.0868,1.1545,1.1275,1.0084,0.9808,1.0034,1.0646,1.0673,1.0839,1.1349,1.3254,1.5743,1.879,2.2699,2.4481,2.3891,2.3828,2.3707,2.3522,2.3499,2.336,2.301,2.2233,2.166,2.137,0.0,0.0,0.0,0.0,0.0,0.0,0.0,0.0,0.0,0.0,0.0,0.0,0.0,0.0,0.0,1.1442,0.0,1.289,1.2978,0.0,0.0,0.0,1.0442,0.9773,0.8378,0.7644,0.81,0.0,0.0,1.1402,1.3517,1.5145,1.5834,1.8468,2.0136,1.9591,1.9503,1.9242,1.8277,1.7733,1.7256,1.6667,1.5844,1.4846,1.3511,1.2696,1.2267,1.1981,1.1823,1.1715,1.1616,1.1657,1.1715,1.1566,1.1683,1.1543,1.1065,1.1082,1.1141,1.1166,1.062,1.0452,0.6985,0.7434,0.6888,0.664,0.655,0.6127,0.5673,0.5258,0.5578,0.5958,0.6432,0.7482,0.8093,0.8392,0.8477,0.8477,0.837,0.8625,0.8848,0.9059,0.942,0.9672,0.9783,0.998,1.0291,1.0661,1.0891,1.1027,1.1003,1.0968,1.0774,1.0422,1.0015,0.9965,1.033,1.068,1.0788,1.0694,1.2808,1.6147,2.0566,2.1989,2.322,2.4446,2.4035,2.3774,2.3728,2.37,2.3522,2.3223,2.2845,2.2246,2.1421,2.0491,0.0,0.0,0.0,0.0,0.0,0.0,0.0,0.0,0.0,1.3995,1.2173,0.0,1.117,0.0,1.1306,1.2404,1.3413,1.3399,0.0,0.0,1.0316,0.9292,0.8063,0.7298,0.7463,0.8847,0.9451,1.0869,1.3765,1.5923,1.7593,1.8641,1.8843,1.9038,1.9345,1.9179,1.8772,1.8168,1.7814,1.731,1.6572,1.5691,1.4926,1.4233,1.3742,1.3406,1.3297,1.31,1.2976,1.2957,1.3044,1.3034,1.2803,1.2725,1.2812,1.3034,1.2599,1.2021,1.1913,1.1855,1.1895,0.6959,0.7182,0.6936,0.7032,0.7311,0.667,0.6314,0.6215,0.6215,0.6563,0.7146,0.7897,0.8515,0.8967,0.9072,0.9127,0.9175,0.9449,0.9639,0.9781,0.9877,1.0007,1.0084,1.0084,1.0298,1.0646,1.0745,1.0786,1.0781,1.0466,1.0198,0.9961,0.9555,0.9503,0.9755,1.0348,1.0631,1.0648,1.4588,1.8914,2.3427,2.4126,2.4554,2.4852,2.4552,2.4034,2.3301,2.3548,2.3414,2.2858,2.2877,2.2643,2.2005,2.0858,2.0006,0.0,0.0,0.0,0.0,0.0,0.0,0.0,0.0,0.0,0.0,0.0,1.0766,1.0271,1.1292,1.2414,1.3413,1.3594,1.2995,1.1527,1.0394,0.9328,0.8282,0.7609,0.7825,0.9395,1.0996,1.2845,1.5159,1.7797,1.9761,2.0432,2.0384,2.0103,1.963,1.925,1.8831,1.8296,1.8193,1.7925,1.718,1.6329,1.5625,1.5223,1.4708,1.4261,1.4139,1.4079,1.405,1.4014,1.4097,1.419,1.3967,1.392,1.405,1.4376,1.4133,1.3643,1.3358,1.3273,1.3283,0.705,0.6985,0.6914,0.7251,0.7773,0.7003,0.6832,0.7104,0.6891,0.7168,0.7798,0.8526,0.9004,0.9341,0.9603,0.9753,0.9893,1.0401,1.0641,1.0663,1.0508,1.0456,1.0494,1.0325,1.0371,1.0641,1.0707,1.0649,1.0449,1.0136,0.9762,0.9302,0.904,0.9047,0.9368,0.9925,1.0702,1.1774,1.6952,2.1643,2.5838,2.6265,2.5857,2.4725,2.4596,2.3947,2.2723,2.3334,2.3286,2.2345,2.268,2.2876,2.2677,2.1241,2.0372,0.0,1.9843,0.0,0.0,0.0,0.0,0.0,0.0,0.0,0.0,0.9929,1.0327,1.0637,1.1521,1.238,1.3314,1.3737,1.3512,1.2315,1.0923,0.9841,0.9373,0.8622,0.8683,1.0065,1.2699,1.4879,1.6414,1.9221,2.1106,2.1762,2.2169,2.1847,2.0491,1.9908,1.9558,1.8874,1.8796,1.8645,1.816,1.7355,1.6699,1.6381,1.582,1.5211,1.5073,1.5177,1.5234,1.5188,1.5395,1.5509,1.5314,1.5349,1.5475,1.5794,1.5806,1.5509,1.4926,1.4549,1.4514,0.6924,0.6914,0.6914,0.7118,0.7454,0.7189,0.7146,0.719,0.7286,0.7653,0.8123,0.8757,0.915,0.9433,0.9923,1.0195,1.0233,1.0591,1.0862,1.0994,1.074,1.0723,1.0894,1.0552,1.0596,1.0845,1.0876,1.0776,1.0612,1.032,1.0087,1.0012,0.951,0.9562,1.0028,0.0,0.0,0.0,1.6681,1.8696,2.3337,2.1705,2.1223,2.2274,2.1823,0.0,2.274,2.3519,2.3472,2.2518,2.2934,0.0,0.0,0.0,0.0,0.0,0.0,0.0,0.0,0.0,0.0,0.0,1.2105,1.0077,0.8533,0.8926,0.9832,1.1256,1.2163,1.3148,1.4167,1.435,1.3711,1.2016,1.0834,0.9995,0.9584,0.9448,0.9994,1.1739,1.3011,1.5171,1.8617,1.9384,2.0624,2.3488,2.3383,2.2603,2.1963,2.1531,2.1078,2.0404,1.9795,1.9203,1.8714,1.8431,1.8033,1.7785,1.7511,1.7289,1.729,1.7192,1.719,1.7216,1.7442,1.748,1.7414,1.7501,1.7474,1.784,1.7768,1.7334,1.6037,1.5623,1.5555,0.6916,0.0,0.6878,0.7118,0.0,0.7335,0.7376,0.747,0.7551,0.7882,0.8375,0.8832,0.9228,0.962,0.9886,1.0213,1.0615,1.0775,1.1003,1.1283,1.0984,1.0985,1.1196,1.0837,1.0862,1.1083,1.0895,1.0689,1.0454,1.0035,0.9673,0.9399,0.9138,0.9166,0.9514,1.1177,1.443,1.9202,1.9888,2.2157,2.5844,2.4717,2.4232,2.4714,2.4022,0.0,0.0,0.0,0.0,0.0,0.0,0.0,0.0,0.0,0.0,2.1739,2.1534,2.0841,1.9488,1.6972,1.4604,1.2594,0.9922,0.8307,0.8104,0.8521,0.9432,1.0943,1.2016,1.3028,1.3996,1.4368,1.4041,1.2837,1.2107,1.162,1.148,1.1523,1.2062,1.3327,1.5533,1.7891,1.9785,2.1636,2.3007,2.4729,2.4553,2.3891,2.346,2.2585,2.1774,2.1401,2.0623,2.0143,2.0187,1.952,1.9033,1.8836,1.8447,1.8216,1.8219,1.8248,1.8253,1.8295,1.8456,1.8621,1.8456,1.8528,1.8714,1.8865,1.8865,1.8708,1.7893,1.7364,1.6885,0.6906,0.6878,0.6914,0.7118,0.744,0.7405,0.7573,0.7842,0.0,0.0,0.0,0.8879,0.9301,0.9765,0.9824,1.0168,1.0845,1.0981,1.1194,1.1474,1.12,1.1196,1.142,1.1151,1.1074,1.1267,1.0871,1.0514,1.0146,0.9629,0.9152,0.8652,0.8538,0.887,0.97,1.3495,1.7119,2.0369,2.3076,2.5761,2.8395,2.7883,2.7328,2.6859,2.6188,2.5244,2.4044,2.4079,2.369,2.2809,2.321,2.3458,2.3412,2.257,2.2118,2.2236,2.2416,2.1213,1.8301,1.6003,1.3337,1.0174,0.8125,0.7306,0.8055,0.8415,0.9187,1.0521,1.1678,1.2772,1.3793,1.4305,1.4405,1.3923,1.3631,1.3442,1.3494,1.3571,1.3847,1.5083,1.7777,2.0245,2.0751,2.3366,2.5682,2.5501,2.5351,2.5162,2.4585,2.3299,2.2374,2.2276,2.1625,2.1244,2.1393,2.0758,1.9987,1.9769,1.927,1.887,1.8848,1.9001,1.9073,1.9087,1.9316,1.9495,1.9272,1.9429,1.9543,1.9512,1.9557,1.9561,1.9601,1.9003,1.8278,0.6911,0.6921,0.709,0.7209,0.7251,0.7398,0.7808,0.8274,0.8291,0.8615,0.9086,0.903,0.9286,0.9724,1.0062,1.0364,1.0659,1.1189,1.143,1.1434,1.1371,1.1438,1.1653,1.139,1.1225,1.1124,1.0828,1.0462,0.9991,0.9629,0.9152,0.8665,0.8428,0.9851,1.3065,1.6961,2.0624,2.383,2.234,2.2817,2.5405,2.3191,2.2242,2.2797,2.2882,2.2889,2.3179,2.3823,2.3768,2.2941,2.3361,2.3624,2.3571,2.3259,2.313,2.32,2.333,2.2213,1.9495,1.6561,1.2579,0.7628,0.7142,0.7402,0.7777,0.8408,0.9395,1.0951,1.2019,1.3076,1.3981,1.4606,1.4793,1.4538,1.4249,1.4181,1.4401,1.435,1.4962,1.6899,1.7663,1.9595,2.2313,2.3362,2.4391,2.5447,2.5459,2.5253,2.4658,2.3967,2.3456,2.3286,2.279,2.2098,2.1597,2.1387,2.0982,2.0609,2.0508,2.0399,2.0321,2.0388,2.0448,2.0408,2.0743,2.0937,2.0662,2.0816,2.057,2.0239,2.0114,2.0089,1.9838,1.9488,1.9182,0.6745,0.6793,0.6878,0.6963,0.7041,0.7356,0.7939,0.8641,0.8672,0.8877,0.9233,0.9308,0.9596,1.0057,1.0285,1.0722,1.1251,1.147,1.1658,1.1739,1.1619,1.159,1.1592,1.1469,1.1276,1.0972,1.0769,1.0411,0.9799,0.9638,0.9241,0.8725,0.8622,0.9418,1.1014,1.4711,1.8327,2.1685,2.4316,2.6279,2.7441,2.6203,2.5498,2.5423,2.502,2.467,2.4519,2.4376,2.4118,2.3732,2.3855,2.3876,2.381,2.3703,2.362,2.362,2.3798,2.2618,1.9672,1.6701,1.3337,0.9487,0.9539,0.9361,0.8475,0.8784,0.9493,1.0667,1.1849,1.286,1.3588,1.4309,1.4693,1.4616,1.4446,1.4437,1.4674,1.5502,1.6355,1.7598,1.9497,2.1399,2.3037,2.4118,2.4716,2.5322,2.4762,2.4159,2.3806,2.3286,2.313,2.3586,2.3044,2.2348,2.1816,2.1203,2.0917,2.0854,2.0918,2.1076,2.1342,2.1536,2.1514,2.1486,2.1545,2.1366,2.1049,2.0887,2.071,2.0599,2.0514,2.0485,2.0395,2.0215,1.9955,0.666,0.6751,0.6864,0.7019,0.7177,0.7504,0.8136,0.8966,0.9064,0.9265,0.9565,0.9641,0.9923,1.0349,1.0532,1.1021,1.1667,1.1751,1.187,1.195,1.1778,1.1678,1.1519,1.1477,1.1226,1.0871,1.0667,1.0198,0.9598,0.9564,0.926,0.8858,0.8902,0.923,0.9834,1.3474,1.7001,2.0588,2.6568,2.9756,2.9736,2.9608,2.9083,2.8072,2.7362,2.6559,2.5587,2.4833,2.4429,2.4411,2.4228,2.4075,2.4018,2.3976,2.3917,2.3899,2.4097,2.2879,1.9776,1.6881,1.4186,1.1792,1.1858,1.1196,0.93,0.9218,0.9708,1.0586,1.1693,1.2612,1.3266,1.3916,1.4405,1.4497,1.4515,1.4515,1.4674,1.5845,1.7241,1.8159,2.0866,2.2712,2.3687,2.4938,2.541,2.4608,2.3684,2.306,2.288,2.259,2.2793,2.3147,2.2768,2.2059,2.1887,2.1125,2.0684,2.0951,2.0904,2.103,2.1506,2.1756,2.1883,2.179,2.1597,2.1341,2.1095,2.0784,2.0482,2.0321,2.0261,2.0469,2.0462,2.0592,2.059,0.6787,0.6983,0.7264,0.7657,0.796,0.8011,0.8483,0.9252,0.9565,1.0,1.0314,0.9945,1.0026,1.0513,1.0871,1.1226,1.1589,1.2021,1.2089,1.1769,1.1719,1.1669,1.1628,1.1326,1.1065,1.082,1.0308,0.9836,0.9413,0.9214,0.8954,0.8737,0.8987,1.0512,1.3443,1.6934,2.0544,2.4137,2.7933,2.9842,2.9771,2.9701,2.8913,2.7337,2.7171,2.6366,2.4936,2.465,2.4547,2.4478,2.4284,2.4173,2.4097,2.4037,2.4018,2.4078,2.4266,2.3133,2.0293,1.7396,1.4749,1.2404,1.2366,1.156,0.93,0.9427,1.0196,1.1067,1.1662,1.2445,1.3396,1.3787,1.4084,1.4337,1.446,1.4515,1.4505,1.4664,1.6115,1.9881,2.0546,2.166,2.4222,2.4911,2.466,2.4,2.3266,2.286,2.2927,2.2611,2.2331,2.2408,2.1965,2.1422,2.1034,2.0929,2.0738,2.0636,2.07,2.0835,2.0956,2.1034,2.1026,2.1556,2.1322,2.1196,2.1057,2.0809,2.022,1.9836,1.975,1.9753,1.9775,2.0273,2.082,0.6711,0.6906,0.7058,0.7471,0.7992,0.8289,0.8803,0.9381,0.9721,1.0137,1.0568,1.0401,1.0508,1.088,1.1282,1.1576,1.1868,1.2076,1.2135,1.1927,1.1877,1.1687,1.1444,1.1285,1.0913,1.0403,1.0043,0.9666,0.9372,0.9364,0.9182,0.8836,0.9048,0.9637,1.046,1.1908,1.5451,2.1031,2.2545,2.5371,2.9441,2.9857,2.9013,2.7519,2.733,2.6541,2.502,2.4738,2.4695,2.4629,2.4495,2.4409,2.4338,2.4321,2.4284,2.4284,2.4393,2.3189,2.0351,1.9026,1.6574,1.2418,1.2401,1.161,0.9395,0.9532,1.0179,1.0878,1.1538,1.2111,1.2593,1.3166,1.3606,1.3805,1.4008,1.4057,1.38,1.5289,1.7277,1.9276,2.071,2.2197,2.3935,2.4082,2.3588,2.3129,2.254,2.2149,2.2084,2.1752,2.1531,2.1408,2.1095,2.0898,2.0707,2.0445,2.0406,2.0487,2.0602,2.0676,2.1119,2.1148,2.1322,2.1503,2.1144,2.0887,2.0807,2.0385,1.982,1.956,1.9617,1.9741,1.9818,2.0223,2.074,0.6749,0.6874,0.7032,0.755,0.8263,0.8707,0.9134,0.9539,0.9878,1.0324,1.071,1.0769,1.0972,1.1175,1.1519,1.1769,1.1927,1.2026,1.2076,1.2017,1.1918,1.1696,1.1403,1.1184,1.082,1.0257,0.9932,0.9614,0.9267,0.9348,0.9233,0.8956,0.8974,0.8684,0.8195,0.8751,1.2455,1.8443,1.9594,2.3385,2.919,3.0019,2.9285,2.7941,2.7595,2.6802,2.5375,2.4988,2.4802,2.4734,2.4676,2.4596,2.4561,2.4526,2.4512,2.4383,2.37,2.2427,2.0273,1.9476,1.7049,1.2824,1.2378,1.1661,0.9818,0.9584,0.9999,1.0486,1.1154,1.1686,1.2032,1.2582,1.3059,1.3248,1.3532,1.3589,1.3476,1.5406,1.7053,1.8669,2.0262,2.2175,2.3352,2.3121,2.2564,2.2435,2.1886,2.1402,2.1342,2.1344,2.126,2.094,2.0868,2.0829,2.0706,2.0313,2.0135,2.0279,2.0467,2.0633,2.1265,2.1158,2.1291,2.1181,2.073,2.0587,2.0753,2.028,1.9666,1.9632,1.9733,1.9904,1.9866,2.0296,2.0782,0.717,0.7072,0.7463,0.821,0.904,0.9271,0.9516,0.974,1.0237,1.0549,1.0718,1.0972,1.1124,1.1267,1.1427,1.1528,1.1578,1.1927,1.2017,1.1891,1.176,1.1687,1.1604,1.104,1.0726,1.0514,0.9991,0.9629,0.9382,0.9173,0.9073,0.9057,0.8587,0.851,0.8941,1.1063,1.4739,1.8899,2.1988,2.58,2.9582,3.0185,2.9704,2.8784,2.7928,2.7091,2.6217,2.5356,2.4884,2.4903,2.4768,2.4692,2.4692,2.4642,2.4626,2.4448,2.2114,2.0488,1.9882,1.7809,1.5027,1.254,1.2176,1.1774,0.9577,0.9575,0.9896,1.0066,1.0653,1.1258,1.1861,1.2193,1.2529,1.296,1.3177,1.3241,1.3259,1.3869,1.5553,1.8017,1.9507,2.0949,2.2836,2.2308,2.1996,2.19,2.1634,2.1433,2.1562,2.1923,2.1778,2.1407,2.1388,2.1537,2.0674,2.0331,2.0231,2.0319,2.0355,2.0228,2.0207,2.0338,2.0686,2.0885,2.061,2.0559,2.0725,2.0497,1.9943,1.9829,2.0016,2.0107,2.0139,2.0976,2.1352,0.7477,0.7609,0.8153,0.8771,0.9285,0.9664,0.9918,1.0237,1.0407,1.0616,1.082,1.082,1.0972,1.1175,1.1217,1.1427,1.1719,1.1828,1.1868,1.1859,1.1769,1.1586,1.1403,1.1032,1.0659,1.0352,0.9888,0.9472,0.9134,0.903,0.8928,0.8792,0.8308,0.8058,0.8573,1.1216,1.4801,1.868,2.2319,2.6211,2.9921,3.0279,3.0126,2.978,2.8422,2.7281,2.6384,2.5469,2.4974,2.4974,2.4884,2.4842,2.4884,2.4775,2.4734,2.4655,2.374,2.1483,1.8044,1.6583,1.3963,0.9787,0.9627,0.9883,0.9482,0.9714,1.005,1.0211,1.0531,1.091,1.1112,1.1575,1.1995,1.2164,1.2492,1.2599,1.265,1.3312,1.4925,1.7447,1.9612,2.157,2.1967,2.2078,2.184,2.1738,2.1678,2.1664,2.1622,2.1742,2.1713,2.1424,2.1359,2.1244,2.0789,2.0592,2.0525,2.046,2.0457,2.0522,2.0543,2.0509,2.0802,2.0898,2.067,2.0603,2.0775,2.0628,2.0094,2.0164,2.0353,2.0471,2.0575,2.1117,2.1245,0.821,0.8567,0.8905,0.9409,0.9945,1.003,1.0275,1.0561,1.0569,1.0667,1.0863,1.0922,1.1124,1.1326,1.1377,1.1578,1.1977,1.1778,1.1669,1.1778,1.1628,1.1436,1.1141,1.093,1.0667,1.0352,0.9932,0.9517,0.918,0.8978,0.8776,0.8675,0.8067,0.7685,0.8147,1.1091,1.4705,1.8561,2.2388,2.6323,2.9864,3.0367,3.0359,3.0194,2.9006,2.7816,2.6883,2.5695,2.5056,2.5043,2.4981,2.4987,2.5013,2.494,2.4856,2.4814,2.3853,2.1263,1.6687,1.5149,1.2589,0.8197,0.7996,0.8517,0.9126,0.9665,1.005,1.0228,1.0446,1.0608,1.0677,1.1099,1.1486,1.1571,1.1935,1.2082,1.1917,1.276,1.4529,1.7158,2.0153,2.1816,2.202,2.1986,2.1899,2.1738,2.1781,2.1797,2.1724,2.1894,2.1786,2.1566,2.1649,2.1504,2.1151,2.0958,2.0763,2.0665,2.0646,2.0761,2.081,2.0777,2.081,2.0876,2.0843,2.0761,2.0679,2.0579,2.0567,2.0556,2.0636,2.0717,2.0863,2.0989,2.1197,0.9335,0.976,0.9707,1.0217,1.0933,1.06,1.0559,1.087,1.0878,1.0995,1.1234,1.1395,1.171,1.1849,1.187,1.204,1.2195,1.1802,1.1598,1.1528,1.1427,1.1226,1.0972,1.0828,1.0751,1.0672,1.0244,0.9925,0.962,0.903,0.8692,0.8473,0.7821,0.7506,0.7702,1.1385,1.5057,1.8806,2.248,2.6329,2.9909,3.0037,2.9951,3.0326,2.9583,2.8655,2.7761,2.6154,2.5278,2.5187,2.5115,2.5084,2.5091,2.5057,2.4993,2.461,2.2364,1.9374,1.6265,1.3755,1.1469,0.8255,0.8103,0.8453,0.8878,0.9486,0.9907,1.006,1.0334,1.0562,1.0701,1.089,1.109,1.1276,1.163,1.1772,1.1826,1.2148,1.3741,1.7225,2.026,2.2002,2.2152,2.2094,2.2036,2.2074,2.2091,2.2091,2.217,2.2482,2.2521,2.2082,2.1929,2.1808,2.1581,2.1324,2.107,2.0879,2.0893,2.0893,2.0958,2.099,2.1055,2.1135,2.1119,2.1071,2.1071,2.0975,2.0783,2.0766,2.0879,2.1022,2.1146,2.1283,2.1491,1.0213,1.0236,1.0867,1.1349,1.1696,1.165,1.1806,1.2108,1.2098,1.2163,1.227,1.2431,1.2538,1.2529,1.2476,1.2467,1.2574,1.2298,1.1983,1.1666,1.1436,1.1302,1.1141,1.0938,1.084,1.0926,1.1004,1.0709,1.0095,0.9411,0.8984,0.8545,0.7755,0.7325,0.7825,1.3521,1.77,1.8822,2.1987,2.5921,2.9725,2.736,2.7245,3.0098,2.9707,2.8848,2.7952,2.6795,2.5908,2.533,2.519,2.5168,2.5179,2.5145,2.5118,2.4986,2.4264,2.1206,1.673,1.5026,1.2339,0.8812,0.7777,0.8255,0.8793,0.9233,0.9716,1.0158,1.0441,1.0591,1.0662,1.1013,1.1177,1.1184,1.1377,1.1545,1.176,1.285,1.5274,1.8183,1.9854,2.1096,2.2392,2.2535,2.2343,2.2794,2.2874,2.2929,2.289,2.2945,2.2698,2.2102,2.2132,2.2269,2.2155,2.2026,2.1851,2.1469,2.131,2.1151,2.1183,2.1214,2.1294,2.1371,2.1386,2.1417,2.1417,2.1352,2.1189,2.1203,2.1397,2.1456,2.1457,2.1582,2.1777,1.1309,1.1382,1.1977,1.2456,1.27,1.2487,1.2595,1.2961,1.2893,1.2949,1.3059,1.3168,1.3277,1.3332,1.3159,1.3159,1.3277,1.2995,1.2681,1.2373,1.1896,1.1687,1.1582,1.1486,1.1358,1.1364,1.1607,1.132,1.069,1.0009,0.9495,0.8997,0.8551,0.8088,0.8575,1.5336,1.9373,1.9628,2.3714,2.7597,2.9414,2.7734,2.7578,3.0115,3.0091,2.9389,2.8554,2.7931,2.6891,2.5649,2.5283,2.5531,2.602,2.5623,2.531,2.5271,2.3809,2.0935,1.657,1.4577,1.2319,0.8403,0.7568,0.7949,0.8616,0.9042,0.9569,1.0031,1.04,1.0676,1.0806,1.1129,1.1328,1.1439,1.142,1.1439,1.1873,1.3506,1.5313,1.7403,1.8564,2.0157,2.1686,2.2327,2.2553,2.3423,2.3875,2.3913,2.3726,2.3427,2.3038,2.2748,2.2785,2.2842,2.2812,2.2715,2.2601,2.2198,2.1812,2.1591,2.1479,2.145,2.1481,2.1617,2.1661,2.1768,2.1797,2.1797,2.1715,2.1827,2.184,2.1832,2.179,2.1852,2.1998,1.246,1.2984,1.2949,1.3345,1.3773,1.3094,1.3111,1.3534,1.3432,1.347,1.3625,1.3846,1.4071,1.4184,1.4019,1.4029,1.414,1.3881,1.3727,1.3524,1.3049,1.2572,1.2113,1.221,1.2206,1.2145,1.2268,1.201,1.1608,1.1302,1.0429,1.0359,1.0512,0.9964,1.0916,1.706,2.0548,2.0866,2.6217,2.9413,3.0367,2.9803,3.0107,3.057,3.0601,3.0171,2.9368,2.8931,2.7896,2.5925,2.5754,2.6352,2.7146,2.6211,2.5872,2.6335,2.2732,1.9765,1.6353,1.4111,1.0825,0.7866,0.7563,0.7764,0.84,0.9013,0.954,0.9946,1.0358,1.0753,1.1024,1.1279,1.1582,1.188,1.176,1.1752,1.2044,1.3828,1.5329,1.6151,1.7278,1.915,2.1608,2.2028,2.2922,2.4206,2.4893,2.4888,2.4802,2.4509,2.4151,2.3888,2.3642,2.3604,2.3658,2.3718,2.3536,2.295,2.2484,2.2149,2.1831,2.1724,2.1741,2.1857,2.1957,2.2077,2.218,2.2135,2.2118,2.213,2.2141,2.2124,2.2153,2.2209,2.2281,1.2849,1.3038,1.3512,1.3892,1.424,1.4123,1.4271,1.4606,1.4725,1.4773,1.4888,1.4964,1.4972,1.5059,1.4935,1.4907,1.4972,1.4868,1.485,1.4907,1.4878,1.3885,1.2952,1.2963,1.3142,1.3226,1.3892,1.4194,1.3737,1.3866,1.3898,1.3685,1.3616,1.3488,1.4077,1.8863,2.1519,2.153,2.3223,2.6984,2.9542,2.7276,2.7312,3.0492,3.0691,3.0281,2.9428,2.8752,2.8191,2.7464,2.7303,2.7412,2.7853,2.74,2.7024,2.6622,2.584,2.273,1.798,1.5884,1.3035,0.8187,0.7869,0.8279,0.838,0.9117,0.9819,1.0296,1.0569,1.0813,1.1329,1.1623,1.1877,1.2282,1.2231,1.2353,1.2709,1.3234,1.4783,1.83,1.8805,2.05,2.311,2.4135,2.4383,2.5432,2.587,2.5888,2.5831,2.5557,2.518,2.479,2.4543,2.4522,2.4543,2.465,2.4406,2.375,2.3227,2.2779,2.2382,2.1991,2.2065,2.2197,2.222,2.2321,2.2405,2.2415,2.2426,2.2419,2.2473,2.25,2.2544,2.2598,2.2651,1.3473,1.3682,1.4091,1.4428,1.4684,1.4784,1.502,1.5313,1.5594,1.5768,1.5836,1.5836,1.5826,1.5874,1.569,1.571,1.5836,1.5826,1.5806,1.5864,1.5938,1.5212,1.4364,1.4201,1.4382,1.4763,1.5414,1.5675,1.5694,1.5974,1.5924,1.5818,1.605,1.5914,1.5627,1.9894,2.2267,2.2361,2.3798,2.6839,2.9156,2.7766,2.8094,3.0351,3.0714,3.044,2.9946,2.9499,2.9188,2.8954,2.8487,2.8278,2.8859,2.8251,2.7276,2.5916,2.412,2.0358,1.5887,1.3743,1.1318,0.8349,0.7991,0.8317,0.8513,0.9124,0.9755,1.0241,1.0573,1.0943,1.1368,1.1791,1.2181,1.2378,1.2663,1.2897,1.3154,1.3287,1.506,1.7743,1.8999,2.0174,2.4617,2.4912,2.5568,2.6384,2.6877,2.693,2.693,2.6544,2.6264,2.5935,2.5721,2.5727,2.5737,2.5801,2.523,2.4549,2.3811,2.3381,2.288,2.2423,2.2468,2.2569,2.2528,2.261,2.2821,2.2884,2.2721,2.273,2.2799,2.292,2.2972,2.3241,2.3257,1.4148,1.4529,1.4656,1.4893,1.5088,1.5098,1.5264,1.5662,1.5884,1.6124,1.6306,1.6363,1.64,1.6637,1.6218,1.6239,1.6477,1.657,1.6694,1.6684,1.6684,1.6296,1.5743,1.5389,1.5686,1.6167,1.6423,1.6838,1.7137,1.7115,1.7256,1.7539,1.7774,1.7656,1.8217,2.1098,2.2308,2.3048,2.58,2.7827,2.9008,2.9248,2.9899,3.0364,3.0733,3.0761,3.0696,3.0622,3.0598,3.0583,2.9106,2.9182,3.0115,2.8908,2.7229,2.4475,2.1455,1.7346,1.2732,1.0625,0.776,0.758,0.7892,0.8253,0.8628,0.9131,0.97,1.0125,1.0559,1.0895,1.1262,1.1959,1.2381,1.2533,1.302,1.3212,1.3253,1.3646,1.4878,1.7106,1.7835,2.0035,2.292,2.4752,2.5476,2.7112,2.7518,2.7518,2.7483,2.7221,2.7227,2.7315,2.7133,2.6986,2.697,2.6994,2.617,2.5374,2.4471,2.3859,2.3379,2.3047,2.2976,2.3072,2.363,2.3719,2.3598,2.3493,2.3387,2.3535,2.3954,2.3708,2.348,2.3975,2.4173,1.4355,1.4529,1.4656,1.4843,1.5029,1.5245,1.5362,1.5478,1.5816,1.6181,1.6353,1.6394,1.6518,1.6761,1.6637,1.6751,1.6842,1.7067,1.7368,1.7479,1.7479,1.7256,1.6853,1.6389,1.6358,1.6845,1.7457,1.7872,1.827,1.8907,1.9595,1.9851,2.0065,2.0699,2.0823,2.2161,2.3832,2.4292,2.6191,2.7622,2.8556,2.9266,2.9938,3.0425,3.0634,3.0737,3.0776,3.0791,3.0771,3.0637,3.0364,3.0153,3.0377,3.015,2.9136,2.7331,2.4334,2.068,1.7243,1.3162,1.0416,0.7868,0.8234,0.8805,0.8827,0.9569,1.0056,1.0436,1.0677,1.0926,1.1243,1.1873,1.2297,1.2613,1.2911,1.3191,1.3374,1.3648,1.5499,1.8616,2.0082,2.1981,2.6284,2.6796,2.7374,2.7971,2.8007,2.8017,2.7929,2.7794,2.7865,2.8007,2.7911,2.7654,2.7646,2.7485,2.6721,2.6011,2.5161,2.485,2.438,2.4129,2.4244,2.4594,2.5033,2.4944,2.4539,2.4853,2.4875,2.5009,2.502,2.4867,2.4793,2.5051,2.5022,1.4446,1.4497,1.4656,1.4834,1.5029,1.5303,1.5478,1.5662,1.6009,1.6306,1.6467,1.6518,1.6595,1.6694,1.6694,1.674,1.6842,1.7123,1.7368,1.7423,1.7534,1.7534,1.7423,1.719,1.7168,1.7589,1.807,1.8596,1.9294,1.9837,2.0346,2.0795,2.1348,2.1479,2.1793,2.2741,2.3258,2.3769,2.507,2.6304,2.7083,2.8387,2.9493,3.0259,3.0584,3.0713,3.0757,3.0801,3.0795,3.0801,3.0765,3.073,3.0672,3.0559,2.9744,2.7281,2.3709,1.9837,1.6121,1.2606,0.9388,0.7928,0.8452,0.8745,0.9,0.9527,1.0085,1.0364,1.0611,1.0863,1.124,1.1692,1.2127,1.2367,1.2728,1.2964,1.3017,1.3364,1.5443,1.932,2.0706,2.3338,2.5957,2.7663,2.8078,2.8126,2.8165,2.8192,2.8255,2.8166,2.8228,2.8282,2.8282,2.8201,2.8208,2.7857,2.7137,2.6482,2.5841,2.5931,2.6021,2.5828,2.5747,2.5943,2.6043,2.58,2.5558,2.5942,2.6123,2.5865,2.5787,2.5955,2.6015,2.5901,2.5834,1.4515,1.4565,1.4725,1.4902,1.5079,1.5303,1.5536,1.5798,1.6134,1.6228,1.6457,1.6457,1.6457,1.6581,1.6581,1.6581,1.674,1.6899,1.719,1.7245,1.7468,1.7412,1.7357,1.7468,1.7678,1.8309,1.8405,1.8939,1.9579,2.0067,2.0156,2.056,2.097,2.1215,2.165,2.2123,2.2512,2.2981,2.3989,2.4922,2.5647,2.7183,2.855,2.9773,3.0269,3.0432,3.0502,3.0606,3.0708,3.0762,3.0781,3.079,3.0771,3.0486,2.937,2.5646,2.2467,1.8893,1.5428,1.122,0.8627,0.803,0.8392,0.8781,0.8952,0.9256,0.9716,1.011,1.0428,1.0744,1.1178,1.1512,1.17,1.1934,1.2466,1.2825,1.3141,1.3487,1.6243,1.9454,2.0938,2.2906,2.5929,2.8172,2.82,2.8264,2.8299,2.836,2.844,2.851,2.8536,2.8587,2.8569,2.8658,2.8658,2.8644,2.7876,2.7364,2.669,2.6995,2.7427,2.7415,2.7214,2.6838,2.6754,2.6676,2.6783,2.7136,2.7105,2.6677,2.6809,2.7283,2.7132,2.6754,2.6777,1.4666,1.4911,1.5029,1.5205,1.5303,1.5352,1.541,1.5468,1.5603,1.5718,1.5999,1.6009,1.6192,1.6296,1.6353,1.657,1.6786,1.6965,1.7078,1.719,1.7357,1.7357,1.7179,1.7312,1.7534,1.7689,1.8018,1.8548,1.904,1.9239,1.9552,1.9811,2.0131,2.0472,2.0871,2.1348,2.2016,2.2392,2.3229,2.4035,2.5045,2.6098,2.7361,2.8778,2.9361,2.973,3.0008,3.025,3.0457,3.0617,3.0684,3.0732,3.0762,3.074,3.0164,2.8516,2.4685,2.0298,1.718,1.386,1.0793,0.8883,0.8382,0.8776,0.8958,0.9145,0.9536,0.9862,1.018,1.0555,1.1059,1.1254,1.1457,1.1692,1.2378,1.3367,1.5001,1.6132,1.7246,2.0553,2.1336,2.2376,2.5933,2.8389,2.8458,2.85,2.8554,2.8578,2.8608,2.8694,2.8743,2.8791,2.8863,2.8984,2.9082,2.9132,2.8864,2.8474,2.8064,2.8122,2.8496,2.8773,2.8632,2.815,2.8095,2.8282,2.8404,2.8393,2.8316,2.8033,2.8341,2.8669,2.8347,2.8028,2.8352,1.4616,1.4743,1.4911,1.4951,1.4942,1.5128,1.5235,1.5284,1.5381,1.5565,1.571,1.5788,1.5894,1.6009,1.6019,1.6228,1.6513,1.6694,1.6807,1.6909,1.7032,1.7134,1.7011,1.72,1.7368,1.7523,1.7744,1.803,1.8506,1.8721,1.8934,1.9291,1.9617,1.9926,2.0271,2.0858,2.1444,2.1941,2.2452,2.3172,2.4203,2.5151,2.6557,2.7539,2.8319,2.8802,2.9204,2.9446,2.9724,2.9969,3.0168,3.0367,3.0516,3.0635,3.0683,2.9695,2.5207,2.0914,1.7884,1.376,0.9106,0.7925,0.8187,0.8641,0.8829,0.9017,0.9344,0.9734,0.9989,1.0301,1.0618,1.0947,1.0982,1.1533,1.2913,1.4791,1.6244,1.7809,2.0,2.217,2.3173,2.4798,2.7146,2.8685,2.8712,2.8761,2.8787,2.8824,2.8855,2.8925,2.9016,2.9148,2.9233,2.9318,2.9437,2.9514,2.9551,2.9268,2.9135,2.9209,2.9285,2.9418,2.9476,2.927,2.9437,2.9412,2.9277,2.9057,2.9202,2.9312,2.9225,2.9191,2.9303,2.9397,2.9493,1.4446,1.4437,1.4597,1.4588,1.4538,1.4784,1.4961,1.505,1.5167,1.5294,1.543,1.5449,1.5498,1.5652,1.572,1.5846,1.6066,1.6259,1.642,1.6477,1.6694,1.6797,1.692,1.7088,1.7211,1.7245,1.7357,1.759,1.8073,1.8344,1.8614,1.8881,1.9239,1.9512,1.9823,2.0308,2.0809,2.1215,2.1664,2.2217,2.3171,2.4477,2.5696,2.6571,2.7179,2.7727,2.8164,2.8558,2.8914,2.9273,2.957,2.9863,3.012,3.0288,3.0414,2.9445,2.4021,2.0934,1.7088,1.4341,1.0472,0.7747,0.8107,0.8447,0.8641,0.8894,0.9151,0.9606,0.9658,1.0574,1.1488,1.1535,1.2226,1.3729,1.5721,1.7517,1.8869,2.0645,2.3086,2.471,2.5505,2.6766,2.8621,2.9021,2.906,2.9138,2.9187,2.9246,2.9263,2.9301,2.9399,2.9533,2.9624,2.9695,2.9799,2.9845,2.9893,2.981,2.9745,2.9827,2.9859,2.9924,2.9931,2.9896,2.9836,2.977,2.9718,2.9682,2.9681,2.9699,2.9682,2.9681,2.9698,2.9698,2.9735,1.4139,1.4249,1.4419,1.4529,1.4469,1.4529,1.4529,1.4579,1.4619,1.4628,1.4656,1.4693,1.4821,1.5088,1.5488,1.573,1.5904,1.5951,1.6009,1.6077,1.6353,1.6467,1.6545,1.6761,1.6807,1.6853,1.6853,1.7301,1.7678,1.7854,1.8127,1.8398,1.8614,1.8881,1.9186,1.9734,2.0207,2.056,2.1019,2.1684,2.2515,2.3415,2.4197,2.4932,2.5704,2.6398,2.6964,2.7512,2.8057,2.85,2.893,2.9319,2.9616,2.9633,2.9775,2.9935,2.866,2.6054,2.0044,1.694,1.3936,0.9913,0.904,0.886,0.9894,1.0086,1.0221,0.9274,0.9617,1.1297,1.3857,1.4398,1.6154,1.7768,1.923,2.1332,2.2905,2.3419,2.5894,2.7069,2.7825,2.8241,2.9382,2.9381,2.94,2.9513,2.9583,2.9616,2.9683,2.9731,2.9756,2.9856,2.9937,3.0029,3.0068,3.0139,3.0145,3.019,3.022,3.0294,3.0273,3.0235,3.0273,3.0248,3.0188,3.0118,3.0026,3.003,3.0049,3.0019,2.9953,2.9984,3.003,3.0019,2.9956,1.339,1.3821,1.3863,1.3863,1.3863,1.3863,1.3923,1.3992,1.4043,1.4112,1.4121,1.4207,1.4327,1.4606,1.4951,1.5137,1.5254,1.5352,1.5536,1.5604,1.5826,1.5999,1.6114,1.6228,1.6285,1.6343,1.64,1.6457,1.6955,1.729,1.7512,1.7744,1.8018,1.8278,1.8548,1.9133,1.9488,1.985,2.0396,2.1077,2.1724,2.2335,2.2981,2.3646,2.4402,2.5045,2.5645,2.6253,2.6774,2.7221,2.7736,2.8227,2.854,2.8739,2.8933,2.8968,2.9164,2.6581,2.2122,1.9427,1.6054,1.4487,1.3455,1.4532,1.4812,1.4687,1.4654,1.5208,1.5054,1.5867,1.6843,1.7302,1.8114,1.9722,2.2028,2.31,2.4936,2.6983,2.8232,2.9199,2.9877,2.9745,2.969,2.9748,2.9773,2.9843,2.991,2.9943,3.0042,3.016,3.0173,3.0181,3.0268,3.0326,3.0327,3.0366,3.0366,3.0376,3.0382,3.0432,3.0482,3.05,3.0501,3.0501,3.0433,3.0381,3.0333,3.0254,3.0221,3.0188,3.0174,3.0202,3.0202,3.0152,3.0123,1.2666,1.3147,1.3268,1.3268,1.3216,1.3329,1.339,1.339,1.3519,1.3588,1.364,1.3769,1.3941,1.4121,1.4419,1.4597,1.4715,1.4765,1.4942,1.5118,1.5235,1.541,1.5526,1.5642,1.5758,1.5748,1.5874,1.5941,1.6056,1.6332,1.6729,1.7022,1.7357,1.7678,1.805,1.8429,1.8857,1.9331,1.9837,2.0383,2.0868,2.1293,2.1899,2.25,2.3128,2.3749,2.4327,2.4932,2.5431,2.5837,2.6386,2.6935,2.7381,2.7558,2.7743,2.7741,2.782,2.6814,2.3577,2.0926,1.804,1.7182,1.7427,1.6979,1.811,1.915,1.8989,1.7823,1.7759,1.8394,1.9764,1.9861,2.0988,2.2252,2.397,2.4563,2.533,2.731,2.8724,2.9315,2.9776,2.9957,2.9961,3.0093,3.0149,3.0183,3.0222,3.0249,3.0321,3.0424,3.0443,3.0399,3.0453,3.0502,3.0516,3.0539,3.0542,3.0542,3.0545,3.055,3.06,3.0614,3.0601,3.062,3.0633,3.0607,3.0508,3.0443,3.0359,3.0352,3.0325,3.0321,3.0316,3.0299,3.0305,1.2127,1.2243,1.2674,1.2797,1.2858,1.2981,1.3042,1.2981,1.305,1.3042,1.3111,1.3329,1.3511,1.3761,1.3881,1.4121,1.4478,1.4538,1.4469,1.4588,1.4775,1.4765,1.4883,1.5001,1.5177,1.5225,1.5294,1.5313,1.5313,1.5468,1.5989,1.657,1.6729,1.7078,1.7468,1.7843,1.8387,1.8869,1.9319,1.9592,1.9952,2.0346,2.0818,2.1355,2.1927,2.2529,2.3098,2.3849,2.4327,2.4682,2.5287,2.5711,2.6202,2.6286,2.6434,2.6446,2.62,2.5646,2.4178,2.2406,1.951,1.7164,1.6903,1.8474,1.9513,1.7879,1.7308,1.8546,1.9432,1.9841,2.1128,2.2227,2.3516,2.4739,2.5829,2.6294,2.685,2.7553,2.8822,2.9338,2.9589,2.9668,2.9785,2.9831,3.0136,3.0175,3.0253,3.0273,3.0351,3.0429,3.0527,3.0547,3.0604,3.0643,3.0661,3.0658,3.0618,3.062,3.0624,3.0643,3.0678,3.0691,3.0696,3.0693,3.0693,3.0696,3.069,3.0611,3.0529,3.05,3.0472,3.0482,3.0472,3.0452,3.0462,1.156,1.1498,1.1747,1.2058,1.2375,1.2305,1.2305,1.2428,1.2297,1.2428,1.256,1.2605,1.285,1.3094,1.3103,1.3285,1.3528,1.3588,1.364,1.3752,1.3872,1.3923,1.3992,1.4112,1.4222,1.435,1.4478,1.4597,1.4606,1.4834,1.5059,1.5468,1.5989,1.6467,1.6864,1.7312,1.7799,1.8182,1.8548,1.8827,1.9291,1.954,1.994,2.0584,2.1028,2.1452,2.2002,2.3086,2.3407,2.3743,2.4438,2.4851,2.5112,2.5118,2.5153,2.518,2.4869,2.4595,2.4248,2.3308,2.2357,2.2269,2.2028,2.2164,2.2132,2.2824,2.2984,2.3206,2.2453,2.2975,2.4232,2.5046,2.5765,2.6922,2.7466,2.7651,2.7868,2.8076,2.8366,2.8648,2.8948,2.9172,2.9311,2.9447,2.9838,3.0158,3.0253,3.0296,3.0321,3.0372,3.0419,3.0472,3.0501,3.0572,3.0595,3.0634,3.0657,3.0673,3.0665,3.0661,3.0657,3.0753,3.0759,3.0759,3.0741,3.0742,3.074,3.074,3.0685,3.0611,3.06,3.0603,3.0603,3.0603,3.0595,1.1122,1.0996,1.1122,1.1428,1.1809,1.1809,1.1872,1.1996,1.1872,1.1926,1.212,1.212,1.2251,1.2498,1.2498,1.2552,1.2797,1.2858,1.2972,1.3094,1.3216,1.3208,1.3338,1.345,1.3623,1.364,1.3761,1.3941,1.4001,1.43,1.4478,1.4834,1.5303,1.5768,1.6316,1.6761,1.7211,1.7479,1.781,1.8084,1.8614,1.8881,1.9239,1.9837,2.0245,2.0646,2.1225,2.2083,2.2678,2.3008,2.3487,2.403,2.4113,2.4097,2.409,2.3975,2.3706,2.3289,2.2876,2.301,2.3686,2.3264,2.4013,2.4797,2.601,2.6349,2.5046,2.543,2.5768,2.633,2.6286,2.5835,2.577,2.6351,2.6561,2.6725,2.6933,2.7135,2.7507,2.7816,2.8142,2.8487,2.8746,2.8907,2.927,2.9661,2.9822,2.992,3.0052,3.0106,3.0239,3.0269,3.0308,3.0403,3.0468,3.0463,3.0467,3.0486,3.0506,3.0579,3.062,3.0686,3.0724,3.0696,3.0707,3.0735,3.0747,3.0717,3.0721,3.0716,3.0712,3.0701,3.0701,3.0701,3.0706,1.0821,1.0807,1.0814,1.1003,1.131,1.1622,1.174,1.174,1.174,1.174,1.1809,1.1934,1.2065,1.212,1.2058,1.2182,1.2305,1.2367,1.249,1.2736,1.2797,1.2867,1.2981,1.3086,1.3147,1.3321,1.345,1.3511,1.3502,1.3761,1.4001,1.424,1.4656,1.5186,1.574,1.6306,1.674,1.7011,1.7368,1.7645,1.7865,1.8193,1.8614,1.9028,1.9436,1.9901,2.0411,2.1457,2.2038,2.2283,2.2915,2.3356,2.3501,2.336,2.3275,2.3216,2.2618,2.231,2.2217,2.2267,2.2548,2.2922,2.3576,2.3973,2.4112,2.4387,2.4796,2.4954,2.4959,2.5061,2.5068,2.5187,2.5342,2.5524,2.5742,2.6016,2.6245,2.6471,2.6869,2.723,2.7447,2.7701,2.8017,2.8353,2.8718,2.9055,2.9307,2.9511,2.9636,2.9782,2.9865,2.9947,2.9989,3.012,3.0182,3.0263,3.0298,3.0298,3.0321,3.0353,3.0414,3.0451,3.0515,3.0581,3.0626,3.0633,3.0664,3.0695,3.0707,3.072,3.0758,3.0769,3.0788,3.0784,3.0777,1.0771,1.0448,1.0503,1.0599,1.0694,1.0996,1.1122,1.1115,1.1115,1.1178,1.131,1.1435,1.149,1.1553,1.1615,1.174,1.1926,1.1996,1.212,1.2305,1.2313,1.2367,1.2482,1.2605,1.2736,1.2858,1.2981,1.3094,1.3155,1.3338,1.3459,1.3692,1.4249,1.4843,1.5614,1.6192,1.6524,1.6637,1.6976,1.7245,1.7434,1.77,1.803,1.8398,1.8774,1.9198,1.9626,2.0815,2.16,2.1826,2.2496,2.3128,2.2939,2.2692,2.2564,2.225,2.1636,2.1541,2.1506,2.1554,2.1732,2.2156,2.2572,2.2979,2.3246,2.3523,2.3739,2.3952,2.4204,2.4426,2.462,2.4757,2.4918,2.5107,2.5329,2.5626,2.5848,2.6104,2.642,2.6707,2.6952,2.7161,2.7461,2.7724,2.8055,2.8368,2.862,2.8916,2.9124,2.927,2.9379,2.9491,2.96,2.9772,2.987,2.9935,2.9999,3.0009,3.0037,3.0084,3.0126,3.0207,3.0308,3.0395,3.0453,3.0482,3.0554,3.0618,3.0685,3.0715,3.074,3.0779,3.08,3.0801,3.0781,1.039,1.0089,1.0015,1.0018,1.006,1.0491,1.0744,1.0744,1.0744,1.0807,1.0933,1.0996,1.1122,1.1178,1.124,1.131,1.1553,1.1553,1.1622,1.1809,1.1941,1.1996,1.2058,1.212,1.2305,1.2367,1.249,1.2613,1.2544,1.2911,1.3147,1.3459,1.389,1.4488,1.5137,1.5604,1.6077,1.6249,1.6581,1.6874,1.7043,1.7323,1.7645,1.7975,1.829,1.8667,1.9275,2.0177,2.1343,2.161,2.2291,2.3055,2.2537,2.2258,2.2047,2.1488,2.1055,2.0957,2.0822,2.0835,2.1118,2.165,2.1996,2.237,2.2723,2.3038,2.3304,2.3538,2.3784,2.404,2.4276,2.4374,2.4539,2.4735,2.4934,2.5224,2.5454,2.5684,2.5905,2.6175,2.6454,2.6674,2.6923,2.712,2.7386,2.7666,2.7946,2.8262,2.8615,2.8787,2.8973,2.9107,2.9223,2.9381,2.9495,2.9588,2.9661,2.9713,2.9748,2.9799,2.9912,3.0004,3.0119,3.0196,3.0266,3.0333,3.0442,3.0528,3.0579,3.0625,3.0658,3.0715,3.0771,3.0782,3.0786,0.9612,0.9554,0.9391,0.9361,0.9472,1.0174,1.0491,1.0561,1.0561,1.0555,1.0744,1.0674,1.0744,1.0996,1.0996,1.1052,1.1122,1.1122,1.1185,1.1373,1.1498,1.1622,1.1747,1.1872,1.1934,1.1872,1.1996,1.2058,1.1926,1.2428,1.285,1.3268,1.3761,1.4189,1.4597,1.501,1.5546,1.5894,1.6192,1.642,1.6648,1.7119,1.7455,1.7812,1.8202,1.8646,1.9227,2.0141,2.088,2.1524,2.2318,2.2485,2.2359,2.2114,2.1581,2.103,2.051,2.0409,2.0321,2.0271,2.0636,2.1229,2.1616,2.1949,2.237,2.2723,2.2994,2.3246,2.3551,2.3782,2.4009,2.4109,2.425,2.4441,2.4589,2.4791,2.5005,2.5224,2.5378,2.5626,2.5864,2.6137,2.647,2.6674,2.6942,2.7198,2.7535,2.7811,2.8139,2.8438,2.8597,2.8777,2.8902,2.9012,2.9123,2.9233,2.9295,2.9358,2.9455,2.9513,2.9663,2.9787,2.9864,2.9954,3.0075,3.0161,3.0297,3.0378,3.0442,3.0501,3.0554,3.0644,3.0695,3.0754,3.0747,0.9585,0.9409,0.9365,0.9379,0.935,0.96,0.9716,0.9779,0.9722,0.9779,0.9907,0.9837,1.0104,1.0301,1.0098,1.0421,1.0611,1.0744,1.0744,1.0933,1.1122,1.1122,1.1254,1.145,1.1435,1.1567,1.1645,1.1729,1.1762,1.2135,1.2621,1.3103,1.3511,1.3821,1.4181,1.4597,1.5098,1.5498,1.5876,1.6175,1.643,1.6901,1.7331,1.784,1.835,1.8771,1.9309,2.0321,2.1041,2.147,2.2362,2.2611,2.2128,2.1827,2.1375,2.0194,2.0016,2.008,2.0016,2.0372,2.0673,2.0934,2.1375,2.1759,2.2137,2.2449,2.2723,2.2979,2.3275,2.3508,2.3711,2.3855,2.4013,2.4181,2.4374,2.4564,2.4806,2.5005,2.5201,2.5355,2.5567,2.5828,2.6137,2.6383,2.6657,2.6859,2.712,2.7417,2.7701,2.8017,2.8309,2.8492,2.8576,2.87,2.8773,2.8874,2.8943,2.903,2.9138,2.9246,2.9392,2.9531,2.9608,2.9751,2.9905,3.0034,3.0133,3.0209,3.0297,3.0352,3.0419,3.053,3.061,3.0651,3.0678,0.928,0.9265,0.9136,0.9092,0.912,0.9047,0.9069,0.9034,0.9062,0.9204,0.9454,0.9338,0.946,0.9716,0.9588,0.9779,1.0231,1.0174,1.0244,1.0491,1.0744,1.0814,1.0884,1.11,1.1248,1.1298,1.1362,1.1532,1.158,1.1784,1.2243,1.2482,1.3025,1.3398,1.3744,1.4273,1.4805,1.515,1.5517,1.5976,1.6399,1.6746,1.7217,1.7744,1.8324,1.8641,1.9009,2.0112,2.0701,2.1117,2.1994,2.2383,2.1827,2.14,2.0774,1.9753,1.9681,1.9772,1.9759,2.0003,2.0422,2.0772,2.1118,2.141,2.1793,2.2137,2.2417,2.2632,2.2949,2.3216,2.3407,2.3596,2.3799,2.4,2.4181,2.4416,2.4645,2.4886,2.5084,2.524,2.5416,2.5642,2.5901,2.6118,2.6365,2.6607,2.6842,2.7085,2.7369,2.7689,2.7979,2.8228,2.8309,2.837,2.8474,2.8576,2.8694,2.8791,2.891,2.9044,2.9175,2.9328,2.9472,2.9626,2.9787,2.9888,2.9969,3.0045,3.0114,3.0188,3.026,3.0348,3.043,3.052,3.0535,0.8677,0.9124,0.8769,0.8711,0.884,0.8684,0.8518,0.8346,0.8628,0.8998,0.9221,0.8894,0.8958,0.9332,0.9204,0.9332,0.9594,0.9728,0.9792,0.9989,1.0301,1.0434,1.0635,1.1053,1.0897,1.1019,1.1152,1.1221,1.1323,1.1553,1.1747,1.1872,1.2605,1.3014,1.326,1.4118,1.4648,1.4796,1.5213,1.5684,1.6316,1.6619,1.688,1.7371,1.7644,1.7845,1.8193,1.8965,1.9854,2.057,2.1141,2.1705,2.1287,2.0856,2.0074,1.9642,1.9445,1.946,1.9617,1.9811,2.0067,2.0372,2.0673,2.1118,2.1554,2.1949,2.2231,2.2356,2.2632,2.2888,2.3082,2.3378,2.3655,2.387,2.4067,2.4317,2.4539,2.4782,2.4926,2.5084,2.5224,2.5454,2.5659,2.5881,2.6082,2.6349,2.6572,2.6758,2.7053,2.7355,2.763,2.794,2.8071,2.8182,2.8255,2.8362,2.8484,2.8587,2.8687,2.8834,2.8998,2.9178,2.9368,2.9492,2.9626,2.9718,2.9806,2.9855,2.9937,3.003,3.0109,3.0157,3.0234,3.034,3.04,0.8285,0.8302,0.8368,0.8526,0.8644,0.8649,0.8564,0.8504,0.8453,0.8435,0.8359,0.8322,0.8522,0.8922,0.8657,0.8851,0.9321,0.9385,0.9414,0.9649,0.9918,1.0149,1.0091,1.0425,1.0413,1.0348,1.0503,1.0916,1.1118,1.1369,1.1622,1.1996,1.2514,1.2803,1.3099,1.3975,1.4377,1.453,1.5014,1.551,1.6045,1.6517,1.6824,1.7277,1.7547,1.7991,1.8379,1.8888,1.9621,2.0277,2.0274,2.038,2.0209,2.0273,1.9932,1.9429,1.9263,1.9303,1.942,1.9668,2.0029,2.0372,2.0723,2.1131,2.152,2.1855,2.2091,2.2123,2.2324,2.2552,2.2841,2.3171,2.3494,2.3711,2.3967,2.4193,2.4457,2.462,2.4822,2.4926,2.5068,2.5262,2.5448,2.5637,2.5844,2.6026,2.6222,2.6417,2.6708,2.6956,2.7261,2.7569,2.7865,2.7982,2.8071,2.8136,2.8273,2.838,2.8466,2.8644,2.8858,2.9067,2.9265,2.933,2.9434,2.9531,2.9626,2.9719,2.979,2.9822,2.9905,2.9972,3.0019,3.0118,3.0182,0.8176,0.8167,0.8144,0.8312,0.8558,0.8436,0.8311,0.8231,0.815,0.7976,0.7817,0.7922,0.8134,0.8536,0.8261,0.8461,0.9031,0.9153,0.9265,0.951,0.97,0.9886,0.9933,0.9999,1.0149,1.0155,1.0384,1.0652,1.0982,1.0971,1.124,1.1784,1.2227,1.2751,1.3139,1.3761,1.4286,1.4467,1.4936,1.5414,1.5785,1.6045,1.6497,1.6977,1.7336,1.7803,1.8278,1.8677,1.9123,1.9795,2.0178,2.0205,2.0225,2.0327,1.9873,1.9348,1.9105,1.921,1.9328,1.9577,1.9914,2.022,2.0472,2.0785,2.1118,2.1444,2.1807,2.1888,2.2077,2.2292,2.2598,2.2947,2.3246,2.3553,2.3754,2.3967,2.4317,2.462,2.4742,2.4862,2.5005,2.5146,2.5355,2.554,2.5712,2.5787,2.5987,2.6099,2.6365,2.6691,2.694,2.723,2.7531,2.7759,2.7853,2.795,2.8025,2.8146,2.8282,2.8518,2.8737,2.8975,2.9178,2.9203,2.9267,2.9349,2.9429,2.9491,2.9512,2.9551,2.9644,2.9753,2.9805,2.9874,2.9934,0.8168,0.8277,0.7955,0.8132,0.8533,0.8241,0.7996,0.786,0.7838,0.7733,0.7615,0.7725,0.8,0.8093,0.8093,0.8359,0.8563,0.8869,0.9141,0.9436,0.9708,0.9787,0.99,1.0021,1.0128,1.0214,1.0405,1.0571,1.0866,1.0804,1.0904,1.1411,1.1995,1.2622,1.2937,1.3613,1.4348,1.4519,1.4858,1.5261,1.5423,1.5495,1.6089,1.6433,1.6643,1.689,1.7517,1.8002,1.8444,1.914,1.9849,1.9854,1.99,1.9861,1.9594,1.9156,1.8946,1.9064,1.917,1.9263,1.9512,1.9759,2.0029,2.0385,2.0809,2.1153,2.1458,2.1712,2.1888,2.2077,2.2385,2.2721,2.3023,2.3422,2.3625,2.3839,2.4219,2.4564,2.4661,2.4782,2.4926,2.5068,2.524,2.5464,2.554,2.5654,2.5749,2.5901,2.6066,2.6417,2.6708,2.6973,2.7261,2.7461,2.7659,2.7777,2.7864,2.7996,2.8146,2.8388,2.8612,2.8767,2.891,2.9026,2.9112,2.9134,2.916,2.9185,2.923,2.9272,2.9336,2.9456,2.9626,2.9664,2.9681,0.7943,0.8107,0.7873,0.7992,0.8156,0.7944,0.7918,0.7973,0.7875,0.7776,0.7703,0.7715,0.7911,0.8023,0.8014,0.8155,0.8517,0.8725,0.8946,0.927,0.9368,0.9508,0.9725,0.9887,1.0079,1.0184,1.0333,1.0578,1.0635,1.0585,1.0769,1.1228,1.157,1.2133,1.2684,1.3347,1.3956,1.4172,1.4473,1.4815,1.506,1.5256,1.5662,1.588,1.6002,1.63,1.6649,1.6945,1.7464,1.8156,1.8988,1.9194,1.9332,1.9373,1.9148,1.8927,1.8732,1.8798,1.8893,1.9093,1.9291,1.9512,1.9875,2.0372,2.0759,2.1019,2.1326,2.1471,2.165,2.1888,2.2137,2.2495,2.2859,2.3363,2.3668,2.3897,2.425,2.4416,2.458,2.4701,2.4846,2.5045,2.5217,2.5388,2.5486,2.5562,2.5659,2.5791,2.5909,2.6201,2.6502,2.6759,2.7004,2.7307,2.7557,2.7642,2.773,2.7864,2.7996,2.8174,2.8362,2.8466,2.8619,2.8767,2.8815,2.8839,2.8868,2.8938,2.8989,2.9034,2.906,2.9148,2.9312,2.9433,2.9454]},{"header":{"parameterUnit":"m.s-1","parameterCategory":1,"la1":31.0,"la2":29.5877,"lo1":-88.7671,"lo2":-86.6584,"dy":0.0162,"dx":0.0185,"nx":115,"ny":88,"refTime":"2023-05-13T12:00:00:Z","depth":0,"parameterNumber":3,"parameterNumberName":"V-component_of_WINDS"},"data":[0.0,0.0,0.0,0.0,0.0,0.0,0.0,0.0,0.0,0.0,0.0,0.0,0.0,0.0,0.0,0.0,0.0,0.0,0.0,0.0,0.0,0.0,0.0,0.0,0.0,0.0,0.0,0.0,0.0,0.0,0.0,0.0,0.0,0.0,0.0,0.0,0.0,0.0,0.0,0.0,0.0,0.0,0.0,0.0,0.0,0.0,0.0,0.0,0.0,0.0,0.0,0.0,0.0,0.0,0.0,0.0,0.0,0.0,0.0,0.0,0.0,0.0,0.0,0.0,0.0,0.0,0.0,0.0,0.0,0.0,0.0,0.0,0.0,0.0,0.0,0.0,0.0,0.0,0.0,0.0,0.0,0.0,0.0,0.0,0.0,0.0,0.0,0.0,0.0,0.0,0.0,0.0,0.0,0.0,0.0,0.0,0.0,0.0,0.0,0.0,0.0,0.0,0.0,0.0,0.0,0.0,0.0,0.0,0.0,0.0,0.0,0.0,0.0,0.0,0.0,0.0,0.0,0.0,0.0,0.0,0.0,0.0,0.0,0.0,0.0,0.0,0.0,0.0,0.0,0.0,0.0,0.0,0.0,0.0,0.0,0.0,0.0,0.0,0.0,0.0,0.0,0.0,0.0,0.0,0.0,0.0,0.0,0.0,0.0,0.0,0.0,0.0,0.0,0.0,0.0,0.0,0.0,0.0,0.0,0.0,0.0,0.0,0.0,0.0,0.0,0.0,0.0,0.0,0.0,0.0,0.0,0.0,0.0,0.0,0.0,0.0,0.0,0.0,0.0,0.0,0.0,0.0,0.0,0.0,0.0,0.0,0.0,0.0,0.0,0.0,0.0,0.0,0.0,0.0,0.0,0.0,0.0,0.0,0.0,0.0,0.0,0.0,0.0,0.0,0.0,0.0,0.0,0.0,0.0,0.0,0.0,0.0,0.0,0.0,0.0,0.0,0.0,0.0,0.0,0.0,0.0,0.0,0.0,0.0,0.0,0.0,0.0,0.0,0.0,0.0,0.0,0.0,0.0,0.0,0.0,0.0,0.0,0.0,0.0,0.0,0.0,0.0,0.0,0.0,0.0,0.0,0.0,0.0,0.0,0.0,0.0,0.0,0.0,0.0,0.0,0.0,0.0,0.0,0.0,0.0,0.0,0.0,0.0,0.0,0.0,0.0,0.0,0.0,0.0,0.0,0.0,0.0,0.0,0.0,0.0,0.0,0.0,0.0,0.0,0.0,0.0,0.0,0.0,0.0,0.0,0.0,0.0,0.0,0.0,0.0,0.0,0.0,0.0,0.0,0.0,0.0,0.0,0.0,0.0,0.0,0.0,0.0,0.0,0.0,0.0,0.0,0.0,0.0,0.0,0.0,0.0,0.0,0.0,0.0,0.0,0.0,0.0,0.0,0.0,0.0,0.0,0.0,0.0,0.0,0.0,0.0,0.0,0.0,0.0,0.0,0.0,0.0,0.0,0.0,0.0,0.0,0.0,0.0,0.0,0.0,0.0,0.0,0.0,0.0,0.0,0.0,0.0,0.0,0.0,0.0,0.0,0.0,0.0,0.0,0.0,0.0,0.0,0.0,0.0,0.0,0.0,0.0,0.0,0.0,0.0,0.0,0.0,0.0,0.0,0.0,0.0,0.0,0.0,0.0,0.0,0.0,0.0,0.0,0.0,0.0,0.0,0.0,0.0,0.0,0.0,0.0,0.0,0.0,0.0,0.0,0.0,0.0,0.0,0.0,0.0,0.0,0.0,0.0,0.0,0.0,0.0,0.0,0.0,0.0,0.0,0.0,0.0,0.0,0.0,0.0,0.0,0.0,0.0,0.0,0.0,0.0,0.0,0.0,0.0,0.0,0.0,0.0,0.0,0.0,0.0,0.0,0.0,0.0,0.0,0.0,0.0,0.0,0.0,0.0,0.0,0.0,0.0,0.0,0.0,0.0,0.0,0.0,0.0,0.0,0.0,0.0,0.0,0.0,0.0,0.0,0.0,0.0,0.0,0.0,0.0,0.0,0.0,0.0,0.0,0.0,0.0,0.0,0.0,0.0,0.0,0.0,0.0,0.0,0.0,0.0,0.0,0.0,0.0,0.0,0.0,0.0,0.0,0.0,0.0,0.0,0.0,0.0,0.0,0.0,0.0,0.0,0.0,0.0,0.0,0.0,0.0,0.0,0.0,0.0,0.0,0.0,0.0,0.0,0.0,0.0,0.0,0.0,0.0,0.0,0.0,0.0,0.0,0.0,0.0,0.0,0.0,0.0,0.0,0.0,0.0,0.0,0.0,0.0,0.0,0.0,0.0,0.0,0.0,0.0,0.0,0.0,0.0,0.0,0.0,0.0,0.0,0.0,0.0,0.0,0.0,0.0,0.0,0.0,0.0,0.0,0.0,0.0,0.0,0.0,0.0,0.0,0.0,0.0,0.0,0.0,0.0,0.0,0.0,0.0,0.0,0.0,0.0,0.0,0.0,0.0,0.0,0.0,0.0,0.0,0.0,0.0,0.0,0.0,0.0,0.0,0.0,0.0,0.0,0.0,0.0,0.0,0.0,0.0,0.0,0.0,0.0,0.0,0.0,0.0,0.0,0.0,0.0,0.0,0.0,0.0,0.0,0.0,0.0,0.0,0.0,0.0,0.0,0.0,0.0,0.0,0.0,0.0,0.0,0.0,0.0,0.0,0.0,0.0,0.0,0.0,0.0,0.0,0.0,0.0,0.0,0.0,0.0,0.0,0.0,0.0,0.0,0.0,0.0,0.0,0.0,0.0,0.0,0.0,0.0,0.0,0.0,0.0,0.0,0.0,0.0,0.0,0.0,0.0,0.0,0.0,0.0,0.0,0.0,0.0,0.0,0.0,0.0,0.0,0.0,0.0,0.0,0.0,0.0,0.0,0.0,0.0,0.0,0.0,0.0,0.0,0.0,0.0,0.0,0.0,0.0,0.0,0.0,0.0,0.0,0.0,0.0,0.0,0.0,0.0,0.0,0.0,0.0,0.0,0.0,0.0,0.0,0.0,0.0,0.0,0.0,0.0,0.0,0.0,0.0,0.0,0.0,0.0,0.0,0.0,0.0,0.0,0.0,0.0,0.0,0.0,0.0,0.0,0.0,0.0,0.0,0.0,0.0,0.0,0.0,0.0,0.0,0.0,0.0,0.0,0.0,0.0,0.0,0.0,0.0,0.0,0.0,0.0,0.0,0.0,0.0,0.0,0.0,0.0,0.0,0.0,0.0,0.0,0.0,0.0,0.0,0.0,0.0,0.0,0.0,0.0,0.0,0.0,0.0,0.0,0.0,0.0,0.0,0.0,0.0,0.0,0.0,0.0,0.0,0.0,0.0,0.0,0.0,0.0,0.0,0.0,0.0,0.0,0.0,0.0,0.0,0.0,0.0,0.0,0.0,0.0,0.0,0.0,0.0,0.0,0.0,0.0,0.0,0.0,0.0,0.0,0.0,0.0,0.0,0.0,0.0,0.0,0.0,0.0,0.0,0.0,0.0,0.0,0.0,0.0,0.0,0.0,0.0,0.0,0.0,0.0,0.0,0.0,0.0,0.0,0.0,0.0,0.0,0.0,0.0,0.0,0.0,0.0,0.0,0.0,0.0,0.0,0.0,0.0,0.0,0.0,0.0,0.0,0.0,0.0,0.0,0.0,0.0,0.0,0.0,0.0,0.0,0.0,0.0,0.0,0.0,0.0,0.0,0.0,0.0,0.0,0.0,0.0,0.0,0.0,0.0,0.0,0.0,0.0,0.0,0.0,0.0,0.0,0.0,0.0,0.0,0.0,0.0,0.0,0.0,0.0,0.0,0.0,0.0,0.0,0.0,0.0,0.0,0.0,0.0,0.0,0.0,0.0,0.0,0.0,0.0,0.0,0.0,0.0,0.0,0.0,0.0,0.0,0.0,0.0,0.0,0.0,0.0,0.0,0.0,0.0,0.0,0.0,0.0,0.0,0.0,0.0,0.0,0.0,0.0,0.0,0.0,0.0,0.0,0.0,0.0,0.0,0.0,0.0,0.0,0.0,0.0,0.0,0.0,0.0,0.0,0.0,0.0,0.0,0.0,0.0,0.0,0.0,0.0,0.0,0.0,0.0,0.0,0.0,0.0,0.0,0.0,0.0,0.0,0.0,0.0,0.0,0.0,0.0,0.0,0.0,0.0,0.0,0.0,0.0,0.0,0.0,0.0,0.0,0.0,0.0,0.0,0.0,0.0,0.0,0.0,0.0,0.0,0.0,0.0,0.0,0.0,0.0,0.0,0.0,0.0,0.0,0.4238,0.0,0.0,0.0,0.0,0.0,0.0,0.0,0.0,0.0,0.0,0.0,0.0,0.0,0.0,0.0,0.0,0.0,0.0,0.0,0.0,0.0,0.0,0.0,0.0,0.0,0.0,0.0,0.0,0.0,0.0,0.0,0.0,0.0,0.0,0.0,0.0,0.0,0.0,0.0,0.0,0.0,0.0,0.0,0.0,0.0,0.0,0.0,0.0,0.0,0.0,0.0,0.0,0.0,0.0,0.0,0.0,0.0,0.0,0.0,0.0,0.0,0.0,0.0,0.0,0.0,0.0,0.0,0.0,0.0,0.0,0.0,0.0,0.0,0.0,0.0,0.0,0.0,0.0,0.0,0.0,0.0,0.0,0.0,0.0,0.0,0.0,0.0,0.0,0.0,0.0,0.0,0.0,0.0,0.0,0.0,0.0,0.0,0.0,0.0,0.0,0.0,0.0,0.0,0.0,0.0,0.0,0.0,0.0,0.0,0.0,0.4975,0.4975,0.4888,0.4762,0.4666,0.0,0.0,0.0,0.0,0.0,0.0,0.0,0.0,0.0,0.0,0.0,0.0,0.0,0.0,0.0,0.0,0.0,0.0,0.0,0.0,0.0,0.0,0.0,0.0,0.0,0.0,0.0,0.0,0.0,0.0,0.0,0.0,0.0,0.0,0.0,0.0,0.0,0.0,0.0,0.0,0.0,0.0,0.0,0.0,0.0,0.0,0.0,0.0,0.0,0.0,0.0,0.0,0.0,0.0,0.0,0.0,0.0,0.0,0.0,0.0,0.0,0.0,0.0,0.0,0.0,0.0,0.0,0.0,0.0,0.0,0.0,0.0,0.0,0.0,0.0,0.0,0.0,0.0,0.0,0.0,0.0,0.0,0.0,0.0,0.0,0.0,0.0,0.0,0.0,0.0,0.0,0.0,0.0,0.0,0.0,0.0,0.0,0.0,0.0,0.0,0.0,0.0,0.0,0.0,0.0,0.0,0.0,0.0,0.0,0.0,0.0,0.0,0.5246,0.5087,0.4905,0.0,0.0,0.0,0.0,0.0,0.0,0.0,0.0,0.0,0.0,0.0,0.0,0.0,0.0,0.0,0.0,0.0,0.0,0.0,0.0,0.0,0.0,0.0,0.0,0.0,0.0,0.0,0.0,0.0,0.0,0.0,0.0,0.0,0.0,0.0,0.0,0.0,0.0,0.0,0.0,0.0,0.0,0.0,0.0,0.0,0.0,0.0,0.0,0.0,0.0,0.0,0.0,0.0,0.0,0.0,0.0,0.0,0.0,0.0,0.0,0.0,0.0,0.0,0.0,0.0,0.0,0.0,0.0,0.0,0.0,0.0,0.0,0.0,0.0,0.0,0.0,0.0,0.0,0.0,0.0,0.0,0.0,0.0,0.0,0.0,0.0,0.0,0.0,0.0,0.0,0.0,0.0,0.0,0.0,0.0,0.0,0.0,0.0,0.0,0.0,0.0,0.0,0.0,0.0,0.0,0.0,0.0,0.0,0.0,0.0,0.5922,0.5491,0.562,0.0,0.4692,0.0,0.0,0.0,0.0,0.0,0.0,0.0,0.0,0.0,0.0,0.0,0.0,0.0,0.0,0.0,0.0,0.0,0.0,0.0,0.0,0.0,0.0,0.0,0.0,0.0,0.0,0.0,0.0,0.0,0.0,0.0,0.0,0.0,0.0,0.0,0.0,0.0,0.0,0.0,0.0,0.0,0.0,0.0,0.0,0.0,0.0,0.0,0.0,0.0,0.0,0.0,0.0,0.0,0.0,0.0,0.0,0.0,0.0,0.0,0.0,0.0,0.0,0.0,0.0,0.0,0.0,0.0,0.0,0.0,0.0,0.0,0.0,0.0,0.0,0.0,0.0,0.0,0.0,0.0,0.0,0.0,0.0,0.0,0.0,0.0,0.0,0.0,0.0,0.0,0.0,0.0,0.0,0.0,0.0,0.0,0.0,0.0,0.0,0.0,0.0,0.0,0.0,0.0,0.0,0.0,0.0,0.0,0.0,0.0,0.0,0.619,0.5922,0.5836,0.5508,0.0,0.0,0.0,0.0,0.0,0.0,0.0,0.0,0.0,0.0,0.0,0.0,0.0,0.0,0.0,0.0,0.0,0.0,0.0,0.0,0.0,0.0,0.0,0.0,0.0,0.0,0.0,0.0,0.0,0.0,0.0,0.0,0.0,0.0,0.0,0.0,0.0,0.0,0.0,0.0,0.0,0.0,0.0,0.0,0.0,0.0,0.0,0.0,0.0,0.0,0.0,0.0,0.0,0.0,0.0,0.0,0.0,0.0,0.0,0.0,0.0,0.0,0.0,0.0,0.0,0.0,0.0,0.0,0.0,0.0,0.0,0.0,0.0,0.0,0.0,0.0,0.0,0.0,0.0,0.0,0.0,0.0,0.0,0.0,0.0,0.0,0.0,0.0,0.0,0.0,0.0,0.0,0.0,0.0,0.0,0.0,0.0,0.0,0.0,0.0,0.0,0.0,0.0,0.0,0.0,0.0,0.0,0.0,0.0,0.0,0.6617,0.6575,0.6435,0.6136,0.5843,0.5504,0.0,0.0,0.0,0.0,0.0,0.0,0.0,0.0,0.0,0.0,0.0,0.0,0.0,0.0,0.0,0.0,0.0,0.0,0.0,0.0,0.0,0.0,0.0,0.0,0.0,0.0,0.0,0.0,0.0,0.0,0.0,0.0,0.0,0.0,0.0,0.0,0.0,0.0,0.0,0.0,0.0,0.0,0.0,0.0,0.0,0.0,0.0,0.0,0.0,0.0,0.0,0.0,0.0,0.0,0.0,0.0,0.0,0.0,0.0,0.0,0.0,0.0,0.0,0.0,0.0,0.0,0.0,0.0,0.0,0.0,0.0,0.0,0.0,0.0,0.0,0.0,0.0,0.0,0.0,0.0,0.0,0.0,0.0,0.0,0.0,0.0,0.0,0.0,0.0,0.0,0.0,0.0,0.0,0.0,0.0,0.0,0.0,0.0,0.0,0.0,0.0,0.0,0.0,0.0,0.0,0.0,0.0,0.0,0.6683,0.7112,0.7202,0.6979,0.6647,0.6392,0.0,0.0,0.0,0.0,0.0,0.0,0.0,0.0,0.0,0.0,0.0,0.0,0.0,0.0,0.0,0.0,0.0,0.0,0.0,0.0,0.0,0.0,0.0,0.0,0.0,0.0,0.0,0.0,0.0,0.0,0.0,0.0,0.0,0.0,0.0,0.0,0.0,0.0,0.0,0.0,0.0,0.0,0.0,0.0,0.0,0.0,0.0,0.0,0.0,0.0,0.0,0.0,0.0,0.0,0.0,0.0,0.0,0.0,0.0,0.0,0.0,0.0,0.0,0.0,0.0,0.0,0.0,0.0,0.0,0.0,0.0,0.0,0.0,0.0,0.0,0.0,0.0,0.0,0.0,0.0,0.0,0.0,0.0,0.0,0.0,0.0,0.0,0.0,0.0,0.0,0.0,0.0,0.0,0.0,0.0,0.0,0.0,0.0,0.0,0.0,0.0,0.0,0.0,0.0,0.0,0.0,0.0,0.0,0.0,0.7523,0.7663,0.7579,0.7314,0.707,0.6872,0.0,0.0,0.0,0.0,0.0,0.0,0.0,0.0,0.0,0.0,0.0,0.0,0.0,0.0,0.0,0.0,0.0,0.0,0.0,0.0,0.0,0.0,0.0,0.0,0.0,0.0,0.0,0.0,0.0,0.0,0.0,0.0,0.0,0.0,0.0,0.0,0.0,0.0,0.0,0.0,0.0,0.0,0.0,0.0,0.0,0.0,0.0,0.0,0.0,0.0,0.0,0.0,0.0,0.0,0.0,0.0,0.0,0.0,0.0,0.0,0.0,0.0,0.0,0.0,0.0,0.0,0.0,0.0,0.0,0.0,0.0,0.0,0.0,0.0,0.0,0.0,0.0,0.0,0.0,0.0,0.0,0.0,0.0,0.0,0.0,0.0,0.0,0.0,0.0,0.0,0.0,0.0,0.0,0.0,0.0,0.0,0.0,0.0,0.0,0.0,0.0,0.0,0.0,0.0,0.0,0.0,0.0,0.0,0.0,0.8308,0.0,0.7995,0.7814,0.7479,0.7189,0.0,0.0,0.0,0.0,0.0,0.0,0.0,0.0,0.0,0.0,0.0,0.0,0.0,0.0,0.0,0.0,0.0,0.0,0.0,0.0,0.0,0.0,0.0,0.0,0.0,0.0,0.0,0.0,0.0,0.0,0.0,0.0,0.0,0.0,0.0,0.0,0.0,0.0,0.0,0.0,0.0,0.0,0.0,0.0,0.0,0.0,0.0,0.0,0.0,0.0,0.0,0.0,0.0,0.0,0.0,0.0,0.0,0.0,0.0,0.0,0.0,0.0,0.0,0.0,0.0,0.0,0.0,0.0,0.0,0.0,0.0,0.0,0.0,0.0,0.0,0.0,0.0,0.0,0.0,0.0,0.0,0.0,0.0,0.0,0.0,0.0,0.0,0.0,0.0,0.0,0.0,0.0,0.0,0.0,0.0,0.0,0.0,0.0,0.0,0.0,0.0,0.0,0.0,0.0,0.0,0.0,0.0,0.0,0.8504,0.8975,0.8618,0.8439,0.8456,0.7787,0.7346,0.0,0.0,0.0,0.0,0.0,0.0,0.0,0.0,0.0,0.0,0.0,0.0,0.0,0.0,0.0,0.0,0.0,0.0,0.0,0.0,0.0,0.0,0.0,0.0,0.0,0.0,0.0,0.0,0.0,0.0,0.0,0.0,0.0,0.0,0.0,0.0,0.0,0.0,0.0,0.0,0.0,0.0,0.0,0.0,0.0,0.0,0.0,0.0,0.0,0.0,0.0,0.0,0.0,0.0,0.0,0.0,0.0,0.0,0.0,0.0,0.0,0.0,0.0,0.0,0.0,0.0,0.0,0.0,0.0,0.0,0.0,0.0,0.0,0.0,0.0,0.0,0.0,0.0,0.0,0.0,0.0,0.0,0.0,0.0,0.0,0.0,0.0,0.0,0.0,0.0,0.0,0.0,0.0,0.0,0.0,0.0,0.0,0.0,0.0,0.0,0.0,0.0,0.0,0.0,0.0,0.0,0.0,0.0,0.0,0.9536,0.9328,0.8989,0.8467,0.8012,0.7425,0.0,0.0,0.0,0.0,0.0,0.0,0.0,0.0,0.0,0.0,0.0,0.0,0.0,0.0,0.0,0.0,0.0,0.0,0.0,0.0,0.0,0.0,0.0,0.0,0.0,0.0,0.0,0.0,0.0,0.0,0.0,0.0,0.0,0.0,0.0,0.0,0.0,0.0,0.0,0.0,0.0,0.0,0.0,0.0,0.0,0.0,0.0,0.0,0.0,0.0,0.0,0.0,0.0,0.0,0.0,0.0,0.0,0.0,0.0,0.0,0.0,0.0,0.0,0.0,0.0,0.0,0.0,0.0,0.0,0.0,0.0,0.0,0.0,0.0,0.0,0.0,0.0,0.0,0.0,0.0,0.0,0.0,0.0,0.0,0.0,0.0,0.0,0.0,0.0,0.0,0.0,0.0,0.0,0.0,0.0,0.0,0.0,0.0,0.0,0.0,0.0,0.0,0.0,0.0,0.0,0.0,0.0,0.0,0.0,1.0629,0.9887,0.9373,0.9082,0.7986,0.7193,0.6673,0.0,0.0,0.0,0.0,0.0,0.0,0.0,0.0,0.0,0.0,0.0,0.0,0.0,0.0,0.0,0.0,0.0,0.0,0.0,0.0,0.0,0.0,0.0,0.0,0.0,0.0,0.0,0.0,0.0,0.0,0.0,0.0,0.0,0.0,0.0,0.0,0.0,0.0,0.0,0.0,0.0,0.0,0.0,0.0,0.0,0.0,0.0,0.0,0.0,0.0,0.0,0.0,0.0,0.0,0.0,0.0,0.0,0.0,0.0,0.0,0.0,0.0,0.0,0.0,0.0,0.0,0.0,0.0,0.0,0.0,0.0,0.0,0.0,0.0,0.0,0.0,0.0,0.0,0.0,0.0,0.0,0.0,0.0,0.0,0.0,0.0,0.0,0.0,0.0,0.0,0.0,0.0,0.0,0.0,0.0,0.0,0.0,0.0,0.0,0.0,0.0,0.0,0.0,0.0,0.0,0.0,0.0,0.0,1.2113,1.0355,0.9645,1.0002,0.783,0.6704,0.0,0.0,0.0,0.0,0.0,0.0,0.0,0.0,0.0,0.0,0.0,0.0,0.0,0.0,0.0,0.0,0.0,0.0,0.0,0.0,0.0,0.0,0.0,0.0,0.0,0.0,0.0,0.0,0.0,0.0,0.0,0.0,0.0,0.0,0.0,0.0,0.0,0.0,0.0,0.0,0.0,0.0,0.0,0.0,0.0,0.0,0.0,0.0,0.0,0.0,0.0,0.0,0.0,0.0,0.0,0.0,0.0,0.0,0.0,0.0,0.0,0.0,0.0,0.0,0.0,0.0,0.0,0.0,0.0,0.0,0.0,0.0,0.0,0.0,0.0,0.0,0.0,0.0,0.0,0.0,0.0,0.0,0.0,0.0,0.0,0.0,0.0,0.0,0.0,0.0,0.0,0.0,0.0,0.0,0.0,0.0,0.0,0.0,0.0,0.0,0.0,0.0,0.0,0.0,0.0,0.0,0.0,0.0,0.0,1.3386,1.1242,0.9619,0.8743,0.7733,0.6699,0.0,0.0,0.0,0.0,0.0,0.0,0.0,0.0,0.0,0.0,0.0,0.0,0.0,0.0,0.0,0.0,0.0,0.0,0.0,0.0,0.0,0.0,0.0,0.0,0.0,0.0,0.0,0.0,0.0,0.0,0.0,0.0,0.0,0.0,0.0,0.0,0.0,0.0,0.0,0.0,0.0,0.0,0.0,0.0,0.0,0.0,0.0,0.0,0.0,0.0,0.0,0.0,0.0,0.0,0.0,0.0,0.0,0.0,0.0,0.0,0.0,0.0,0.0,0.0,0.0,0.0,0.0,0.0,0.0,0.0,0.0,0.0,0.0,0.0,0.0,0.0,0.0,0.0,0.0,0.0,0.0,0.0,0.0,0.0,0.0,0.0,0.0,0.0,0.0,0.0,0.0,0.0,0.0,0.0,0.0,0.0,0.0,0.0,0.0,0.0,0.0,0.0,0.0,0.0,0.0,0.0,0.0,0.0,1.3874,1.3914,1.205,1.0176,0.8359,0.7385,0.6456,0.0,0.0,0.0,0.0,0.0,0.0,0.0,0.0,0.0,0.0,0.0,0.0,0.0,0.0,0.0,0.0,0.0,0.0,0.0,0.0,0.0,0.0,0.0,0.0,0.0,0.0,0.0,0.0,0.0,0.0,0.0,0.0,0.0,0.0,0.0,0.0,0.0,0.0,0.0,0.0,0.0,0.0,0.0,0.0,0.0,0.0,0.0,0.0,0.0,0.0,0.0,0.0,0.0,0.0,0.0,0.0,0.0,0.0,0.0,0.0,0.0,0.0,0.0,0.0,0.0,0.0,0.0,0.0,0.0,0.0,0.0,0.0,0.0,0.0,0.0,0.0,0.0,0.0,0.0,0.0,0.0,0.0,0.0,0.0,0.0,0.0,0.0,0.0,0.0,0.0,0.0,0.0,0.0,0.0,0.0,0.0,0.0,0.0,0.0,0.0,0.0,0.0,0.0,0.0,0.0,0.0,0.0,0.0,1.4508,1.4113,1.2758,1.0908,0.8588,0.7099,0.6207,0.0,0.0,0.0,0.0,0.0,0.0,0.0,0.0,0.0,0.0,0.0,0.0,0.0,0.0,0.0,0.0,0.0,0.0,0.0,0.0,0.0,0.0,0.0,0.0,0.0,0.0,0.0,0.0,0.0,0.0,0.0,0.0,0.0,0.0,0.0,0.0,0.0,0.0,0.0,0.0,0.0,0.0,0.0,0.0,0.0,0.0,0.0,0.0,0.0,0.0,0.0,0.0,0.0,0.0,0.0,0.0,0.0,0.0,0.0,0.0,0.0,0.0,0.0,0.0,0.0,0.0,0.0,0.0,0.0,0.0,0.0,0.0,0.0,0.0,0.0,0.0,0.0,0.0,0.0,0.0,0.0,0.0,0.0,0.0,0.0,0.0,0.0,0.0,0.0,0.0,0.0,0.0,0.0,0.0,0.0,0.0,0.0,0.0,0.0,0.0,0.0,0.0,0.0,0.0,0.0,0.0,0.0,0.0,1.4797,1.5268,1.301,1.0754,0.8568,0.79,0.6775,0.0,0.0,0.0,0.0,0.0,0.0,0.0,0.0,0.0,0.0,0.0,0.0,0.0,0.0,0.0,0.0,0.0,0.0,0.0,0.0,0.0,0.0,0.0,0.0,0.0,0.0,0.0,0.0,0.0,0.0,0.0,0.0,0.0,0.0,0.0,0.0,0.0,0.0,0.0,0.0,0.0,0.0,0.0,0.0,0.0,0.0,0.0,0.0,-0.2551,0.0,0.0,0.0,0.0,0.0,0.0,0.0,0.0,0.0,0.0,0.0,0.0,0.0,0.0,0.0,0.0,0.0,0.0,0.0,0.0,0.0,0.0,0.0,0.0,0.0,0.0,0.0,0.0,0.0,0.0,0.0,0.0,0.0,0.0,0.0,0.0,0.0,0.0,0.0,0.0,0.0,0.0,0.0,0.0,0.0,0.0,0.0,0.0,0.0,0.0,0.0,0.0,0.0,0.0,0.0,0.0,0.0,0.0,0.0,1.5208,1.553,1.2935,1.0475,0.8389,0.7232,0.6056,0.0,0.0,0.0,0.0,0.0,0.0,0.0,0.0,0.0,0.0,0.0,0.0,0.0,0.0,0.0,0.0,0.0,0.0,0.0,0.0,0.0,0.0,0.0,0.0,0.0,0.0,0.0,0.0,0.0,0.0,0.0,0.0,0.0,0.0,0.0,0.0,0.0,0.0,0.0,0.0,0.0,0.0,0.0,0.0,0.0,0.0,0.0,0.0,0.0,0.0,0.0,0.0,0.0,0.0,0.0,0.0,0.0,0.0,0.0,0.0,0.0,0.0,0.0,0.0,0.0,0.0,0.0,0.0,0.0,0.0,0.0,0.0,0.0,0.0,0.0,0.0,0.0,0.0,0.0,0.0,0.0,0.0,0.0,0.0,0.0,0.0,0.0,0.0,0.0,0.0,0.0,0.0,0.0,0.0,0.0,0.0,0.0,0.0,0.0,0.0,0.0,0.0,0.0,0.0,0.0,0.0,0.0,1.5541,1.5723,1.5696,1.2898,1.0262,0.8082,0.6385,0.5083,0.4283,0.0,0.0,0.0,0.0,0.0,0.0,0.0,0.0,0.0,0.0,0.0,0.0,0.0,0.0,0.0,0.0,0.0,0.0,0.0,0.0,0.0,0.0,0.0,0.0,0.0,0.0,0.0,0.0,0.0,0.0,0.0,0.0,0.0,0.0,0.0,0.0,0.0,0.0,-0.1757,-0.2747,0.0,0.0,0.0,0.0,0.0,0.0,0.0,0.0,-0.5994,0.0,0.0,0.0,0.0,0.0,0.0,0.0,0.0,0.0,0.0,0.0,0.0,0.0,0.0,0.0,0.0,0.0,0.0,0.0,0.0,0.0,0.0,0.0,0.0,0.0,0.0,0.0,0.0,0.0,0.0,0.0,0.0,0.0,0.0,0.0,0.0,0.0,0.0,0.0,0.0,0.0,0.0,0.0,0.0,0.0,0.0,0.0,0.0,0.0,0.0,0.0,0.0,0.0,0.0,0.0,0.0,1.6243,1.5983,1.63,1.7183,1.347,1.0278,0.786,0.6826,0.5263,0.3164,0.0,0.0,0.0,0.0,0.0,0.0,0.0,0.0,0.0,0.0,0.0,0.0,0.0,0.0,0.0,0.0,0.0,0.0,0.0,0.0,0.0,0.0,0.0,0.0,0.0,0.0,0.0,0.0,0.0,0.0,0.0,0.0,0.0,0.0,0.0,0.0,0.0,0.0,0.0,-0.0945,-0.1882,0.0,0.0,0.0,0.0,0.0,0.0,0.0,0.0,-0.7709,0.0,0.0,0.0,0.0,0.0,0.0,0.0,0.0,0.0,0.0,0.0,0.0,0.0,0.0,0.0,0.0,0.0,0.0,0.0,0.0,0.0,0.0,0.0,0.0,0.0,0.0,0.0,0.0,0.0,0.0,0.0,0.0,0.0,0.0,0.0,0.0,0.0,0.0,0.0,0.0,0.0,0.0,0.0,0.0,0.0,0.0,0.0,0.0,0.0,0.0,0.0,0.0,0.0,0.0,0.0,1.6452,1.6533,1.6954,1.7704,1.2583,0.9063,0.7573,0.5296,0.3374,0.0,0.0,0.0,0.0,0.0,0.0,0.0,0.0,0.0,0.0,0.0,0.0,0.0,0.0,0.0,0.0,0.0,0.0,0.0,0.0,0.0,0.0,0.0,0.0,0.0,0.0,0.0,0.0,0.0,0.0,0.0,0.0,0.0,0.0,0.0,0.0,0.0,0.0,0.0,0.0,-0.1205,-0.2928,-0.5222,0.0,0.0,0.0,0.0,0.0,0.0,-0.9826,-0.9846,0.0,0.0,0.0,0.0,0.0,0.0,0.0,0.0,0.0,0.0,0.0,0.0,0.0,0.0,0.0,0.0,0.0,0.0,0.0,0.0,0.0,0.0,0.0,0.0,0.0,0.0,0.0,0.0,0.0,0.0,0.0,0.0,0.0,0.0,0.0,0.0,0.0,0.0,0.0,0.0,0.0,0.0,0.0,0.0,0.0,0.0,0.0,0.0,0.0,0.0,0.0,0.0,0.0,0.0,0.0,1.6564,1.7079,1.7712,1.8208,1.1778,0.7997,0.7564,0.4105,0.1814,0.0,0.0,0.0,0.0,0.0,0.0,0.0,0.0,0.0,0.0,0.0,0.0,0.0,0.0,0.0,0.0,0.0,0.0,0.0,0.0,0.0,0.0,0.0,0.0,0.0,0.0,0.0,0.0,0.0,0.0,0.0,0.0,0.0,0.0,0.0,0.0,0.0,0.0,0.0,0.0,0.0,-0.413,-0.8625,-1.0116,0.0,0.0,0.0,0.0,-1.1009,-1.1581,0.0,0.0,0.0,0.0,0.0,0.0,0.0,0.0,0.0,0.0,0.0,0.0,0.0,0.0,0.0,0.0,0.0,0.0,0.0,0.0,0.0,0.0,0.0,0.0,0.0,0.0,0.0,0.0,0.0,0.0,0.0,0.0,0.0,0.0,0.0,0.0,0.0,0.0,0.0,0.0,0.0,0.0,0.0,0.0,0.0,0.0,0.0,0.0,0.0,0.0,0.0,0.0,0.0,0.0,0.0,0.0,1.6586,1.7654,1.8605,1.9154,1.2121,0.8258,0.8339,0.5232,0.2492,0.0,0.0,0.0,0.0,0.0,0.0,0.0,0.0,0.0,0.0,0.0,0.0,0.0,0.0,0.0,0.0,0.0,0.0,0.0,0.0,0.0,0.0,0.0,0.0,0.0,0.0,0.0,0.0,0.0,0.0,0.0,0.0,0.0,0.0,0.0,0.0,0.0,0.0,0.0,0.0,0.0,-0.4039,-0.9477,-1.1768,-1.2985,0.0,0.0,-1.269,-1.2979,-1.3128,0.0,0.0,0.0,0.0,0.0,0.0,0.0,0.0,0.0,0.0,0.0,0.0,0.0,0.0,0.0,0.0,0.0,0.0,0.0,0.0,0.0,0.0,0.0,0.0,0.0,0.0,0.0,0.0,0.0,0.0,0.0,0.0,0.0,0.0,0.0,0.0,0.0,0.0,0.0,0.0,0.0,0.0,0.0,0.0,0.0,0.0,0.0,0.0,0.0,0.0,0.0,0.0,0.0,0.0,0.0,1.5627,1.6809,1.7949,1.9075,1.9943,1.1787,0.7487,0.7903,0.3281,0.0288,0.0,0.0,0.0,0.0,0.0,0.0,0.0,0.0,0.0,0.0,0.0,0.0,0.0,0.0,0.0,0.0,0.0,0.0,0.0,0.0,0.0,0.0,0.0,0.0,0.0,0.0,0.0,0.0,0.0,0.0,0.0,0.0,0.0,0.0,0.0,0.0,0.0,0.0,0.0,0.0,0.0,0.0,-1.1891,-1.3695,0.0,0.0,0.0,-1.426,-1.4288,0.0,0.0,0.0,0.0,0.0,0.0,0.0,0.0,0.0,0.0,0.0,0.0,0.0,0.0,0.0,0.0,0.0,0.0,0.0,0.0,0.0,0.0,0.0,0.0,0.0,0.0,0.0,0.0,0.0,0.0,0.0,0.0,0.0,0.0,0.0,0.0,0.0,0.0,0.0,0.0,0.0,0.0,0.0,0.0,0.0,0.0,0.0,0.0,0.0,0.0,0.0,0.0,0.0,0.0,0.0,0.0,0.0,1.7035,1.8223,1.8838,1.8612,1.0731,0.6167,0.5609,0.0658,0.0,0.0,0.0,0.0,0.0,0.0,0.0,0.0,0.0,0.0,0.0,0.0,0.0,0.0,0.0,0.0,0.0,0.0,0.0,0.0,0.0,0.0,0.0,0.0,0.0,0.0,0.0,1.3671,0.0,0.0,0.0,0.0,0.0,0.0,0.0,0.0,0.0,0.0,0.0,0.0,0.0,0.0,-0.4094,-1.3686,-1.4968,-1.4968,0.0,0.0,-1.5492,-1.5742,-1.5931,-1.5996,0.0,0.0,0.0,0.0,0.0,0.0,0.0,0.0,0.0,0.0,0.0,0.0,0.0,0.0,0.0,0.0,0.0,0.0,0.0,0.0,0.0,0.0,0.0,0.0,0.0,0.0,0.0,0.0,0.0,0.0,0.0,0.0,0.0,0.0,0.0,0.0,0.0,0.0,0.0,0.0,0.0,0.0,0.0,0.0,0.0,0.0,0.0,0.0,0.0,0.0,0.0,0.0,0.0,0.0,0.0,1.7257,1.8528,1.7452,1.3853,0.8677,0.4306,0.0846,-0.1988,-0.3946,0.0,0.0,0.0,0.0,0.0,0.0,0.0,0.0,0.0,0.0,0.0,0.0,0.0,0.0,0.0,0.0,0.0,0.0,0.0,0.0,0.0,0.0,0.0,0.0,0.0,0.0,0.0,0.0,0.0,0.0,0.0,0.0,0.0,0.0,0.0,0.0,0.0,0.0,0.0,0.0,0.0,-0.4451,-1.3703,-1.5102,-1.5225,0.0,0.0,-1.614,-1.7754,-1.707,-1.6655,-1.7488,0.0,0.0,0.0,0.0,0.0,0.0,0.0,0.0,0.0,0.0,0.0,0.0,0.0,0.0,0.0,0.0,0.0,0.0,0.0,0.0,0.0,0.0,0.0,0.0,0.0,0.0,0.0,0.0,0.0,0.0,0.0,0.0,0.0,0.0,0.0,0.0,0.0,0.0,0.0,0.0,0.0,0.0,0.0,0.0,0.0,0.0,0.0,0.0,0.0,0.0,0.0,0.0,0.0,1.5966,1.754,1.8609,1.7445,1.3875,0.9079,0.4422,-0.0046,-0.359,-0.4253,0.0,0.0,0.0,0.0,0.0,0.0,0.0,0.0,0.0,0.0,0.0,0.0,0.0,0.0,0.0,0.0,0.0,0.0,0.0,0.0,0.0,0.0,0.0,0.0,0.0,0.0,0.0,0.0,1.4834,1.2286,0.8199,0.0,0.0,0.0,0.0,0.0,0.0,0.0,0.0,0.0,0.0,-0.428,-1.3781,-1.5535,0.0,0.0,-1.5807,-1.644,-1.7697,-1.7262,-1.7003,-1.7764,-1.7038,0.0,0.0,0.0,0.0,0.0,0.0,0.0,0.0,0.0,0.0,0.0,0.0,0.0,0.0,0.0,0.0,0.0,0.0,0.0,0.0,0.0,0.0,0.0,0.0,0.0,0.0,0.0,0.0,0.0,0.0,0.0,0.0,0.0,0.0,0.0,0.0,0.0,0.0,0.0,0.0,0.0,0.0,0.0,0.0,0.0,0.0,0.0,0.0,0.0,0.0,0.0,0.0,1.6241,1.7832,1.8951,1.698,1.1841,0.8606,0.3806,-0.2642,-0.5802,-0.575,0.0,0.0,0.0,0.0,0.0,0.0,0.0,0.0,0.0,0.0,0.0,0.0,0.0,0.0,0.0,0.0,0.0,0.0,0.0,0.0,0.0,0.0,0.0,0.0,0.0,0.0,0.0,0.0,1.6732,1.4218,0.7439,0.0,0.0,0.0,0.0,0.0,0.0,0.0,0.0,0.0,0.0,-0.4985,-1.3778,-1.5599,-1.6062,-1.6038,-1.647,-1.7231,-1.846,-1.8051,-1.7748,-1.8308,0.0,0.0,0.0,0.0,0.0,0.0,0.0,0.0,0.0,0.0,0.0,0.0,0.0,0.0,0.0,0.0,0.0,0.0,0.0,0.0,0.0,0.0,0.0,0.0,0.0,0.0,0.0,0.0,0.0,0.0,0.5591,0.0,0.0,0.0,0.0,0.0,0.0,0.0,0.0,0.0,0.0,0.0,0.0,0.0,0.0,0.0,0.0,0.0,0.0,0.0,0.0,0.0,0.0,1.7044,1.8207,1.9696,1.5862,0.6665,0.6628,0.1978,-0.804,-0.893,-0.9011,-0.8749,0.0,0.0,0.0,0.0,0.0,0.0,0.0,0.0,0.0,0.0,0.0,0.0,0.0,0.0,0.0,0.0,0.0,0.0,0.0,0.0,0.0,0.0,0.0,0.0,0.0,0.0,1.6886,1.6703,1.2983,0.0,0.0,0.0,0.0,0.0,0.0,0.0,0.0,0.0,0.0,-0.361,-0.691,-1.3732,-1.5291,-1.6071,-1.6936,-1.7503,-1.8547,-2.0461,-1.9691,-1.8993,0.0,0.0,0.0,0.0,0.0,0.0,0.0,0.0,0.0,0.0,0.0,0.0,0.0,0.0,0.0,0.0,0.0,0.0,0.0,0.0,0.0,0.0,0.0,0.0,0.0,0.0,0.0,0.7426,0.6898,0.0,0.0,0.0,0.0,0.0,0.0,0.0,0.0,0.0,0.0,0.0,1.0166,1.0452,0.0,0.0,0.0,0.0,0.0,0.0,0.0,0.0,0.0,0.0,0.0,0.0,1.776,1.9231,2.0348,1.623,0.6929,0.6929,0.1989,-0.8606,-0.9004,-0.9065,-0.899,0.0,0.0,0.0,0.0,0.0,0.0,0.0,0.0,0.0,0.0,0.0,0.0,0.0,0.0,0.0,0.0,0.0,0.0,0.0,0.0,0.0,0.0,0.0,0.0,0.0,1.8674,0.0,0.0,0.0,0.0,0.0,0.0,0.0,0.0,0.0,0.0,0.0,1.2579,0.1312,-0.2476,-0.6939,-1.445,-1.6224,-1.6937,0.0,0.0,0.0,0.0,0.0,0.0,0.0,0.0,0.0,0.0,0.0,0.0,0.0,0.0,-1.8254,-1.7255,-1.7896,-1.8484,-1.8266,0.0,0.0,0.0,0.0,0.0,0.0,0.0,0.0,0.0,0.0,0.0,0.0,0.0,0.0,0.8616,0.0,0.8202,0.0,0.0,0.0,0.0,0.0,0.0,0.0,0.0,1.106,1.1615,1.2253,1.2455,1.3068,0.0,1.4262,1.4347,0.0,0.0,0.0,0.0,0.0,0.0,0.0,0.0,1.8651,2.0021,2.1122,1.6847,0.7241,0.7058,0.2025,-0.8684,-0.9113,-0.9275,-0.9572,-0.7007,-0.6793,0.0,0.0,0.0,0.0,0.0,0.0,0.0,0.0,0.0,0.0,0.0,0.0,0.0,0.0,0.0,0.0,0.0,0.0,0.0,0.0,0.0,0.0,0.0,1.952,0.0,0.0,0.0,0.0,0.0,0.0,0.0,0.0,0.0,1.911,1.8408,1.4042,0.3338,-0.1569,-0.697,-1.4774,0.0,0.0,0.0,0.0,0.0,0.0,0.0,-1.9468,-2.0042,-1.9868,-2.0094,-2.1434,-2.1441,-2.1228,-2.1049,0.0,0.0,-1.9339,-1.981,-2.0319,-1.9945,-2.004,-1.9931,-1.9208,-1.8758,-1.8257,0.0,0.0,0.0,0.0,0.0,0.0,0.0,0.0,1.1153,1.0009,0.0,0.9949,0.0,0.0,0.0,0.0,0.0,0.9995,0.0,0.0,1.3118,1.3667,1.462,1.5161,1.5501,1.5546,1.5887,1.62,1.6448,1.6227,0.0,0.0,0.0,0.0,0.0,0.0,1.9661,2.0586,2.2053,1.7607,0.7325,0.7119,0.1924,-0.8923,-0.942,-0.9829,-1.06,-0.9922,-0.9946,-1.0654,-0.9846,0.0,0.0,0.0,0.0,0.0,0.0,0.0,0.0,0.0,0.0,0.0,0.0,0.0,0.0,0.0,0.0,0.0,0.0,0.0,0.0,1.9308,0.0,0.0,0.0,0.0,0.0,0.0,0.0,0.0,0.0,0.0,2.0487,1.9751,1.5355,0.4815,0.0,0.0,0.0,0.0,-1.8029,-1.8411,-1.8836,-1.9258,-1.9737,-2.0227,-2.0542,-2.0456,0.0,0.0,-2.3431,-2.311,-2.2556,-2.2363,-2.2659,-2.2582,-2.1238,-2.1141,-2.1266,-2.1121,-2.1081,-2.1098,-2.113,-2.0871,-2.0548,1.5413,0.0,0.0,0.0,0.0,1.36,1.3261,1.3044,1.2507,1.1589,1.0483,1.0446,0.0,0.0,0.0,0.0,0.0,0.0,1.2852,1.3306,1.4373,1.5086,1.5469,1.5483,1.5693,1.6059,1.608,1.6766,1.8003,1.8153,1.7996,1.7636,0.0,0.0,0.0,0.0,2.0938,2.1847,2.2513,1.9532,1.2694,0.8657,0.1274,-0.9761,-1.0051,-1.0205,-1.0514,-1.0519,-1.0648,-1.0833,-1.0655,0.0,0.0,0.0,0.0,0.0,0.0,0.0,0.0,0.0,0.0,0.0,0.0,0.0,0.0,0.0,0.0,0.0,0.0,0.0,2.0164,2.08,2.1259,0.0,0.0,0.0,0.0,0.0,0.0,0.0,0.0,0.0,2.2744,2.1622,1.6344,0.0,0.0,-0.7321,-1.534,-1.7259,-1.8016,-1.8288,-1.8817,0.0,-1.9838,-2.0227,-2.0599,-2.0955,-2.1664,-2.2331,-2.2868,-2.3151,-2.3277,-2.3177,-2.3318,-2.331,-2.2952,-2.2775,-2.2702,-2.2608,-2.247,-2.2363,-2.2357,-2.1997,-2.1642,1.611,1.4674,1.45,1.4701,1.5109,1.483,1.4566,1.4264,1.3739,1.2848,1.1719,1.1544,1.0959,1.01,1.0761,0.0,0.0,0.0,1.4284,1.4813,1.5661,1.6311,1.6718,1.6499,1.6529,1.6824,1.7014,1.7688,1.8773,1.9532,1.986,1.9794,0.0,0.0,2.1165,2.1687,2.2143,2.2496,2.1076,1.7501,1.1662,0.3863,-0.3401,-0.9761,-1.0051,-1.0146,-1.047,-1.0667,-1.0872,-1.1146,-1.1133,-1.1028,0.0,0.0,0.0,0.0,0.0,0.0,0.0,0.0,0.0,0.0,0.0,0.5143,0.6615,0.0,0.0,0.0,1.9185,2.0179,2.1345,2.1776,0.0,0.0,0.0,0.0,0.0,0.0,0.0,2.3593,2.4144,2.4247,2.369,2.0781,1.5417,0.655,-0.118,-0.8625,-1.5738,0.0,-1.8167,-1.8145,-1.8674,-1.9244,-1.9728,-2.0174,-2.0745,-2.146,-2.2102,-2.2608,-2.2712,-2.3063,-2.3277,-2.3289,-2.3253,-2.33,-2.3323,-2.3242,-2.3223,-2.3212,-2.3133,-2.3035,-2.2972,-2.2785,-2.265,1.7245,1.6305,1.5875,1.6146,1.6781,1.6144,1.5921,1.5884,1.4855,1.3841,1.2893,1.299,1.2186,1.0849,1.1593,0.0,1.3515,1.4187,1.5437,1.7084,1.6894,1.7301,1.8134,1.7861,1.7721,1.7736,1.8325,1.879,1.9209,2.0509,2.1544,2.2256,2.1523,2.1397,2.1949,2.2758,2.3112,2.2888,1.8495,1.2805,0.5745,-0.4207,-0.9582,-0.9896,-0.9688,-0.988,-1.0411,-1.0462,-1.0769,-1.141,-1.1389,-1.1517,-1.1846,0.0,0.0,0.0,0.0,0.0,0.0,0.0,0.0,0.0,0.0,0.0,0.0,0.0,0.0,0.0,2.0856,0.0,2.244,2.2479,0.0,0.0,0.0,2.2392,2.4342,2.3658,2.3351,2.4208,0.0,0.0,2.3904,1.7938,1.2209,0.8286,-0.1575,-1.0427,-1.5936,-1.7715,-1.834,-1.7961,-1.8444,-1.8997,-1.9515,-2.0189,-2.091,-2.1728,-2.2214,-2.2476,-2.2652,-2.2712,-2.2746,-2.2797,-2.2754,-2.2746,-2.2822,-2.2807,-2.29,-2.3069,-2.3105,-2.3098,-2.3021,-2.317,-2.3204,1.8197,1.8399,1.7712,1.7075,1.6522,1.6497,1.6245,1.5829,1.5429,1.4655,1.3637,1.3293,1.3206,1.3365,1.432,1.4907,1.5257,1.6052,1.6641,1.7038,1.7532,1.7906,1.8113,1.8005,1.8189,1.8653,1.8768,1.959,2.1025,2.1527,2.2212,2.3003,2.3034,2.3056,2.3066,2.2517,2.2617,2.333,1.7468,0.9607,-0.0045,-0.2651,-0.6005,-1.044,-0.9956,-0.9666,-0.9829,-0.9999,-1.0411,-1.1015,-1.139,-1.1704,-1.1874,-1.1417,0.0,0.0,0.0,0.0,0.0,0.0,0.0,0.0,0.0,0.6452,1.0676,0.0,1.9644,0.0,2.1263,2.2846,2.4074,2.3925,0.0,0.0,2.3307,2.344,2.3416,2.387,2.4412,2.4984,2.5617,2.5919,2.5618,1.4655,0.2786,-0.7769,-0.8193,-0.97,-1.5805,-1.7345,-1.7814,-1.7932,-1.8366,-1.8974,-1.975,-2.0357,-2.0925,-2.1402,-2.1675,-2.177,-2.1699,-2.191,-2.2029,-2.2108,-2.2034,-2.2017,-2.2175,-2.2265,-2.2192,-2.2017,-2.2269,-2.2608,-2.2643,-2.2652,-2.2609,1.925,1.9209,1.88,1.82,1.7541,1.7377,1.7115,1.6735,1.6297,1.5652,1.4898,1.447,1.4456,1.4777,1.5714,1.6132,1.6217,1.6959,1.7301,1.7288,1.7727,1.8146,1.8572,1.8572,1.8967,1.9711,2.0102,2.083,2.1861,2.2445,2.3039,2.361,2.3798,2.3819,2.3696,2.2972,2.267,2.2705,1.4525,0.5024,-0.5408,-0.5848,-0.7331,-1.023,-0.9982,-0.9649,-0.9533,-0.9754,-1.012,-1.0598,-1.1282,-1.1787,-1.1948,-1.1562,-1.1204,0.0,0.0,0.0,0.0,0.0,0.0,0.0,0.0,0.0,0.0,0.0,2.1016,2.1176,2.3025,2.4363,2.4832,2.4778,2.47,2.458,2.4487,2.462,2.5115,2.5082,2.52,2.5638,2.3448,2.2937,2.5229,1.1067,-0.3662,-1.4507,-1.3365,-1.2684,-1.5825,-1.7031,-1.7407,-1.7746,-1.8432,-1.9391,-2.0565,-2.0901,-2.102,-2.0952,-2.1103,-2.1243,-2.116,-2.1271,-2.143,-2.1477,-2.1399,-2.1337,-2.1507,-2.1538,-2.143,-2.1213,-2.1352,-2.1622,-2.1799,-2.1874,-2.189,2.0047,1.9323,1.939,1.9266,1.8999,1.8483,1.8151,1.792,1.7164,1.6584,1.6167,1.595,1.5753,1.5624,1.6467,1.6809,1.6795,1.7311,1.7622,1.7746,1.7838,1.8387,1.9327,1.9418,1.9923,2.0773,2.1593,2.2078,2.2281,2.3173,2.3714,2.3919,2.4019,2.4037,2.3935,2.3667,2.2312,1.979,1.1542,0.2036,-0.8708,-0.8661,-0.8589,-0.8816,-0.877,-0.8954,-0.9296,-0.9606,-0.9824,-1.0124,-1.1062,-1.1719,-1.2058,-1.1593,-1.135,0.0,-1.0606,0.0,0.0,0.0,0.0,0.0,0.0,0.0,0.0,2.1661,2.2531,2.3613,2.4992,2.5666,2.5305,2.5433,2.5819,2.641,2.5578,2.5637,2.7221,2.634,2.5764,2.622,2.1239,1.9479,2.0635,0.6807,-0.6453,-1.4609,-1.6404,-1.6314,-1.6593,-1.6928,-1.7303,-1.7677,-1.8796,-2.0081,-2.1169,-2.1432,-2.1182,-2.0686,-2.0898,-2.1033,-2.1132,-2.1082,-2.1065,-2.1098,-2.0996,-2.0863,-2.0982,-2.1029,-2.0913,-2.0771,-2.0786,-2.0863,-2.0925,-2.107,-2.1118,1.9552,1.939,1.939,1.9295,1.9168,1.9102,1.8617,1.7907,1.77,1.6989,1.6115,1.6557,1.6678,1.6588,1.7274,1.7569,1.7547,1.7539,1.79,1.8572,1.8697,1.9246,2.0065,2.027,2.0796,2.1633,2.1814,2.2341,2.3152,2.3455,2.362,2.3588,2.3837,2.3816,2.3624,0.0,0.0,0.0,1.2974,0.9118,-0.2556,0.1518,0.167,-0.318,-0.2873,0.0,-0.8559,-0.9146,-0.9424,-0.9733,-1.0573,0.0,0.0,0.0,0.0,0.0,0.0,0.0,0.0,0.0,0.0,0.0,1.1588,1.6525,2.0988,2.2093,2.3304,2.5134,2.5077,2.5392,2.6644,2.6567,2.6199,2.5623,2.5679,2.5703,2.5463,2.5784,2.6206,2.6522,2.5813,1.9772,0.7146,0.3331,-0.1804,-1.4113,-1.6525,-1.6802,-1.7159,-1.7513,-1.7844,-1.8291,-1.9537,-2.0683,-2.1152,-2.1296,-2.1302,-2.1102,-2.1432,-2.1736,-2.1835,-2.1613,-2.1515,-2.1644,-2.1159,-2.0925,-2.1409,-2.1515,-2.1386,-2.1261,-2.127,-2.1122,-2.0435,-2.0361,-2.0364,1.9804,0.0,1.9424,1.9295,0.0,1.9235,1.8968,1.8489,1.8457,1.802,1.7363,1.7617,1.7633,1.7445,1.7834,1.8143,1.8386,1.8293,1.868,1.9444,1.9614,2.0127,2.0946,2.1155,2.1668,2.2474,2.2588,2.2923,2.3481,2.3642,2.3792,2.386,2.4441,2.4681,2.4465,2.2297,1.631,0.6565,0.7485,0.3559,-0.5024,-0.2871,-0.2814,-0.5649,-0.5436,0.0,0.0,0.0,0.0,0.0,0.0,0.0,0.0,0.0,0.0,-1.1196,-1.0561,-0.8686,-0.5222,-0.0148,0.5388,1.129,1.7185,2.1225,2.2885,2.3253,2.4099,2.5781,2.5191,2.5431,2.7174,2.7023,2.6688,2.6465,2.6721,2.6724,2.6401,2.6659,2.6934,2.6156,2.0991,1.3482,0.6668,-0.1655,-0.781,-1.5452,-1.7033,-1.7358,-1.784,-1.7885,-1.8109,-1.8934,-2.0003,-2.095,-2.1366,-2.1584,-2.1703,-2.1668,-2.1694,-2.171,-2.1809,-2.1555,-2.1372,-2.1515,-2.1325,-2.1234,-2.1325,-2.1315,-2.1152,-2.1044,-2.1044,-2.0869,-2.0314,-2.0152,-1.9945,2.0055,1.9424,1.939,1.9295,1.9132,1.9166,1.9226,1.9287,0.0,0.0,0.0,1.8616,1.8453,1.8366,1.8379,1.8726,1.9267,1.9212,1.9585,2.028,2.0521,2.1056,2.1821,2.2004,2.2457,2.3102,2.3313,2.3476,2.3616,2.3831,2.3998,2.4265,2.5153,2.5224,2.4161,1.9544,1.3556,0.652,0.2425,-0.2254,-0.7675,-0.7471,-0.7579,-0.8212,-0.8132,-0.8263,-0.8633,-0.8823,-0.8916,-0.887,-0.9852,-1.0506,-1.0608,-1.0887,-1.0967,-1.0725,-1.0156,-0.7201,-0.1199,0.3953,1.005,1.7445,2.2172,2.4663,2.4429,2.4266,2.4736,2.6041,2.5478,2.5757,2.7365,2.7189,2.7092,2.7474,2.7642,2.7713,2.7666,2.7672,2.7031,2.4613,1.5453,0.8077,0.8595,-0.391,-1.5355,-1.6959,-1.7424,-1.7865,-1.8359,-1.8367,-1.8609,-1.9536,-2.0254,-2.0877,-2.1393,-2.1875,-2.2004,-2.1859,-2.1781,-2.1613,-2.1398,-2.1289,-2.1276,-2.1291,-2.1452,-2.1369,-2.1124,-2.0926,-2.0685,-2.0472,-2.0429,-2.0344,-2.0033,-1.9851,-1.9515,1.9516,1.9408,1.9347,1.9282,1.9266,1.9148,1.9448,1.9975,1.9183,1.9126,1.9597,1.8825,1.8831,1.9398,1.9225,1.9596,2.0368,2.0082,2.0305,2.095,2.1273,2.1856,2.2625,2.2845,2.3014,2.3193,2.3354,2.3499,2.3682,2.3831,2.3998,2.4302,2.519,2.3783,1.9646,1.4486,0.8596,0.2347,0.6196,0.5006,-0.1498,0.3105,0.3126,-0.1844,-0.2203,-0.4036,-0.8151,-0.8553,-0.8651,-0.8577,-0.9438,-1.0028,-1.0249,-1.0661,-1.0847,-1.0695,-1.0265,-0.7164,-0.0809,0.4671,1.2362,2.2471,2.4304,2.4594,2.4478,2.4248,2.4636,2.5799,2.5923,2.637,2.7291,2.7184,2.7105,2.7198,2.7373,2.7386,2.7227,2.6988,2.4778,1.9185,1.6399,0.9984,0.2001,-0.4383,-1.086,-1.5366,-1.7092,-1.76,-1.8163,-1.9064,-1.9508,-1.98,-2.0252,-2.0606,-2.0765,-2.1481,-2.1633,-2.1341,-2.1896,-2.1971,-2.132,-2.1579,-2.1737,-2.1318,-2.1293,-2.1213,-2.0935,-2.0726,-2.0392,-1.9976,-1.9853,-1.9656,-1.9073,-1.8901,-1.8851,1.945,1.9453,1.9424,1.9393,1.9344,1.9164,1.9774,2.0732,1.9827,1.9822,2.0497,2.0076,2.0005,2.0171,2.0077,2.0379,2.1049,2.0908,2.125,2.1962,2.2202,2.2503,2.2875,2.3003,2.3119,2.3265,2.336,2.3522,2.3804,2.4312,2.4716,2.4985,2.634,2.6232,2.445,1.8745,1.2714,0.663,0.2181,-0.1607,-0.4531,-0.235,-0.2343,-0.4942,-0.4863,-0.5752,-0.7967,-0.8275,-0.8364,-0.8346,-0.8978,-0.9465,-0.9681,-0.994,-1.0087,-1.0087,-0.9555,-0.6646,-0.0773,0.5027,1.1748,1.9559,2.0227,2.1402,2.41,2.4135,2.4411,2.5283,2.5851,2.6367,2.6812,2.7054,2.7203,2.7201,2.7313,2.7296,2.6747,2.342,2.0106,1.6267,0.93,0.2485,-0.2931,-0.8246,-1.2323,-1.5977,-1.6623,-1.6916,-1.7376,-1.8193,-1.8982,-1.9443,-1.9422,-1.9513,-1.9903,-2.0386,-2.0735,-2.0854,-2.1286,-2.1541,-2.125,-2.1442,-2.1327,-2.1299,-2.0988,-2.0724,-2.0685,-2.0348,-1.9913,-1.9633,-1.9467,-1.9186,-1.8853,-1.8442,-1.8205,1.9479,1.9468,1.9656,1.9684,1.9586,1.9421,2.0137,2.1252,2.0722,2.0932,2.1611,2.1277,2.1039,2.0985,2.0894,2.117,2.1713,2.1756,2.2091,2.2712,2.2868,2.2919,2.2977,2.302,2.3144,2.3313,2.3407,2.3594,2.3907,2.4593,2.5271,2.591,2.7399,2.799,2.739,2.1151,1.4975,0.8581,-0.2441,-0.8252,-0.8177,-0.863,-0.8684,-0.8315,-0.8235,-0.8057,-0.7762,-0.7949,-0.8055,-0.8109,-0.8639,-0.9001,-0.9099,-0.9263,-0.9361,-0.9354,-0.883,-0.6077,-0.0604,0.5242,1.0836,1.6009,1.6396,1.8542,2.3311,2.4014,2.4179,2.4787,2.5364,2.5858,2.6318,2.6732,2.7092,2.7264,2.7299,2.7299,2.6747,2.2213,1.7092,1.3808,0.3914,-0.3293,-0.7811,-1.2706,-1.5801,-1.5753,-1.6126,-1.6373,-1.6623,-1.7178,-1.7968,-1.8495,-1.8437,-1.8346,-1.8942,-1.9357,-1.9629,-2.0057,-2.0275,-2.0397,-2.0409,-2.0199,-2.0407,-2.0677,-2.0227,-1.9814,-2.0019,-1.9552,-1.9017,-1.8702,-1.8565,-1.8511,-1.8343,-1.7901,-1.7664,1.9435,1.9448,2.0094,2.0345,2.0207,2.0208,2.0607,2.1279,2.1867,2.2593,2.303,2.1697,2.1379,2.1796,2.1685,2.2031,2.2745,2.2608,2.2616,2.285,2.2876,2.2902,2.2944,2.3095,2.3199,2.3336,2.3567,2.3747,2.3896,2.4162,2.5111,2.6692,2.7659,2.5855,2.1101,1.5315,0.8933,0.2218,-0.4424,-0.7857,-0.8047,-0.8376,-0.8359,-0.7903,-0.7984,-0.7747,-0.7209,-0.7419,-0.7622,-0.7777,-0.8302,-0.8679,-0.883,-0.9047,-0.9099,-0.8883,-0.8474,-0.5714,-0.0044,0.536,1.0569,1.5664,1.6262,1.841,2.3458,2.3933,2.4019,2.4426,2.4451,2.496,2.6011,2.6204,2.6488,2.7106,2.7195,2.7299,2.6994,2.673,2.1385,0.7882,0.4602,-0.0142,-1.1231,-1.4968,-1.5635,-1.5363,-1.5767,-1.6081,-1.6053,-1.6428,-1.6904,-1.735,-1.7629,-1.7738,-1.7806,-1.8435,-1.8591,-1.8177,-1.8721,-1.9008,-1.8787,-1.9022,-1.9436,-1.958,-1.9198,-1.8753,-1.8467,-1.8009,-1.7733,-1.7549,-1.7321,-1.702,-1.6964,-1.7011,-1.7239,1.9771,2.02,2.0498,2.0809,2.1095,2.1043,2.1384,2.1967,2.2225,2.2767,2.3323,2.2691,2.2534,2.2682,2.2506,2.2598,2.2799,2.2712,2.2703,2.279,2.2816,2.2936,2.308,2.3137,2.3271,2.3504,2.366,2.3774,2.4101,2.5045,2.6294,2.7605,2.848,2.7791,2.5728,2.3371,1.7311,0.7603,0.4689,-0.0055,-0.6527,-0.7722,-0.7706,-0.7245,-0.7195,-0.705,-0.6763,-0.6977,-0.7198,-0.7354,-0.7723,-0.799,-0.8143,-0.8256,-0.8362,-0.8421,-0.8162,-0.5567,-0.0089,0.242,0.7336,1.5752,1.6235,1.8401,2.3399,2.3891,2.3835,2.3869,2.4056,2.4559,2.5257,2.5426,2.5725,2.6238,2.6485,2.6437,2.5954,2.2882,1.6467,0.6826,0.1721,-0.3914,-1.2393,-1.4903,-1.4955,-1.4877,-1.5132,-1.5152,-1.5178,-1.5516,-1.5787,-1.5986,-1.6334,-1.6773,-1.707,-1.7232,-1.7429,-1.7575,-1.783,-1.7894,-1.8037,-1.8303,-1.8699,-1.861,-1.8219,-1.7918,-1.7771,-1.7333,-1.7002,-1.6705,-1.6607,-1.6491,-1.6337,-1.6303,-1.672,2.0026,2.0396,2.0569,2.1175,2.1954,2.1823,2.205,2.2473,2.2583,2.2919,2.3365,2.336,2.3265,2.3168,2.2977,2.285,2.279,2.2738,2.2712,2.2721,2.2773,2.2954,2.3122,2.3186,2.3336,2.3589,2.3685,2.3795,2.4142,2.5509,2.6814,2.7771,2.8462,2.9083,2.9549,2.8184,2.1902,1.2265,0.9769,0.3547,-0.541,-0.7068,-0.7031,-0.6773,-0.6625,-0.6496,-0.6327,-0.6579,-0.682,-0.6918,-0.7192,-0.7461,-0.7509,-0.7557,-0.767,-0.7688,-0.6406,-0.3955,0.0133,0.1704,0.6544,1.5015,1.6278,1.8392,2.2715,2.3871,2.37,2.3552,2.3784,2.4093,2.4533,2.4694,2.4953,2.545,2.572,2.5557,2.482,2.1012,1.5764,0.6611,0.1906,-0.5273,-1.2286,-1.4377,-1.4237,-1.4293,-1.4281,-1.4233,-1.4463,-1.4807,-1.5095,-1.5006,-1.5371,-1.5911,-1.6544,-1.6596,-1.6598,-1.6791,-1.7023,-1.716,-1.7375,-1.7597,-1.7865,-1.7538,-1.7318,-1.7275,-1.726,-1.6942,-1.6429,-1.6255,-1.6194,-1.6046,-1.5591,-1.5644,-1.6164,2.0108,1.9562,2.023,2.1388,2.2658,2.2522,2.2419,2.2536,2.3129,2.3417,2.3383,2.3265,2.3193,2.3102,2.3045,2.2995,2.297,2.279,2.2721,2.2721,2.2833,2.2936,2.3022,2.3276,2.3401,2.3476,2.3682,2.3831,2.3971,2.5032,2.5981,2.6874,2.7233,2.8054,2.8575,2.3589,1.7258,1.1809,0.615,-0.0169,-0.5549,-0.6416,-0.6517,-0.6513,-0.6576,-0.6379,-0.6173,-0.6322,-0.6436,-0.644,-0.6869,-0.7139,-0.7139,-0.7241,-0.7295,-0.678,-0.2911,-0.0045,0.126,0.5065,1.0376,1.5555,1.6913,1.8482,2.341,2.4,2.3891,2.3714,2.3649,2.3735,2.4051,2.4059,2.4326,2.4895,2.5046,2.5034,2.4936,2.4893,1.9122,0.8546,0.3748,-0.2109,-1.2463,-1.3872,-1.3745,-1.3751,-1.3915,-1.4186,-1.4204,-1.4649,-1.4898,-1.492,-1.5185,-1.5647,-1.5792,-1.5885,-1.5949,-1.609,-1.6264,-1.6235,-1.6073,-1.6034,-1.6381,-1.6539,-1.632,-1.6353,-1.6708,-1.6524,-1.5935,-1.5702,-1.578,-1.5568,-1.5107,-1.5521,-1.58,2.0682,2.0904,2.1661,2.2554,2.3422,2.3332,2.3225,2.3129,2.3374,2.343,2.3336,2.3336,2.3265,2.3168,2.3126,2.3045,2.2876,2.2842,2.2799,2.2782,2.285,2.2987,2.3122,2.3259,2.3389,2.3526,2.3725,2.3894,2.4109,2.498,2.5928,2.6859,2.7605,2.8573,2.8484,2.3647,1.7717,1.19,0.5824,-0.0057,-0.5209,-0.5954,-0.5924,-0.5654,-0.5782,-0.5799,-0.5789,-0.5939,-0.5996,-0.5996,-0.6436,-0.6598,-0.6436,-0.6696,-0.6918,-0.6838,-0.5263,-0.1314,0.4877,0.7601,1.2572,2.052,2.1497,2.2068,2.4226,2.466,2.4567,2.45,2.4364,2.4219,2.3696,2.3473,2.3415,2.3745,2.4126,2.4202,2.4043,2.4775,2.0637,0.7631,-0.0813,-0.8551,-1.1435,-1.3463,-1.3515,-1.3716,-1.381,-1.3868,-1.4041,-1.4322,-1.4577,-1.4724,-1.4887,-1.5084,-1.5313,-1.5447,-1.5537,-1.5558,-1.5626,-1.5605,-1.548,-1.5525,-1.5818,-1.582,-1.5506,-1.5596,-1.6013,-1.6044,-1.5489,-1.5333,-1.5407,-1.5217,-1.4744,-1.4993,-1.5015,2.1388,2.2318,2.2606,2.3436,2.4462,2.392,2.3773,2.3861,2.3601,2.3407,2.3295,2.3289,2.3193,2.3095,2.307,2.297,2.2764,2.2868,2.2902,2.2868,2.2944,2.3063,2.3228,2.3307,2.3407,2.3526,2.3685,2.3855,2.4071,2.4667,2.567,2.6897,2.7453,2.8433,2.8649,2.3921,1.7999,1.2227,0.6314,0.0517,-0.4463,-0.5491,-0.5422,-0.512,-0.5114,-0.5218,-0.5408,-0.5462,-0.5555,-0.5609,-0.5882,-0.5941,-0.5832,-0.6218,-0.6544,-0.6475,-0.5016,-0.051,0.7561,1.0509,1.5339,2.3473,2.4428,2.4561,2.4904,2.5014,2.5031,2.5,2.491,2.4544,2.3981,2.34,2.3038,2.3082,2.3424,2.3458,2.3016,2.4382,1.8935,0.7063,-0.5071,-1.1722,-1.3296,-1.3276,-1.342,-1.3716,-1.361,-1.3621,-1.3773,-1.4015,-1.4148,-1.441,-1.4602,-1.4711,-1.481,-1.488,-1.5085,-1.5152,-1.5277,-1.5153,-1.5119,-1.5165,-1.5119,-1.5028,-1.5074,-1.5153,-1.5232,-1.5367,-1.5219,-1.5004,-1.4993,-1.4914,-1.4608,-1.4426,-1.4433,2.2262,2.3419,2.2869,2.3925,2.5446,2.4377,2.4139,2.4557,2.3869,2.3578,2.3552,2.3235,2.3231,2.3007,2.3172,2.2885,2.2936,2.3163,2.3135,2.2995,2.3045,2.3144,2.3265,2.3354,2.3454,2.3554,2.3701,2.3815,2.3961,2.4315,2.5245,2.647,2.6405,2.753,2.9782,2.3087,1.7397,1.2388,0.6766,0.0977,-0.4004,-0.4489,-0.4409,-0.4668,-0.4619,-0.4731,-0.5083,-0.4965,-0.4971,-0.5124,-0.5281,-0.5332,-0.5391,-0.5727,-0.6,-0.54,-0.1858,0.3155,0.8557,1.3225,1.7493,2.3474,2.4393,2.4377,2.4558,2.4874,2.515,2.5216,2.5104,2.4882,2.461,2.4035,2.3382,2.3119,2.3074,2.298,2.3085,2.3336,1.9443,0.7356,-0.4538,-1.2196,-1.3113,-1.321,-1.3306,-1.3395,-1.3405,-1.3405,-1.3387,-1.3777,-1.3936,-1.3865,-1.4105,-1.4434,-1.4352,-1.4316,-1.4549,-1.4755,-1.4903,-1.4971,-1.488,-1.4834,-1.4743,-1.4662,-1.4651,-1.4686,-1.4686,-1.4755,-1.462,-1.4473,-1.4552,-1.4516,-1.4196,-1.3954,-1.3956,2.3629,2.3683,2.4409,2.5049,2.5664,2.5126,2.5031,2.5103,2.4805,2.4664,2.4611,2.453,2.4475,2.4458,2.4485,2.4468,2.4413,2.4531,2.4034,2.3144,2.3063,2.3172,2.3228,2.3324,2.365,2.4254,2.4861,2.4926,2.4675,2.4839,2.537,2.5913,2.6608,2.7579,2.8455,2.0046,1.4079,1.2399,0.7038,0.1358,-0.3255,-0.0418,-0.0238,-0.3762,-0.4043,-0.4119,-0.4427,-0.4604,-0.4685,-0.4695,-0.5011,-0.512,-0.5066,-0.523,-0.5454,-0.5597,-0.4552,0.0463,0.798,1.1018,1.5864,2.237,2.4478,2.4671,2.5003,2.5197,2.5476,2.5786,2.5842,2.5569,2.4967,2.5028,2.4526,2.3316,2.307,2.303,2.2591,1.9694,1.412,0.7393,-0.1388,-0.8045,-1.2094,-1.3077,-1.2706,-1.3561,-1.3541,-1.3372,-1.3282,-1.3651,-1.3909,-1.3611,-1.3897,-1.4118,-1.4115,-1.41,-1.419,-1.4345,-1.4441,-1.4605,-1.4558,-1.4512,-1.443,-1.428,-1.4222,-1.4176,-1.4176,-1.4133,-1.4025,-1.3968,-1.4029,-1.3867,-1.3538,-1.3486,-1.3542,2.453,2.469,2.5253,2.5825,2.6184,2.5745,2.554,2.5575,2.5303,2.5142,2.5086,2.5029,2.4971,2.4942,2.5011,2.5011,2.4971,2.5097,2.4622,2.3769,2.3859,2.3962,2.4013,2.4081,2.4357,2.4935,2.5468,2.5575,2.5337,2.5572,2.5913,2.6503,2.7121,2.7975,2.783,1.877,1.3191,1.2265,0.5638,0.012,-0.1863,-0.0182,-0.012,-0.29,-0.3495,-0.3608,-0.3823,-0.405,-0.4259,-0.435,-0.4629,-0.479,-0.494,-0.5039,-0.5207,-0.5199,-0.3346,0.096,0.8306,1.1543,1.5557,2.2777,2.4564,2.4648,2.5023,2.5184,2.5594,2.5794,2.6068,2.5935,2.5458,2.5595,2.5294,2.4254,2.3809,2.3583,2.2686,1.8336,1.4279,0.9896,0.4414,-0.2341,-0.7626,-0.9535,-1.0697,-1.2651,-1.3646,-1.3461,-1.3355,-1.3525,-1.3571,-1.3601,-1.3691,-1.3861,-1.3911,-1.392,-1.3918,-1.3938,-1.3963,-1.4089,-1.4082,-1.4197,-1.415,-1.3905,-1.38,-1.3668,-1.3621,-1.3621,-1.3569,-1.3573,-1.3515,-1.3379,-1.3223,-1.3195,-1.3218,2.5127,2.6328,2.5691,2.6191,2.7178,2.612,2.5871,2.6137,2.553,2.52,2.5094,2.5107,2.487,2.4692,2.5033,2.505,2.474,2.5043,2.515,2.5038,2.5201,2.5355,2.5253,2.5314,2.5447,2.5606,2.572,2.5755,2.5768,2.5839,2.6645,2.6986,2.7032,2.7945,2.6682,1.87,1.386,1.26,0.427,-0.0257,-0.1193,-0.1888,-0.2766,-0.2138,-0.2947,-0.3304,-0.3281,-0.3488,-0.3734,-0.399,-0.4194,-0.4528,-0.497,-0.4976,-0.5088,-0.5358,-0.0993,0.353,0.8972,1.2874,1.8286,2.3854,2.4933,2.4625,2.4746,2.5277,2.5688,2.5743,2.6127,2.6284,2.6129,2.6254,2.6015,2.5622,2.4794,2.4365,2.4025,2.0026,1.6656,1.4227,1.0228,0.394,-0.4298,-0.5543,-0.8174,-1.1676,-1.3586,-1.3513,-1.3467,-1.3516,-1.3595,-1.3584,-1.3581,-1.3765,-1.3866,-1.3763,-1.3726,-1.3451,-1.351,-1.3573,-1.3641,-1.3773,-1.3784,-1.3525,-1.3324,-1.32,-1.3065,-1.3104,-1.3094,-1.3035,-1.2977,-1.2967,-1.2919,-1.2822,-1.2735,2.6198,2.6584,2.6807,2.7118,2.7355,2.6843,2.6699,2.6762,2.6429,2.6111,2.618,2.6182,2.6064,2.6082,2.6131,2.6214,2.6064,2.6146,2.6247,2.6214,2.6163,2.5842,2.5558,2.5858,2.6074,2.6098,2.6126,2.6007,2.5566,2.5274,2.4944,2.4437,2.5077,2.5367,2.4506,1.8618,1.4998,1.4183,1.0645,0.488,0.129,0.3349,0.245,-0.2132,-0.2348,-0.2583,-0.3093,-0.3339,-0.3586,-0.386,-0.402,-0.4342,-0.4786,-0.477,-0.4765,-0.4574,-0.3632,0.1042,0.8624,1.2024,1.6684,2.4467,2.5942,2.606,2.5412,2.5924,2.6439,2.6822,2.7177,2.7102,2.7018,2.7381,2.7315,2.649,2.55,2.5049,2.5352,2.4373,2.0161,1.1105,0.7934,0.1884,-0.6192,-0.9446,-1.0287,-1.268,-1.3539,-1.3548,-1.3447,-1.3589,-1.3672,-1.353,-1.3534,-1.3733,-1.3815,-1.3664,-1.3459,-1.303,-1.3008,-1.3085,-1.3184,-1.3344,-1.3258,-1.3075,-1.2958,-1.2822,-1.2676,-1.2618,-1.2559,-1.2491,-1.2393,-1.2344,-1.2304,-1.2206,-1.2107,2.6586,2.6852,2.7213,2.7279,2.7186,2.7087,2.6957,2.6792,2.6607,2.6504,2.6486,2.6486,2.6469,2.6418,2.6505,2.6538,2.6486,2.6469,2.6436,2.6401,2.6265,2.6084,2.5914,2.6293,2.635,2.6094,2.6169,2.5831,2.5361,2.4954,2.4521,2.4241,2.4135,2.4388,2.4411,1.9212,1.6104,1.5154,1.193,0.7066,0.4033,0.4833,0.3574,-0.0132,-0.0737,-0.1329,-0.2357,-0.2775,-0.3132,-0.3619,-0.3877,-0.41,-0.4571,-0.4538,-0.3652,-0.204,0.0263,0.5742,1.2751,1.6234,2.0211,2.5134,2.6762,2.6581,2.6396,2.6686,2.7169,2.7031,2.7364,2.7429,2.7446,2.7947,2.8013,2.7477,2.6549,2.6153,2.6527,2.6504,2.181,1.4432,1.0155,0.5453,-0.7526,-0.8396,-1.0072,-1.2233,-1.3327,-1.3353,-1.3353,-1.3598,-1.3672,-1.3501,-1.3318,-1.3392,-1.3541,-1.3503,-1.3204,-1.2779,-1.2461,-1.2563,-1.2748,-1.2881,-1.2842,-1.2704,-1.2616,-1.2469,-1.2327,-1.2168,-1.2017,-1.1959,-1.1868,-1.1805,-1.1831,-1.1778,-1.1659,2.6609,2.7181,2.7135,2.7006,2.6942,2.6959,2.6842,2.6589,2.6435,2.6312,2.6222,2.6187,2.6118,2.599,2.6208,2.6241,2.6115,2.601,2.5954,2.5937,2.5937,2.5952,2.62,2.6387,2.6235,2.5872,2.5779,2.544,2.5051,2.5019,2.4874,2.4363,2.4241,2.4302,2.3317,1.9674,1.7824,1.6289,1.1487,0.8177,0.6497,0.5091,0.3275,0.199,0.0738,-0.0134,-0.1273,-0.194,-0.2542,-0.3485,-0.3509,-0.3842,-0.4366,-0.4385,-0.2502,0.1658,0.5499,1.1158,1.8099,2.1785,2.6199,2.7104,2.7076,2.6785,2.7158,2.7488,2.7582,2.7262,2.7328,2.7658,2.77,2.8003,2.8139,2.7986,2.7763,2.739,2.7023,2.722,2.4761,1.7637,1.5919,0.9396,0.1151,-0.3369,-0.4549,-1.2284,-1.3126,-1.3126,-1.3109,-1.3203,-1.328,-1.3322,-1.316,-1.3016,-1.3227,-1.3312,-1.2906,-1.2444,-1.2068,-1.2026,-1.2235,-1.2319,-1.241,-1.2397,-1.2301,-1.2216,-1.2024,-1.1841,-1.166,-1.167,-1.1748,-1.1627,-1.1516,-1.1435,-1.1336,2.7141,2.7181,2.7135,2.7055,2.6975,2.6808,2.6742,2.6674,2.6453,2.6277,2.617,2.5983,2.5928,2.5934,2.599,2.5917,2.5811,2.5663,2.5508,2.5432,2.5432,2.5584,2.5828,2.6101,2.6052,2.5693,2.5281,2.4941,2.4578,2.4092,2.3561,2.3243,2.2981,2.2491,2.2136,2.0307,1.8287,1.7168,1.3853,1.109,0.9004,0.7026,0.4876,0.3131,0.174,0.0537,-0.0537,-0.1344,-0.1747,-0.2008,-0.2523,-0.3103,-0.373,-0.3969,-0.3062,-0.0835,0.3258,0.846,1.3839,1.998,2.4244,2.7896,2.8482,2.8577,2.7997,2.8392,2.8596,2.848,2.8557,2.8463,2.836,2.8314,2.8282,2.8164,2.8007,2.7811,2.7572,2.7525,2.2551,1.3587,0.9525,0.4323,-0.8414,-0.9753,-1.0921,-1.2895,-1.2911,-1.2842,-1.2801,-1.2813,-1.2846,-1.2911,-1.2793,-1.2603,-1.2526,-1.2598,-1.2248,-1.1922,-1.1666,-1.1456,-1.1629,-1.1834,-1.1956,-1.1995,-1.2074,-1.1898,-1.1704,-1.1589,-1.1402,-1.1529,-1.16,-1.1464,-1.1299,-1.1153,-1.1075,2.7313,2.7264,2.7135,2.7038,2.6975,2.6775,2.6674,2.6589,2.6382,2.6222,2.6099,2.5928,2.5924,2.5954,2.5954,2.5901,2.5811,2.5626,2.5508,2.547,2.5394,2.5394,2.547,2.5605,2.5572,2.5237,2.4871,2.4455,2.3933,2.3537,2.3098,2.2694,2.2203,2.2049,2.1793,2.0657,1.9864,1.8906,1.683,1.4506,1.2629,0.9705,0.6741,0.4185,0.2474,0.1341,0.0537,-0.0067,-0.0605,-0.1076,-0.1478,-0.2082,-0.3021,-0.3347,-0.2668,0.0476,0.5039,1.0659,1.6333,2.1725,2.6512,2.8832,2.9476,2.9289,2.8986,2.9105,2.9082,2.9067,2.8957,2.8863,2.8718,2.858,2.8398,2.8273,2.8091,2.7961,2.7915,2.7707,2.247,1.1494,0.7639,0.0255,-0.726,-1.1957,-1.2944,-1.2744,-1.2466,-1.2405,-1.2359,-1.232,-1.2274,-1.2297,-1.2297,-1.2189,-1.1974,-1.1753,-1.1449,-1.1241,-1.1102,-1.094,-1.0978,-1.123,-1.1463,-1.1551,-1.1663,-1.1487,-1.1312,-1.1213,-1.1088,-1.1046,-1.1079,-1.1084,-1.1043,-1.0861,-1.0767,2.7299,2.725,2.712,2.7023,2.6925,2.6775,2.664,2.6554,2.6329,2.6225,2.6082,2.6082,2.6082,2.6026,2.6026,2.6026,2.5901,2.5775,2.5605,2.5567,2.5416,2.5454,2.5492,2.5416,2.5246,2.4744,2.4648,2.4241,2.3752,2.3392,2.329,2.2934,2.2586,2.2356,2.1935,2.1458,2.0993,2.0243,1.8658,1.7048,1.5639,1.246,0.9277,0.6193,0.4389,0.3064,0.2267,0.1537,0.0938,-0.0,-0.0134,-0.0806,-0.1747,-0.2466,-0.1603,0.3604,0.7517,1.2505,1.767,2.3925,2.7998,2.9452,2.9757,2.9645,2.9512,2.9357,2.9249,2.9156,2.9044,2.8929,2.8743,2.8674,2.8598,2.8458,2.8165,2.766,2.6795,2.6469,1.9617,1.0951,0.6854,0.1401,-0.6766,-1.2691,-1.2629,-1.2436,-1.2158,-1.1965,-1.1926,-1.1809,-1.1747,-1.1622,-1.1615,-1.1288,-1.1073,-1.0781,-1.0492,-1.0299,-1.0312,-1.0227,-1.0186,-1.0387,-1.0583,-1.1048,-1.115,-1.0981,-1.0821,-1.0621,-1.054,-1.0508,-1.0493,-1.0405,-1.0415,-1.0471,-1.0413,2.7152,2.704,2.6975,2.6876,2.6775,2.6725,2.6691,2.6657,2.6488,2.642,2.6365,2.6382,2.6293,2.6206,2.617,2.601,2.5848,2.5754,2.568,2.5605,2.5492,2.5492,2.5589,2.5546,2.5394,2.5262,2.5029,2.4614,2.4261,2.4078,2.3824,2.361,2.3363,2.3038,2.2678,2.2203,2.1541,2.1064,1.9927,1.8694,1.6972,1.4992,1.2397,0.9143,0.7457,0.5914,0.4284,0.3647,0.3201,0.2544,0.1541,0.0805,0.0,-0.1141,-0.1383,0.0,0.4742,1.0454,1.5333,2.0548,2.5272,2.8389,2.9719,2.9626,2.9531,2.9453,2.9349,2.9262,2.9152,2.8998,2.881,2.8755,2.8717,2.858,2.7005,2.5542,2.1826,1.9657,1.6948,0.82,0.6017,0.3294,-0.5927,-1.2197,-1.1934,-1.1732,-1.1392,-1.1329,-1.1413,-1.1303,-1.1178,-1.1052,-1.0863,-1.0478,-1.0085,-0.9818,-0.9448,-0.9321,-0.9254,-0.9205,-0.919,-0.9349,-0.965,-0.9969,-1.0295,-1.0294,-1.0128,-0.9985,-1.0027,-1.0065,-0.9897,-0.9662,-0.9761,-0.9788,-0.9624,2.7201,2.7154,2.704,2.6973,2.6956,2.6875,2.6791,2.6741,2.664,2.6556,2.6538,2.6537,2.6452,2.6382,2.6399,2.6225,2.6046,2.5954,2.5881,2.5791,2.5733,2.5642,2.5701,2.5621,2.5508,2.5378,2.5224,2.5045,2.467,2.4508,2.4343,2.4036,2.3797,2.3538,2.3216,2.2663,2.2109,2.1561,2.1028,2.0143,1.8572,1.6885,1.4121,1.2046,1.0307,0.8668,0.7281,0.6595,0.5845,0.468,0.3504,0.2924,0.2335,0.1338,-0.0201,-0.0842,0.3207,0.861,1.3973,2.0497,2.7414,2.9319,2.9774,2.9645,2.9569,2.9492,2.9411,2.9304,2.9218,2.9089,2.8975,2.8518,2.8797,2.7504,2.3659,1.9717,1.82,1.6036,1.0973,0.5374,0.2948,-0.1137,-0.772,-1.1589,-1.131,-1.0968,-1.062,-1.0634,-1.0717,-1.0528,-1.0275,-0.9894,-0.964,-0.9314,-0.893,-0.8603,-0.8404,-0.8255,-0.808,-0.8032,-0.8122,-0.8227,-0.8382,-0.8601,-0.893,-0.9274,-0.9442,-0.9231,-0.9418,-0.9524,-0.9285,-0.9064,-0.9099,-0.9128,-0.8947,2.7313,2.7296,2.7166,2.7149,2.7198,2.7087,2.699,2.6873,2.6808,2.6758,2.6725,2.6759,2.6708,2.6572,2.6555,2.6503,2.6347,2.6274,2.6151,2.6115,2.5954,2.5864,2.5807,2.5696,2.5637,2.5567,2.5492,2.5355,2.4989,2.4791,2.4589,2.4385,2.4078,2.3882,2.3625,2.3157,2.2709,2.2356,2.1949,2.1361,2.0054,1.7947,1.5746,1.4054,1.2746,1.1556,1.039,0.9625,0.8565,0.7163,0.6016,0.5199,0.4973,0.4257,0.2394,0.0707,0.402,0.8405,1.5319,1.983,2.5597,2.9427,2.9735,2.9701,2.9645,2.955,2.9471,2.9347,2.9289,2.8095,2.6738,2.5608,2.5068,2.3308,1.6639,1.0999,1.3029,1.1621,0.6784,0.2379,-0.039,-0.4299,-0.9438,-1.0491,-1.0148,-0.9679,-0.9273,-0.9151,-0.9227,-0.9238,-0.8988,-0.8538,-0.8215,-0.7957,-0.7637,-0.7372,-0.7177,-0.7019,-0.6867,-0.6681,-0.6894,-0.7046,-0.7186,-0.7246,-0.7647,-0.7977,-0.8242,-0.8371,-0.8301,-0.8236,-0.8371,-0.8301,-0.8166,-0.8166,-0.8107,2.7452,2.7373,2.7261,2.7181,2.7213,2.7181,2.7181,2.7132,2.7066,2.7083,2.7135,2.7203,2.7156,2.6942,2.6691,2.6572,2.6468,2.6417,2.6382,2.6364,2.617,2.6099,2.6096,2.5934,2.5881,2.5828,2.5828,2.553,2.5246,2.5146,2.495,2.4751,2.4589,2.4385,2.412,2.3623,2.3246,2.2934,2.254,2.1874,2.0904,1.9648,1.8484,1.7377,1.614,1.4859,1.3591,1.2538,1.1265,1.0092,0.8983,0.7925,0.6905,0.6096,0.525,0.3477,0.3456,0.5836,1.5104,1.865,2.1667,2.7236,2.8892,2.9438,2.8135,2.7901,2.7893,2.9412,2.8952,2.6777,2.2501,1.7544,1.5464,1.4647,1.2668,0.8619,0.845,0.8582,0.3524,0.1064,-0.1215,-0.4599,-0.8843,-0.8913,-0.8918,-0.8393,-0.7996,-0.7797,-0.7538,-0.7344,-0.7075,-0.6551,-0.6363,-0.611,-0.6117,-0.5858,-0.5928,-0.58,-0.5533,-0.5342,-0.5679,-0.5877,-0.5679,-0.5811,-0.621,-0.6539,-0.6863,-0.6933,-0.6937,-0.7068,-0.726,-0.7129,-0.6933,-0.7068,-0.733,2.776,2.7569,2.7504,2.7504,2.7504,2.7504,2.7474,2.7461,2.7413,2.74,2.7417,2.7438,2.7376,2.7184,2.6973,2.6892,2.6825,2.6725,2.664,2.6623,2.6469,2.6365,2.6295,2.6225,2.6189,2.6154,2.6118,2.6082,2.5738,2.5513,2.5362,2.5224,2.5029,2.4815,2.4614,2.4162,2.3852,2.3551,2.3054,2.2406,2.1724,2.101,2.0243,1.9492,1.8472,1.7455,1.6416,1.5464,1.4461,1.3424,1.2277,1.1048,1.0037,0.9199,0.8433,0.8238,0.6332,0.8445,1.369,1.7037,2.1113,2.296,2.4653,2.337,2.2378,2.2085,2.2458,2.2654,2.3293,2.2245,2.0892,1.8153,1.7569,1.5617,1.0389,0.9509,0.7209,0.3912,0.1974,-0.0,-0.1631,-0.3586,-0.5168,-0.5178,-0.4915,-0.4727,-0.4804,-0.5078,-0.496,-0.4844,-0.4509,-0.4175,-0.4119,-0.4127,-0.4262,-0.4268,-0.4538,-0.4472,-0.4,-0.4074,-0.4556,-0.4694,-0.4422,-0.4287,-0.4616,-0.4948,-0.5348,-0.5881,-0.6148,-0.621,-0.6276,-0.6145,-0.6145,-0.6478,-0.6609,2.8119,2.7876,2.7818,2.7818,2.7864,2.7789,2.776,2.776,2.7719,2.7707,2.7659,2.7617,2.7509,2.7417,2.7261,2.7166,2.7103,2.7053,2.6956,2.6858,2.6791,2.6691,2.6624,2.6556,2.6487,2.647,2.6418,2.64,2.633,2.6137,2.5885,2.5717,2.5492,2.5246,2.4958,2.4679,2.4354,2.3979,2.3537,2.3039,2.2575,2.2146,2.152,2.089,2.0194,1.949,1.8667,1.7784,1.6993,1.6223,1.5157,1.3947,1.2914,1.2342,1.1919,1.1775,1.0749,1.1107,1.4307,1.7173,2.0937,2.1796,2.1425,2.1732,1.9591,1.7319,1.7553,2.0685,2.025,2.0073,1.8755,1.8279,1.6471,1.3703,1.0113,1.0111,0.966,0.6557,0.4421,0.3405,0.2278,0.1177,-0.0065,-0.0525,-0.0658,-0.0856,-0.1386,-0.2248,-0.232,-0.2261,-0.2262,-0.2059,-0.2129,-0.2267,-0.2335,-0.2538,-0.2941,-0.2941,-0.2471,-0.2404,-0.2744,-0.3015,-0.2947,-0.2948,-0.3017,-0.3082,-0.3274,-0.4414,-0.5422,-0.5352,-0.5279,-0.5415,-0.555,-0.5752,-0.5822,2.8398,2.8327,2.8136,2.8081,2.8053,2.7996,2.7968,2.7996,2.7986,2.7968,2.7957,2.7789,2.7701,2.76,2.7539,2.7417,2.723,2.7198,2.7213,2.7149,2.707,2.7053,2.6989,2.6923,2.6825,2.6774,2.6758,2.6792,2.6792,2.6657,2.6349,2.601,2.5885,2.568,2.5416,2.513,2.4735,2.4369,2.3964,2.3767,2.3465,2.3098,2.262,2.2114,2.1547,2.0917,2.0257,1.9399,1.8667,1.8097,1.7379,1.6458,1.5511,1.5253,1.4955,1.4735,1.505,1.5031,1.6232,1.7193,1.9767,2.2674,2.3159,2.144,1.9598,2.1786,2.2761,2.0962,1.8847,1.7865,1.6066,1.4365,1.4481,1.2537,1.0831,1.0624,1.0441,0.9487,0.7588,0.6976,0.602,0.4832,0.4186,0.3531,0.2438,0.2176,0.1123,0.0198,0.0199,0.0199,-0.0067,-0.0133,-0.0267,-0.0334,-0.0401,-0.0602,-0.0668,-0.0534,-0.0267,-0.0334,-0.0602,-0.0871,-0.1273,-0.134,-0.134,-0.1273,-0.1407,-0.2611,-0.3613,-0.4151,-0.435,-0.442,-0.4486,-0.4619,-0.4688,2.8612,2.8637,2.8536,2.8406,2.8291,2.83,2.83,2.8246,2.8282,2.8246,2.8209,2.8146,2.8035,2.7922,2.794,2.7853,2.7736,2.7707,2.7659,2.7582,2.7522,2.7474,2.7461,2.74,2.7321,2.7276,2.723,2.7166,2.7184,2.7038,2.6891,2.6657,2.6349,2.6099,2.5844,2.5546,2.5185,2.491,2.4614,2.4426,2.4036,2.3809,2.345,2.286,2.2452,2.2021,2.1527,2.1062,2.0438,1.9834,1.9352,1.8557,1.7665,1.7588,1.7368,1.7225,1.7739,1.7951,1.819,1.8292,1.8843,1.8276,1.8566,1.8189,1.7763,1.6131,1.6243,1.5506,1.5503,1.4426,1.5216,1.5423,1.5558,1.3058,1.1871,1.1737,1.1472,1.1059,1.0465,0.9725,0.9058,0.809,0.7649,0.7274,0.6071,0.4979,0.3782,0.285,0.2786,0.2657,0.2327,0.2131,0.1999,0.1803,0.1737,0.174,0.1674,0.1742,0.1876,0.1607,0.1272,0.0738,0.0403,0.0403,0.0201,0.0067,-0.0335,-0.1141,-0.1877,-0.2611,-0.3149,-0.3487,-0.3487,-0.3487,-0.3553,2.8785,2.8834,2.8785,2.8644,2.851,2.851,2.8484,2.8432,2.8484,2.844,2.838,2.838,2.8345,2.8237,2.8237,2.8191,2.8081,2.8053,2.7979,2.7922,2.7864,2.7847,2.7806,2.773,2.7624,2.7659,2.76,2.7509,2.7478,2.7324,2.723,2.7038,2.6775,2.6504,2.6239,2.5934,2.5637,2.5432,2.5201,2.5005,2.4589,2.4385,2.4078,2.3537,2.3187,2.283,2.2562,2.2276,2.2092,2.1549,2.1055,2.0524,1.9877,1.934,1.9162,1.9242,1.9542,2.0067,2.0508,2.018,1.901,1.8755,1.7688,1.6181,1.3902,1.2851,1.5423,1.528,1.3271,1.2348,1.5638,1.6698,1.6976,1.5061,1.4647,1.451,1.4245,1.3901,1.3194,1.253,1.1729,1.0864,1.0392,0.9813,0.867,0.7464,0.6339,0.5545,0.5367,0.5173,0.4722,0.4524,0.4394,0.4138,0.3944,0.3673,0.3471,0.3473,0.3476,0.3349,0.2948,0.2415,0.1879,0.1676,0.1475,0.1275,0.0939,0.0603,-0.0268,-0.1274,-0.1744,-0.2214,-0.2214,-0.2214,-0.2417,2.8942,2.8905,2.8923,2.8852,2.8712,2.8587,2.8518,2.8518,2.8518,2.8518,2.851,2.8458,2.8424,2.838,2.8406,2.8353,2.83,2.8273,2.8219,2.8109,2.8081,2.8071,2.7996,2.7904,2.7876,2.7771,2.773,2.7701,2.7683,2.76,2.7478,2.7355,2.7135,2.6842,2.6589,2.6222,2.5901,2.5701,2.5508,2.5317,2.5162,2.4926,2.4589,2.4245,2.3894,2.3508,2.3275,2.3519,2.3325,2.2874,2.2715,2.2261,2.1534,2.0758,2.0411,2.0271,2.0908,2.1264,2.1361,2.1224,2.0752,2.0191,1.9177,1.8646,1.8754,1.846,1.7605,1.7311,1.6994,1.6983,1.7963,1.7965,1.7745,1.7379,1.6877,1.6415,1.6083,1.5671,1.4817,1.41,1.376,1.3287,1.2842,1.2182,1.1024,0.9863,0.882,0.8184,0.7872,0.7219,0.6689,0.6502,0.6306,0.5855,0.5526,0.5404,0.5206,0.5206,0.5074,0.4875,0.4342,0.3604,0.3207,0.2945,0.2882,0.2815,0.2683,0.2551,0.1475,0.0402,-0.047,-0.0873,-0.0873,-0.1008,-0.1209,3.0,2.9099,2.966,2.9522,2.8989,2.8834,2.8785,2.8767,2.8767,2.8743,2.8712,2.8662,2.8619,2.8594,2.8569,2.8518,2.844,2.8432,2.838,2.83,2.8318,2.8273,2.8201,2.8146,2.8109,2.8053,2.7996,2.7922,2.7893,2.7806,2.7748,2.7612,2.7373,2.7055,2.664,2.6293,2.6063,2.599,2.577,2.5567,2.5486,2.5278,2.5045,2.4751,2.4467,2.4135,2.3915,2.4372,2.4414,2.4028,2.3914,2.3741,2.2939,2.2106,2.1789,2.158,2.1921,2.2016,2.2077,2.203,2.1827,2.1396,2.0957,2.051,2.0207,1.9914,1.9656,1.9396,1.9081,1.8827,1.8637,1.8487,1.8271,1.7909,1.749,1.7123,1.6786,1.6312,1.5718,1.5187,1.4787,1.4442,1.3992,1.3597,1.2712,1.1896,1.0843,1.0027,0.9533,0.874,0.8148,0.8109,0.7931,0.7423,0.7102,0.6911,0.6719,0.6584,0.6453,0.6326,0.572,0.492,0.453,0.4339,0.4348,0.442,0.3887,0.3353,0.2887,0.2013,0.1141,0.0403,0.0134,0.0067,-0.0067,3.0609,2.9721,2.9931,2.9724,2.9215,2.9021,2.8929,2.8929,2.8929,2.8905,2.8858,2.8834,2.8785,2.8743,2.8718,2.8712,2.8594,2.8594,2.8587,2.851,2.8476,2.8432,2.8406,2.838,2.83,2.8273,2.8219,2.8164,2.8174,2.8007,2.7876,2.7748,2.7557,2.7247,2.6892,2.6623,2.6364,2.6258,2.6026,2.586,2.5749,2.5562,2.5317,2.5084,2.4831,2.4549,2.4671,2.5028,2.5435,2.5079,2.4975,2.4941,2.4063,2.3251,2.2831,2.2447,2.248,2.2572,2.2723,2.2737,2.2449,2.1935,2.1616,2.1229,2.0822,2.0472,2.0169,1.9926,1.9693,1.938,1.9052,1.8958,1.8744,1.8387,1.8116,1.7744,1.7412,1.7,1.6662,1.6197,1.5738,1.54,1.5001,1.4725,1.4181,1.3494,1.281,1.1997,1.1128,1.0335,0.9554,0.9458,0.9354,0.8913,0.8597,0.8345,0.8156,0.7962,0.7832,0.7637,0.7181,0.6515,0.6059,0.5665,0.5609,0.5348,0.4686,0.4087,0.3687,0.3286,0.275,0.2013,0.1344,0.1075,0.0941,3.0719,3.0532,2.9785,2.9467,2.937,2.9134,2.9021,2.9017,2.9017,2.8998,2.8929,2.8934,2.8929,2.8834,2.8834,2.8791,2.8785,2.8785,2.8761,2.8687,2.8637,2.8587,2.8536,2.8484,2.8458,2.8484,2.8432,2.8406,2.844,2.8246,2.8035,2.7818,2.76,2.7404,2.7166,2.694,2.6657,2.6452,2.6293,2.6151,2.6007,2.5863,2.5756,2.5557,2.5401,2.5199,2.5399,2.578,2.6016,2.5995,2.6016,2.5639,2.4941,2.3923,2.3245,2.285,2.2979,2.3068,2.3172,2.3216,2.2918,2.237,2.1996,2.1664,2.1229,2.0822,2.0523,2.0207,1.985,1.9604,1.9356,1.9263,1.9117,1.8839,1.8614,1.8344,1.8084,1.7744,1.7523,1.7123,1.6797,1.6332,1.5748,1.5478,1.5088,1.4538,1.3803,1.3191,1.2381,1.1779,1.1121,1.0759,1.0591,1.0345,1.0028,0.964,0.9448,0.9186,0.9005,0.8812,0.8366,0.7912,0.7377,0.6915,0.6736,0.6342,0.5547,0.5084,0.4686,0.4287,0.3887,0.3288,0.2551,0.2016,0.1813,3.087,2.9841,3.0161,2.9973,2.9429,2.9328,2.9249,2.9228,2.9267,2.9228,2.9185,2.9188,2.9138,2.9089,2.9119,2.9026,2.8957,2.8929,2.8929,2.8858,2.8785,2.8785,2.8755,2.8699,2.8662,2.863,2.8641,2.867,2.8572,2.8416,2.8182,2.794,2.7701,2.7569,2.7386,2.7166,2.6959,2.6708,2.6553,2.6395,2.6421,2.6401,2.6308,2.6202,2.6206,2.6075,2.6215,2.6603,2.6811,2.6871,2.7127,2.6946,2.6255,2.5331,2.4481,2.354,2.3436,2.3407,2.3436,2.3127,2.2859,2.2646,2.2231,2.1855,2.1471,2.1118,2.0822,2.051,2.0144,1.9901,1.972,1.9577,1.9445,1.9235,1.8958,1.8679,1.8356,1.8084,1.781,1.759,1.7245,1.6853,1.6332,1.5931,1.5546,1.5196,1.4725,1.4121,1.3511,1.2842,1.2236,1.1802,1.1545,1.1233,1.1045,1.0724,1.0534,1.0351,1.0104,0.9786,0.9338,0.8888,0.849,0.7972,0.7456,0.7003,0.6474,0.6009,0.5547,0.5352,0.4954,0.4359,0.3758,0.3222,0.2751,3.133,3.1029,3.0843,3.0693,3.0542,3.0544,3.0374,3.0018,2.9642,2.9414,2.9314,2.9392,2.9332,2.9249,2.9291,2.9228,2.9093,2.9134,2.913,2.9021,2.8929,2.8923,2.8918,2.9107,2.9302,2.9241,2.9216,2.9275,2.9025,2.8626,2.8327,2.8201,2.7933,2.7777,2.7717,2.7712,2.7698,2.7332,2.7013,2.6721,2.6762,2.68,2.6639,2.6808,2.6913,2.6622,2.6649,2.6933,2.7223,2.7273,2.7527,2.764,2.6834,2.5845,2.4867,2.3963,2.3769,2.3668,2.3653,2.3421,2.3083,2.2768,2.2449,2.217,2.1793,2.1471,2.118,2.0921,2.0573,2.0271,2.008,1.9888,1.9706,1.9522,1.9235,1.8905,1.8572,1.8247,1.7975,1.7755,1.7468,1.7134,1.674,1.64,1.5999,1.5594,1.5186,1.4706,1.4172,1.358,1.2972,1.2421,1.2236,1.2042,1.1794,1.1545,1.1303,1.1052,1.0737,1.0428,1.0117,0.96,0.9081,0.8495,0.7912,0.7521,0.7195,0.6868,0.647,0.621,0.5951,0.5488,0.4888,0.4289,0.3885,3.1827,3.2899,3.1619,3.1412,3.2147,3.2128,3.1789,3.1147,3.034,2.9661,2.947,2.955,2.9531,2.9373,2.9414,2.9373,2.931,2.9286,2.9265,2.9218,2.9089,2.9062,2.9219,2.9564,2.9538,2.9868,3.0027,2.9814,2.9691,2.9141,2.8536,2.8484,2.8146,2.8067,2.8275,2.8316,2.8288,2.8122,2.7587,2.7165,2.7155,2.6856,2.6369,2.6749,2.6406,2.5844,2.5982,2.6344,2.6954,2.7174,2.7303,2.7656,2.6642,2.5986,2.5011,2.4255,2.4013,2.3925,2.3797,2.361,2.3392,2.3127,2.2859,2.2449,2.203,2.1664,2.1375,2.1215,2.0921,2.0699,2.0511,2.0144,1.9849,1.9589,1.9316,1.8999,1.8744,1.8422,1.8193,1.7975,1.7744,1.7412,1.7145,1.6807,1.6457,1.5989,1.5652,1.5294,1.4765,1.424,1.37,1.3103,1.2867,1.2621,1.2359,1.2112,1.1872,1.1622,1.1373,1.0996,1.0555,1.0047,0.9542,0.9017,0.8495,0.8242,0.7917,0.7652,0.7326,0.6933,0.6675,0.6548,0.6083,0.5418,0.4951,3.0921,3.0714,3.0959,3.1544,3.226,3.2279,3.2241,3.2015,3.1826,3.0941,2.9888,2.9757,2.972,2.9643,2.9701,2.9644,2.9561,2.9766,2.9409,2.9477,2.9428,2.9474,2.9307,2.9646,2.9609,2.9632,2.9867,3.0197,2.9936,2.9234,2.8587,2.8432,2.8272,2.8421,2.8909,2.8974,2.8994,2.8984,2.8537,2.7981,2.7791,2.749,2.7188,2.725,2.6891,2.6925,2.6993,2.6974,2.7508,2.7782,2.7274,2.6681,2.5751,2.5949,2.5398,2.4426,2.4109,2.4051,2.3982,2.3754,2.3451,2.3127,2.2814,2.2463,2.2091,2.1759,2.152,2.1458,2.1277,2.1122,2.0838,2.041,1.9978,1.972,1.9408,1.9158,1.8851,1.8637,1.8367,1.8193,1.7963,1.7689,1.749,1.7211,1.6864,1.6581,1.6306,1.5951,1.542,1.4942,1.4419,1.3821,1.3441,1.3197,1.2867,1.2674,1.2367,1.212,1.1864,1.1428,1.0933,1.0364,0.9792,0.953,0.9139,0.8888,0.8635,0.8382,0.8052,0.7782,0.7456,0.7265,0.7068,0.6539,0.6141,3.1616,3.1578,3.2068,3.273,3.3393,3.3525,3.3335,3.3013,3.2993,3.2291,3.1063,3.0633,3.0355,3.0265,3.03,3.0509,3.0487,3.0655,3.0784,3.0628,3.0302,3.02,3.0123,3.0101,3.0113,3.0132,3.0157,3.0291,3.0173,2.9344,2.8718,2.8626,2.8631,2.8979,2.9512,2.968,2.9951,2.9994,2.9632,2.9143,2.8476,2.7791,2.732,2.73,2.7212,2.7283,2.7226,2.7049,2.731,2.7624,2.7394,2.6936,2.6357,2.6253,2.5666,2.4764,2.4234,2.4151,2.4082,2.3855,2.3523,2.326,2.3038,2.2783,2.2449,2.2109,2.1807,2.1698,2.1506,2.134,2.1073,2.0662,2.0296,1.9939,1.9668,1.9408,1.8999,1.8637,1.8476,1.8313,1.8084,1.7854,1.759,1.739,1.7099,1.6987,1.6715,1.6467,1.5999,1.5488,1.501,1.4478,1.4028,1.3614,1.3285,1.3033,1.292,1.2605,1.2297,1.174,1.1247,1.0618,1.0047,0.9913,0.9722,0.9536,0.935,0.9087,0.8952,0.8683,0.8361,0.8042,0.7847,0.7657,0.7256,3.3069,3.3826,3.3783,3.4203,3.487,3.5,3.4636,3.4046,3.3951,3.3494,3.2659,3.187,3.15,3.1295,3.1295,3.175,3.1958,3.1713,3.1879,3.1854,3.1752,3.1278,3.116,3.1306,3.1169,3.0976,3.0872,3.0919,3.0899,3.0092,2.9557,2.9155,2.9321,2.9737,3.0112,3.0755,3.1302,3.1137,3.0803,3.0277,2.9161,2.7811,2.7313,2.6947,2.6634,2.6385,2.6466,2.6564,2.6712,2.7083,2.732,2.6832,2.6408,2.6119,2.5536,2.474,2.4359,2.4291,2.4208,2.4109,2.3882,2.3653,2.3451,2.3142,2.2709,2.2388,2.2123,2.1902,2.1698,2.1506,2.1242,2.0911,2.0549,2.0093,1.9823,1.9565,1.9093,1.8679,1.8583,1.8422,1.8193,1.7963,1.7755,1.7501,1.739,1.7222,1.7043,1.674,1.6446,1.5951,1.5498,1.4951,1.4419,1.3992,1.364,1.3398,1.3216,1.2981,1.2605,1.205,1.156,1.1115,1.0737,1.0421,1.0238,1.0174,1.004,0.9907,0.9709,0.9582,0.932,0.8935,0.8565,0.8436,0.8301,3.4067,3.477,3.4103,3.4276,3.498,3.5108,3.4994,3.4882,3.4804,3.4365,3.3701,3.3418,3.295,3.2179,3.2141,3.2408,3.2637,3.2562,3.2259,3.2066,3.2403,3.2098,3.1808,3.184,3.221,3.2054,3.1801,3.1844,3.1557,3.1182,3.0623,2.9832,3.0538,3.0802,3.0812,3.1445,3.1905,3.1831,3.1395,3.0715,2.924,2.8098,2.7402,2.696,2.65,2.6341,2.6261,2.6094,2.6385,2.6791,2.7118,2.654,2.6125,2.5826,2.541,2.4891,2.4523,2.4498,2.44,2.4219,2.4036,2.3882,2.3581,2.3127,2.2754,2.254,2.2278,2.2137,2.1935,2.1698,2.1471,2.1068,2.0673,2.0131,1.9772,1.9525,1.9117,1.8905,1.8691,1.853,1.8302,1.803,1.7822,1.7612,1.7434,1.7323,1.7145,1.6909,1.6906,1.6452,1.5924,1.5371,1.4815,1.4291,1.389,1.3631,1.345,1.3216,1.2981,1.2544,1.2112,1.1864,1.149,1.1115,1.0989,1.0926,1.0793,1.0604,1.0408,1.0281,1.0148,0.9894,0.9524,0.921,0.9075]}]]